[[{"header":{"parameterUnit":"m.s-1","parameterCategory":1,"la1":30.6,"la2":29.2853,"lo1":-89.7004,"lo2":-87.6739,"dy":0.0162,"dx":0.0183,"nx":112,"ny":82,"refTime":"2023-03-05T06:00:00:Z","depth":0,"parameterNumber":2,"parameterNumberName":"U-component_of_WINDS"},"data":[0.0,0.0,0.0,0.0,0.0,0.0,0.0,0.0,0.0,0.0,0.0,0.0,0.0,0.0,0.0,0.0,0.0,0.0,0.0,0.0,0.0,0.0,0.0,0.0,0.0,0.0,0.0,0.0,0.0,0.0,0.0,0.0,0.0,0.0,0.0,0.0,0.0,0.0,0.0,0.0,0.0,0.0,0.0,0.0,0.0,0.0,0.0,0.0,0.0,0.0,0.0,0.0,0.0,0.0,0.0,0.0,0.0,0.0,0.0,0.0,0.0,0.0,0.0,0.0,0.0,0.0,0.0,0.0,0.0,0.0,0.0,0.0,0.0,0.0,0.0,0.0,0.0,0.0,0.0,0.0,0.0,0.0,0.0,0.0,0.0,0.0,0.0,0.0,0.0,0.0,-2.7037,-2.7189,-2.8462,-2.927,-2.9232,-2.9315,-2.8415,-2.6122,0.0,0.0,0.0,0.0,0.0,0.0,0.0,0.0,0.0,0.0,0.0,0.0,0.0,0.0,0.0,0.0,0.0,0.0,0.0,0.0,0.0,0.0,0.0,0.0,0.0,0.0,0.0,0.0,0.0,0.0,0.0,0.0,0.0,0.0,0.0,0.0,0.0,0.0,0.0,0.0,0.0,0.0,0.0,0.0,0.0,0.0,0.0,0.0,0.0,0.0,0.0,0.0,0.0,0.0,0.0,0.0,0.0,0.0,0.0,0.0,0.0,0.0,0.0,0.0,0.0,0.0,0.0,0.0,0.0,0.0,0.0,0.0,0.0,0.0,0.0,0.0,0.0,0.0,0.0,0.0,0.0,0.0,0.0,0.0,0.0,0.0,0.0,0.0,0.0,0.0,0.0,0.0,0.0,0.0,0.0,0.0,0.0,0.0,0.0,0.0,0.0,0.0,0.0,0.0,-2.7385,-2.8859,-2.918,-2.9296,-2.9291,-2.9296,-2.8338,-2.6057,0.0,0.0,0.0,0.0,0.0,0.0,0.0,0.0,0.0,0.0,0.0,0.0,0.0,0.0,0.0,0.0,0.0,0.0,0.0,0.0,0.0,0.0,0.0,0.0,0.0,0.0,0.0,0.0,0.0,0.0,0.0,0.0,0.0,0.0,0.0,0.0,0.0,0.0,0.0,0.0,0.0,0.0,0.0,0.0,0.0,0.0,0.0,0.0,0.0,0.0,0.0,0.0,0.0,0.0,0.0,0.0,0.0,0.0,0.0,0.0,0.0,0.0,0.0,0.0,0.0,0.0,0.0,0.0,0.0,0.0,0.0,0.0,0.0,0.0,0.0,0.0,0.0,0.0,0.0,0.0,0.0,0.0,0.0,0.0,0.0,0.0,0.0,0.0,0.0,0.0,0.0,0.0,0.0,0.0,0.0,0.0,0.0,0.0,0.0,0.0,0.0,0.0,0.0,-2.7295,-2.802,-2.9312,-2.9451,-2.9441,-2.9404,-2.939,-2.8613,-2.6885,-2.6165,0.0,0.0,0.0,0.0,0.0,0.0,0.0,0.0,0.0,0.0,0.0,0.0,0.0,0.0,0.0,0.0,0.0,0.0,0.0,0.0,0.0,0.0,0.0,0.0,0.0,0.0,0.0,0.0,0.0,0.0,0.0,0.0,0.0,0.0,0.0,0.0,0.0,0.0,0.0,0.0,0.0,0.0,0.0,0.0,0.0,0.0,0.0,0.0,0.0,0.0,0.0,0.0,0.0,0.0,0.0,0.0,0.0,0.0,0.0,0.0,0.0,0.0,0.0,0.0,0.0,0.0,0.0,0.0,0.0,0.0,0.0,0.0,0.0,0.0,0.0,0.0,0.0,0.0,0.0,0.0,0.0,0.0,0.0,0.0,0.0,0.0,0.0,0.0,0.0,0.0,0.0,0.0,0.0,0.0,0.0,0.0,0.0,0.0,0.0,0.0,0.0,0.0,-2.8297,-2.8792,-2.9475,-2.9588,-2.9588,-2.9531,-2.9443,-2.8857,-2.7586,-2.667,0.0,0.0,0.0,0.0,0.0,0.0,0.0,0.0,0.0,0.0,0.0,0.0,0.0,0.0,0.0,0.0,0.0,0.0,0.0,0.0,0.0,0.0,0.0,0.0,0.0,0.0,0.0,0.0,0.0,0.0,0.0,0.0,0.0,0.0,0.0,0.0,0.0,0.0,0.0,0.0,0.0,0.0,0.0,0.0,0.0,0.0,0.0,0.0,0.0,0.0,0.0,0.0,0.0,0.0,0.0,0.0,0.0,0.0,0.0,0.0,0.0,0.0,0.0,0.0,0.0,0.0,0.0,0.0,0.0,0.0,0.0,0.0,0.0,0.0,0.0,0.0,0.0,0.0,0.0,0.0,0.0,0.0,0.0,0.0,0.0,0.0,0.0,0.0,0.0,0.0,0.0,0.0,0.0,0.0,0.0,0.0,0.0,0.0,0.0,0.0,0.0,0.0,-2.861,-2.9748,-2.9692,-2.9626,-2.9598,-2.9598,-2.9463,-2.8865,-2.7576,-2.7368,0.0,0.0,0.0,0.0,0.0,0.0,0.0,0.0,0.0,0.0,0.0,0.0,0.0,0.0,0.0,0.0,0.0,0.0,0.0,0.0,0.0,0.0,0.0,0.0,0.0,0.0,0.0,0.0,0.0,0.0,0.0,0.0,0.0,0.0,0.0,0.0,0.0,0.0,0.0,0.0,0.0,0.0,0.0,0.0,0.0,0.0,0.0,0.0,0.0,0.0,0.0,0.0,0.0,0.0,0.0,0.0,0.0,0.0,0.0,0.0,0.0,0.0,0.0,0.0,0.0,0.0,0.0,0.0,0.0,0.0,0.0,0.0,0.0,0.0,0.0,0.0,0.0,0.0,0.0,0.0,0.0,0.0,0.0,0.0,0.0,0.0,0.0,0.0,0.0,0.0,0.0,0.0,0.0,0.0,0.0,0.0,0.0,0.0,0.0,0.0,0.0,0.0,-2.932,-2.977,-2.9701,-2.9683,-2.9683,-2.9719,-2.9636,-2.9204,-2.8308,0.0,0.0,0.0,0.0,0.0,0.0,0.0,0.0,0.0,0.0,0.0,0.0,0.0,0.0,0.0,0.0,0.0,0.0,0.0,0.0,0.0,0.0,0.0,0.0,0.0,0.0,0.0,0.0,0.0,0.0,0.0,0.0,0.0,0.0,0.0,0.0,0.0,0.0,0.0,0.0,0.0,0.0,0.0,0.0,0.0,0.0,0.0,0.0,0.0,0.0,0.0,0.0,0.0,0.0,0.0,0.0,0.0,0.0,0.0,0.0,0.0,0.0,0.0,0.0,0.0,0.0,0.0,0.0,0.0,0.0,0.0,0.0,0.0,0.0,0.0,0.0,0.0,0.0,0.0,0.0,0.0,0.0,0.0,0.0,0.0,0.0,0.0,0.0,0.0,0.0,0.0,0.0,0.0,0.0,0.0,0.0,0.0,0.0,0.0,0.0,0.0,0.0,-2.9437,-2.9682,-2.9856,-2.9773,-2.9773,-2.9782,-2.9763,-2.9738,-2.9454,-2.8849,0.0,0.0,0.0,0.0,0.0,0.0,0.0,0.0,0.0,0.0,0.0,0.0,0.0,0.0,0.0,0.0,0.0,0.0,0.0,0.0,0.0,0.0,0.0,0.0,0.0,0.0,0.0,0.0,0.0,0.0,0.0,0.0,0.0,0.0,0.0,0.0,0.0,0.0,0.0,0.0,0.0,0.0,0.0,0.0,0.0,0.0,0.0,0.0,0.0,0.0,0.0,0.0,0.0,0.0,0.0,0.0,0.0,0.0,0.0,0.0,0.0,0.0,0.0,0.0,0.0,0.0,0.0,0.0,0.0,0.0,0.0,0.0,0.0,0.0,0.0,0.0,0.0,0.0,0.0,0.0,0.0,0.0,0.0,0.0,0.0,0.0,0.0,0.0,0.0,0.0,0.0,0.0,0.0,0.0,0.0,0.0,0.0,0.0,0.0,0.0,0.0,0.0,-2.8869,-2.9653,-3.0235,-2.9956,-2.9994,-2.9943,-2.9745,-2.9738,-2.9559,0.0,0.0,0.0,0.0,0.0,0.0,0.0,0.0,0.0,0.0,0.0,0.0,0.0,0.0,0.0,0.0,0.0,0.0,0.0,0.0,0.0,0.0,0.0,0.0,0.0,0.0,0.0,0.0,0.0,0.0,0.0,0.0,0.0,0.0,0.0,0.0,0.0,0.0,0.0,0.0,0.0,0.0,0.0,0.0,0.0,0.0,0.0,0.0,0.0,0.0,0.0,0.0,0.0,0.0,0.0,0.0,0.0,0.0,0.0,0.0,0.0,0.0,0.0,0.0,0.0,0.0,0.0,0.0,0.0,0.0,0.0,0.0,0.0,0.0,0.0,0.0,0.0,0.0,0.0,0.0,0.0,0.0,0.0,0.0,0.0,0.0,0.0,0.0,0.0,0.0,0.0,0.0,0.0,0.0,0.0,0.0,0.0,0.0,0.0,0.0,0.0,0.0,0.0,-2.996,-3.1229,-3.2128,-3.1901,-3.1776,-3.1693,-3.1684,-3.1543,-3.1019,-2.9942,0.0,0.0,0.0,0.0,0.0,0.0,0.0,0.0,0.0,0.0,0.0,0.0,0.0,0.0,0.0,0.0,0.0,0.0,0.0,0.0,0.0,0.0,0.0,0.0,0.0,0.0,0.0,0.0,0.0,0.0,0.0,0.0,0.0,0.0,0.0,0.0,0.0,0.0,0.0,0.0,0.0,0.0,0.0,0.0,0.0,0.0,0.0,0.0,0.0,0.0,0.0,0.0,0.0,0.0,0.0,0.0,0.0,0.0,0.0,0.0,0.0,0.0,0.0,0.0,0.0,0.0,0.0,0.0,0.0,0.0,0.0,0.0,0.0,0.0,0.0,0.0,0.0,0.0,0.0,0.0,0.0,0.0,0.0,0.0,0.0,0.0,0.0,0.0,0.0,0.0,0.0,0.0,0.0,0.0,0.0,0.0,0.0,0.0,0.0,0.0,0.0,0.0,-3.1006,-3.2196,-3.2998,-3.2807,-3.2607,-3.2471,-3.2457,-3.227,-3.1798,-3.0969,0.0,0.0,0.0,0.0,0.0,0.0,0.0,0.0,0.0,0.0,0.0,0.0,0.0,0.0,0.0,0.0,0.0,0.0,0.0,0.0,0.0,0.0,0.0,0.0,0.0,0.0,0.0,0.0,0.0,0.0,0.0,0.0,0.0,0.0,0.0,0.0,0.0,0.0,0.0,0.0,0.0,0.0,0.0,0.0,0.0,0.0,0.0,0.0,0.0,0.0,0.0,0.0,0.0,0.0,0.0,0.0,0.0,0.0,0.0,0.0,0.0,0.0,0.0,0.0,0.0,0.0,0.0,0.0,0.0,0.0,0.0,0.0,0.0,0.0,0.0,0.0,0.0,0.0,0.0,0.0,0.0,0.0,0.0,0.0,0.0,0.0,0.0,0.0,0.0,0.0,0.0,0.0,0.0,0.0,0.0,0.0,0.0,0.0,0.0,0.0,0.0,0.0,-3.1904,-3.2792,-3.333,-3.3076,-3.2851,-3.2641,-3.2438,-3.2232,-3.2045,-3.1896,0.0,0.0,0.0,0.0,0.0,0.0,0.0,0.0,0.0,0.0,0.0,0.0,0.0,0.0,0.0,0.0,0.0,0.0,0.0,0.0,0.0,0.0,0.0,0.0,0.0,0.0,0.0,0.0,0.0,0.0,0.0,0.0,0.0,0.0,0.0,0.0,0.0,0.0,0.0,0.0,0.0,0.0,0.0,0.0,0.0,0.0,0.0,0.0,0.0,0.0,0.0,0.0,0.0,0.0,0.0,0.0,0.0,0.0,0.0,0.0,-2.791,0.0,0.0,0.0,0.0,0.0,0.0,0.0,0.0,0.0,0.0,0.0,0.0,0.0,0.0,0.0,0.0,0.0,0.0,0.0,0.0,0.0,0.0,0.0,0.0,0.0,0.0,0.0,0.0,0.0,0.0,0.0,0.0,0.0,0.0,0.0,0.0,0.0,0.0,0.0,0.0,0.0,-3.198,-3.3856,-3.4975,-3.4234,-3.384,-3.3359,-3.2687,-3.2305,-3.1783,-3.1015,-3.0509,0.0,0.0,0.0,0.0,0.0,0.0,0.0,0.0,0.0,0.0,0.0,0.0,0.0,0.0,0.0,0.0,0.0,0.0,0.0,0.0,0.0,0.0,0.0,0.0,0.0,0.0,0.0,0.0,0.0,0.0,0.0,0.0,0.0,0.0,0.0,0.0,0.0,0.0,0.0,0.0,0.0,0.0,0.0,0.0,0.0,0.0,0.0,0.0,0.0,0.0,0.0,0.0,0.0,0.0,0.0,0.0,0.0,0.0,0.0,0.0,-2.8954,0.0,0.0,0.0,0.0,0.0,0.0,0.0,0.0,0.0,0.0,0.0,0.0,0.0,0.0,0.0,0.0,0.0,0.0,0.0,0.0,0.0,0.0,0.0,0.0,0.0,0.0,0.0,0.0,0.0,0.0,0.0,0.0,0.0,0.0,0.0,0.0,0.0,0.0,0.0,0.0,-3.2,-3.3495,-3.4439,-3.3961,-3.356,-3.3147,-3.2739,-3.2332,-3.1897,-3.1405,-3.082,0.0,0.0,0.0,0.0,0.0,0.0,0.0,0.0,0.0,0.0,0.0,0.0,0.0,0.0,0.0,0.0,0.0,0.0,0.0,0.0,0.0,0.0,0.0,0.0,0.0,0.0,0.0,0.0,0.0,0.0,0.0,0.0,0.0,0.0,0.0,0.0,0.0,0.0,0.0,0.0,0.0,0.0,0.0,0.0,0.0,0.0,0.0,0.0,0.0,0.0,0.0,0.0,0.0,-2.9897,-2.9897,-2.9897,-2.9897,-2.9897,-2.9913,-3.0131,-3.0177,-3.0122,-3.0234,0.0,0.0,0.0,0.0,0.0,0.0,0.0,0.0,0.0,0.0,0.0,0.0,0.0,0.0,0.0,0.0,0.0,0.0,0.0,0.0,0.0,0.0,0.0,0.0,-3.3529,-3.3435,-3.2712,0.0,0.0,0.0,0.0,0.0,0.0,0.0,0.0,0.0,0.0,0.0,-3.1997,-3.2759,-3.3245,-3.3112,-3.2756,-3.2454,-3.2281,-3.1939,-3.1712,-3.1673,-3.0956,-3.0521,0.0,0.0,0.0,0.0,0.0,0.0,0.0,0.0,0.0,0.0,0.0,0.0,0.0,0.0,0.0,0.0,0.0,0.0,0.0,0.0,0.0,0.0,0.0,0.0,0.0,0.0,0.0,0.0,0.0,0.0,0.0,0.0,-2.654,-2.712,0.0,0.0,0.0,0.0,0.0,0.0,0.0,0.0,0.0,0.0,0.0,0.0,0.0,-2.9836,-2.9828,-2.9883,-2.9905,-2.9897,-2.9897,-2.9897,-2.9897,-2.9897,-2.9897,-2.9897,-2.9945,0.0,-3.0115,-3.0177,0.0,0.0,0.0,0.0,0.0,0.0,0.0,0.0,0.0,0.0,0.0,0.0,0.0,0.0,0.0,0.0,0.0,0.0,0.0,0.0,0.0,0.0,-3.3258,-3.3377,-3.3978,-3.4503,0.0,-3.3843,-3.3359,-3.3222,-3.3155,0.0,0.0,0.0,0.0,0.0,0.0,0.0,-3.2007,-3.2756,-3.3021,-3.2336,-3.1997,-3.1491,-3.0596,-3.0308,-3.0136,-3.0011,-2.9899,-2.9776,-2.967,-2.964,0.0,0.0,0.0,0.0,0.0,0.0,0.0,0.0,0.0,0.0,0.0,0.0,0.0,0.0,0.0,0.0,0.0,0.0,0.0,0.0,0.0,0.0,0.0,0.0,0.0,0.0,0.0,0.0,0.0,-2.6989,-2.7096,-2.6906,-2.7299,-2.7577,0.0,0.0,0.0,0.0,0.0,0.0,0.0,0.0,0.0,-3.0007,-2.9964,-2.9948,-2.9948,-3.0449,-3.0696,-3.0696,-3.1184,-3.142,-3.142,-3.142,-3.142,-3.142,-3.142,-3.1442,-3.1436,-3.0449,-3.0137,-3.026,0.0,0.0,0.0,0.0,-3.0929,-3.1343,-3.1856,-3.2031,-3.2034,-3.2075,0.0,0.0,0.0,0.0,0.0,0.0,0.0,0.0,0.0,0.0,-3.4256,-3.4743,-3.5152,-3.5423,-3.5426,-3.5123,-3.4721,0.0,-3.4101,-3.3645,-3.2237,0.0,0.0,0.0,0.0,-3.1262,-3.1262,-3.1637,-3.1752,-3.1407,-3.1158,-3.0791,-3.0254,-3.0056,-2.988,-2.9701,-2.9701,-2.9664,-2.9608,-2.955,-2.9314,0.0,0.0,0.0,0.0,0.0,0.0,0.0,0.0,0.0,0.0,0.0,0.0,0.0,0.0,0.0,0.0,0.0,0.0,0.0,0.0,0.0,0.0,0.0,0.0,0.0,0.0,0.0,0.0,-2.7778,-2.7759,-2.7083,-2.7703,-2.8175,0.0,0.0,0.0,0.0,0.0,0.0,-2.9964,-3.014,-3.0254,-3.0314,-3.0463,-3.0549,-3.0576,-3.1227,-3.1594,-3.1602,-3.2254,-3.2556,-3.2564,-3.2564,-3.2572,-3.2608,-3.2608,-3.2608,-3.2504,-3.1138,-3.0681,-3.0796,-3.0592,-3.0751,-3.1127,-3.1513,-3.1794,-3.2104,-3.2747,-3.2943,-3.2943,-3.3035,-3.305,-3.3059,-3.3465,0.0,0.0,0.0,0.0,-3.3124,-3.4647,-3.5037,-3.5193,-3.5856,-3.5992,-3.5992,-3.5992,-3.5992,-3.5802,0.0,-3.5036,-3.4531,-3.2939,0.0,0.0,0.0,0.0,-3.1271,-3.1057,-3.1086,-3.1026,-3.0792,-3.0642,-3.0468,-3.0274,-3.0119,-2.9973,-2.9755,-2.971,-2.9701,-2.9701,-2.9598,-2.9434,-2.9201,0.0,0.0,0.0,0.0,0.0,0.0,0.0,0.0,0.0,0.0,0.0,0.0,0.0,0.0,0.0,0.0,0.0,0.0,0.0,0.0,0.0,0.0,0.0,0.0,0.0,0.0,0.0,0.0,0.0,-2.8686,-2.9451,0.0,0.0,0.0,0.0,-3.0014,-3.0007,-2.9964,-2.9897,-3.0692,-3.1137,-3.1137,-3.1876,-3.2291,-3.2381,-3.2348,-3.2376,-3.2438,-3.2414,-3.2433,-3.2522,-3.2522,-3.2539,-3.2608,-3.2608,-3.2608,-3.2589,-3.2504,-3.248,-3.2393,-3.1638,-3.1893,-3.2596,-3.18,-3.2077,-3.2845,-3.2894,-3.2935,-3.2996,-3.3001,-3.2997,-3.3166,-3.4061,-3.3783,0.0,0.0,-3.454,-3.4783,-3.5699,-3.5934,-3.5953,-3.5992,-3.5992,-3.5992,-3.5992,-3.5992,-3.5992,0.0,-3.5935,-3.5617,-3.4637,0.0,-3.4177,-3.3299,-3.3177,-3.2866,-3.2046,-3.1932,-3.1612,-3.0795,-3.0691,-3.0607,-3.0419,-3.0263,-3.0109,-2.9897,-2.9764,-2.9701,-2.9701,-2.9683,-2.9608,-2.9482,-2.9212,0.0,0.0,0.0,0.0,0.0,0.0,0.0,0.0,0.0,0.0,0.0,0.0,0.0,0.0,0.0,0.0,0.0,0.0,0.0,0.0,0.0,0.0,0.0,0.0,0.0,0.0,0.0,0.0,-2.8935,-2.9108,0.0,-2.936,-2.9325,-2.9741,-3.0815,-3.0812,-3.101,-3.1539,-3.1827,-3.1962,-3.1962,-3.2246,-3.2424,-3.2495,-3.3025,-3.3335,-3.3405,-3.3946,-3.4211,-3.4247,-3.4247,-3.4255,-3.4263,-3.4263,-3.4263,-3.4263,-3.4263,-3.3939,-3.3416,-3.313,-3.3565,-3.4307,-3.3947,-3.4004,-3.4257,-3.4351,-3.4361,-3.4364,-3.4455,-3.4569,-3.4733,-3.5124,-3.5095,-3.5012,-3.5396,-3.5515,-3.5602,-3.5914,-3.5992,-3.5992,-3.5992,-3.5992,-3.5992,-3.5992,-3.5992,-3.5992,-3.5992,-3.5992,-3.5694,-3.4758,-3.4593,-3.4298,-3.3433,-3.3301,-3.3196,-3.2885,-3.2842,-3.2723,-3.2406,-3.1867,-3.1421,-3.1135,-3.055,-3.0079,-2.9799,-2.9719,-2.9701,-2.9701,-2.9701,-2.9673,-2.9636,-2.9522,-2.9343,0.0,0.0,0.0,0.0,0.0,0.0,0.0,0.0,0.0,0.0,0.0,0.0,0.0,0.0,0.0,0.0,0.0,0.0,0.0,0.0,0.0,0.0,0.0,0.0,0.0,0.0,-2.9462,-2.8935,-2.9334,-2.9673,-2.9775,-2.9958,-3.0555,-3.1714,-3.173,-3.1908,-3.2476,-3.2735,-3.2869,-3.2867,-3.3134,-3.3313,-3.342,-3.3961,-3.4262,-3.4342,-3.4912,-3.5168,-3.5204,-3.5204,-3.5193,-3.5209,-3.5209,-3.5209,-3.5209,-3.5209,-3.4868,-3.4348,-3.4348,-3.4691,-3.5198,-3.5155,-3.512,-3.5084,-3.5168,-3.5196,-3.5187,-3.5304,-3.5457,-3.5604,-3.565,-3.5776,-3.5916,-3.5949,-3.5985,-3.5992,-3.5992,-3.5992,-3.5992,-3.5992,-3.5992,-3.5992,-3.5992,-3.5992,-3.5992,-3.5992,-3.598,-3.5778,-3.5147,-3.5033,-3.4749,-3.3838,-3.3961,-3.3934,-3.3371,-3.3538,-3.3591,-3.3329,-3.2779,-3.2307,-3.1964,-3.1147,-3.0494,-3.0159,-2.9861,-2.9701,-2.9701,-2.9701,-2.9701,-2.9701,-2.9701,-2.9502,-2.9097,0.0,0.0,0.0,0.0,0.0,0.0,0.0,0.0,0.0,0.0,0.0,0.0,0.0,0.0,0.0,0.0,0.0,0.0,0.0,0.0,0.0,0.0,0.0,-2.7758,-2.8339,-2.8874,-2.8874,-3.0334,-3.1342,-3.1343,-3.2094,-3.2608,-3.2646,-3.2646,-3.2621,-3.2598,-3.3377,-3.3831,-3.3836,-3.4592,-3.5066,-3.52,-3.5138,-3.5138,-3.52,-3.5138,-3.5138,-3.52,-3.52,-3.5198,-3.5201,-3.5201,-3.5201,-3.5201,-3.5201,-3.5201,-3.5201,-3.5201,-3.5201,-3.5201,-3.5198,-3.52,-3.5208,-3.5185,-3.5245,-3.53,-3.5376,-3.549,-3.5607,-3.5593,-3.5736,-3.5908,-3.5892,-3.5947,-3.5992,-3.5992,-3.5992,-3.5992,-3.5992,-3.5992,-3.5992,-3.5992,-3.5992,-3.5992,-3.5992,-3.5952,-3.5897,-3.59,-3.5903,-3.5596,-3.4688,-3.5255,0.0,-3.3584,-3.4051,-3.4229,-3.3429,-3.3312,-3.3175,-3.2831,-3.2006,-3.1357,-3.102,-3.0198,-2.9729,-2.9701,-2.9701,-2.9701,-2.9701,-2.9701,-2.9502,-2.9107,0.0,0.0,0.0,0.0,0.0,0.0,0.0,0.0,0.0,0.0,0.0,0.0,0.0,0.0,0.0,0.0,0.0,0.0,0.0,0.0,0.0,0.0,-2.9395,-2.8579,-2.9654,-3.0536,-3.0536,-3.1542,-3.2249,-3.2246,-3.2461,-3.2874,-3.3554,-3.3536,-3.375,-3.4423,-3.4636,-3.4741,-3.4731,-3.4969,-3.5101,-3.52,-3.5191,-3.5191,-3.52,-3.5191,-3.5155,-3.5129,-3.5129,-3.5138,-3.5127,-3.5127,-3.5127,-3.5127,-3.5127,-3.5127,-3.5136,-3.5185,-3.5204,-3.5198,-3.5208,-3.5164,-3.5129,-3.5065,-3.5089,-3.5166,-3.5223,-3.5376,-3.5548,-3.565,-3.5779,-3.5916,-3.5951,-3.5986,-3.5992,-3.5992,-3.5992,-3.5992,-3.5992,-3.5992,-3.5992,-3.5992,-3.5992,-3.5992,-3.5992,-3.5957,-3.5903,-3.5896,-3.5903,-3.5791,-3.55,-3.5639,0.0,-3.5173,-3.5309,-3.5123,-3.4326,-3.3669,-3.3192,-3.2974,-3.2155,-3.1507,-3.117,-3.0922,-3.0457,-2.9729,-2.9701,-2.9701,-2.9701,-2.9701,-2.9589,0.0,0.0,0.0,0.0,0.0,0.0,0.0,0.0,0.0,0.0,0.0,0.0,0.0,0.0,0.0,0.0,0.0,0.0,0.0,0.0,0.0,0.0,-3.0053,-3.0494,-3.038,-3.1132,-3.1705,-3.175,-3.2558,-3.3103,-3.3146,-3.3473,-3.3917,-3.4459,-3.4426,-3.4611,-3.5136,-3.5129,-3.5092,-3.5092,-3.5436,-3.5616,-3.5661,-3.6023,-3.6213,-3.6213,-3.6213,-3.6185,-3.6158,-3.6158,-3.6158,-3.6158,-3.6158,-3.6158,-3.6158,-3.6176,-3.5967,0.0,0.0,0.0,0.0,0.0,-3.5145,-3.5145,-3.51,-3.5152,-3.5261,-3.5302,-3.5488,-3.5674,-3.5768,-3.5858,-3.5947,-3.5988,-3.5992,-3.5992,-3.5992,-3.5992,-3.5992,-3.5992,-3.5992,-3.5992,-3.5992,-3.5992,-3.5992,-3.5992,-3.5957,0.0,-3.59,-3.587,-3.5716,-3.5321,-3.5562,-3.5682,-3.5345,-3.5597,-3.5624,-3.5184,-3.4697,-3.4276,-3.4028,-3.318,0.0,0.0,0.0,-3.1157,-3.0227,-2.987,0.0,0.0,0.0,-2.9655,-2.9579,0.0,0.0,0.0,-2.8504,-2.8316,0.0,0.0,0.0,0.0,0.0,0.0,0.0,0.0,0.0,0.0,0.0,0.0,0.0,0.0,0.0,0.0,-3.0928,-3.1724,-3.2522,-3.2678,-3.2679,-3.2646,-3.342,-3.3976,-3.4037,-3.4746,-3.5193,-3.5189,-3.5204,-3.5168,-3.5101,0.0,0.0,0.0,0.0,-3.6464,-3.6463,-3.7224,-3.7595,-3.7595,-3.7595,-3.7585,-3.7585,-3.7585,-3.7585,-3.7585,-3.7585,-3.7585,-3.7585,-3.7652,-3.7185,-3.6349,-3.5445,-3.5092,-3.5092,-3.5092,-3.5145,-3.5193,-3.5198,0.0,0.0,-3.549,-3.5676,-3.5886,-3.5908,-3.5945,-3.5992,-3.5992,-3.5992,-3.5992,-3.5992,-3.5992,-3.5992,-3.5992,-3.5992,-3.5992,-3.5992,-3.5991,-3.5992,-3.5995,-3.5957,-3.5907,-3.5905,-3.5847,-3.5546,-3.4754,-3.5298,-3.5535,-3.4839,-3.5364,-3.5799,-3.5762,0.0,0.0,-3.5305,-3.452,-3.3894,-3.3562,-3.2646,-3.1785,-3.1062,-3.0265,-2.9833,-2.9833,-2.9739,-2.9701,-2.9701,-2.9701,-2.9701,-2.9673,-2.8941,-2.8682,0.0,0.0,0.0,0.0,0.0,0.0,0.0,0.0,0.0,0.0,0.0,0.0,0.0,0.0,0.0,-3.0989,-3.1781,-3.2568,-3.3439,-3.4143,-3.4324,-3.3629,-3.4357,-3.4925,-3.4952,-3.5108,-3.5201,-3.5193,-3.5206,-3.5189,-3.5191,-3.5793,-3.6155,-3.6155,-3.6984,-3.7442,-3.7432,-3.7547,-3.7566,-3.7528,0.0,0.0,-3.744,-3.744,-3.744,-3.744,-3.744,-3.744,-3.745,-3.746,-3.7355,-3.7051,-3.5655,-3.5092,-3.5092,-3.5092,-3.5101,-3.5126,-3.5228,-3.5304,-3.538,-3.5535,-3.565,-3.5759,-3.5864,-3.5945,0.0,-3.5992,-3.5992,-3.5992,-3.5992,-3.5992,-3.5992,-3.5992,-3.5992,-3.5992,-3.5992,-3.6007,-3.5991,-3.5991,-3.5957,-3.5907,-3.5903,-3.5833,-3.5741,-3.5566,-3.5683,-3.5745,-3.5593,-3.5748,-3.5622,-3.4928,-3.4851,-3.4773,-3.4614,-3.4439,-3.4185,-3.3846,-3.2732,-3.2029,-3.1879,-3.111,-3.0668,-3.0668,-3.0021,-2.9701,-2.9701,-2.9701,-2.9701,-2.9701,-2.9314,-2.9158,0.0,0.0,0.0,0.0,0.0,0.0,0.0,0.0,0.0,0.0,0.0,-3.0051,0.0,0.0,-3.1197,-3.2403,-3.2931,-3.3494,-3.4331,-3.4843,-3.4985,-3.4503,-3.4863,-3.5147,-3.5147,-3.5145,-3.5314,-3.5725,-3.5791,-3.5992,-3.6385,-3.6812,-3.7041,-3.7003,-3.7813,-3.8261,-3.8252,-3.8622,-3.8772,-3.8691,-3.8691,-3.8681,-3.866,-3.866,-3.866,-3.866,-3.866,-3.866,-3.8622,-3.8216,-3.8074,-3.7991,-3.6739,-3.6274,-3.6312,-3.6348,-3.6153,-3.5873,-3.5977,-3.5791,-3.5576,-3.5717,-3.5801,-3.5853,-3.5923,-3.598,-3.5992,-3.5992,-3.5992,-3.5992,-3.5992,-3.5992,-3.5992,-3.5992,-3.6009,-3.6006,-3.6006,-3.5999,-3.6004,-3.5991,-3.5957,-3.5891,-3.5901,-3.5867,-3.5856,-3.5845,-3.5815,-3.5815,-3.5856,-3.5889,-3.5723,-3.5301,-3.4856,-3.4724,-3.5014,-3.4488,-3.4206,-3.4334,-3.294,-3.2292,-3.2724,-3.1954,-3.1504,-3.1504,-3.0715,-3.0302,-3.0302,-2.9889,-2.9701,-2.9701,-2.956,-2.9424,0.0,0.0,0.0,0.0,0.0,0.0,0.0,0.0,-2.887,-2.9707,-3.0298,-3.0912,-3.1722,-3.1771,-3.2232,-3.3792,-3.3959,-3.4164,-3.4987,-3.5147,-3.5155,-3.5084,-3.5084,-3.5092,-3.5092,-3.5245,-3.5606,-3.6253,-3.6481,-3.6909,-3.7566,-3.7804,-3.7889,-3.7842,-3.8642,-3.907,-3.9068,-3.9684,-3.9975,-3.9922,-3.99,-3.99,-3.99,-3.99,-3.99,-3.99,-3.99,-3.99,-3.9843,-3.9191,-3.8957,-3.8931,-3.8198,-3.7953,-3.7955,-3.7681,-3.7257,-3.6838,-3.6934,-3.667,-3.6269,-3.6395,-3.6458,-3.65,-3.65,-3.6383,-3.6245,-3.6245,-3.6126,-3.6007,-3.6007,-3.6007,-3.6007,-3.6007,-3.6004,-3.5999,-3.5999,-3.5994,-3.6002,-3.5992,-3.5957,-3.5893,-3.5901,-3.5897,-3.5898,-3.5908,-3.5852,-3.5849,-3.5898,-3.5905,-3.5891,-3.59,-3.5277,-3.5061,-3.5597,-3.471,-3.4321,-3.4755,-3.3398,-3.2893,-3.3607,-3.2818,-3.2349,-3.2349,-3.155,-3.1137,-3.1137,-3.0471,-3.0171,-3.0171,-3.0171,-2.9878,-2.598,-2.6411,-2.7328,-2.8108,-2.881,-2.9694,0.0,0.0,-3.0645,-3.2019,-3.1769,-3.1748,-3.3257,-3.2942,-3.3024,-3.4674,-3.4312,-3.4111,-3.4978,-3.512,-3.5084,-3.502,-3.5066,-3.5092,-3.5092,-3.5759,-3.6196,-3.6291,-3.6977,-3.7443,-3.7595,-3.828,-3.8709,-3.8747,-3.9586,-4.0034,-4.0053,-4.001,-3.9996,-3.9986,-3.9933,-3.99,-3.99,-3.99,-3.99,-3.99,-3.99,-3.99,-3.99,-3.9805,-3.9767,-3.9759,-3.9718,-3.9711,-3.954,-3.8069,-3.7537,-3.7606,-3.7868,-3.7948,-3.7977,-3.8211,-3.8295,-3.8318,-3.8318,-3.7765,-3.7154,-3.7154,-3.6602,-3.6007,-3.6007,-3.6007,-3.6007,-3.6007,-3.5994,-3.5999,-3.5999,-3.5999,-3.5995,-3.5995,-3.5955,-3.5891,-3.5892,-3.5908,-3.5908,-3.5901,-3.5882,-3.5895,-3.5905,-3.5898,-3.5901,-3.5908,-3.5811,-3.5663,-3.5449,-3.515,-3.4892,-3.4724,-3.4469,-3.4358,-3.4451,-3.37,-3.3239,-3.3239,-3.2405,-3.1973,-3.1973,-3.1879,-3.1823,-3.1823,-3.1823,-3.1043,-2.7933,-2.7874,-2.8088,-2.9416,-3.0021,-3.0596,-3.1701,-3.1624,-3.1601,-3.2571,-3.2816,-3.3037,-3.3616,-3.3881,-3.4239,0.0,-3.477,-3.4683,-3.5051,-3.5065,-3.5057,-3.5066,-3.5466,-3.5733,-3.5733,-3.6037,-3.6644,-3.7612,-3.804,-3.8468,-3.8963,-3.9394,-3.9624,-3.9662,-4.0053,-4.0244,-4.0196,-4.0138,-4.0098,-4.0057,-3.9986,-3.9954,-3.9954,-3.9922,-3.99,-3.99,-3.99,-3.99,-3.99,-3.99,-3.99,-3.99,-3.9933,-3.9943,-3.987,-3.9328,-3.8891,-3.8616,-3.8869,-3.8687,-3.8348,-3.8534,-3.8591,-3.8591,-3.8591,-3.8355,-3.806,-3.806,-3.7783,-3.7507,-3.7507,-3.7507,-3.7507,-3.7507,-3.7134,-3.6762,-3.6762,-3.6366,-3.5991,-3.5957,-3.6326,-3.6669,-3.6651,-3.6664,-3.6635,-3.6609,-3.617,-3.5856,-3.5882,-3.5908,-3.5713,-3.5201,-3.5558,-3.5557,-3.4818,-3.4532,-3.4516,-3.4803,-3.4227,-3.4113,-3.4594,-3.4282,-3.4095,-3.4095,-3.3287,-3.2856,-3.2856,-3.2349,-3.2105,-3.2105,-3.2105,-3.1729,-2.8947,-2.8967,-2.9064,-3.0743,-3.1347,-3.173,-3.253,-3.248,-3.2504,-3.3367,-3.3759,-3.396,-3.407,-3.4612,-3.5029,-3.5038,-3.5073,-3.5108,-3.5149,-3.5091,-3.5133,-3.5425,-3.5894,-3.6377,-3.6851,-3.6889,-3.7401,-3.8614,-3.8948,-3.9368,-3.9977,-4.0098,-4.0166,-4.0196,-4.0253,-4.0253,-4.0196,-4.0186,-4.0147,-4.0067,-3.9996,-3.9975,-3.9965,-3.9922,-3.99,-3.99,-3.99,-3.99,-3.99,-3.99,-3.99,-3.99,-3.99,-3.9922,-3.9996,-4.0266,-4.0031,-3.9601,-3.9869,-3.9609,-3.9151,-3.9263,-3.9294,-3.9294,-3.9294,-3.9117,-3.894,-3.894,-3.8762,-3.8566,-3.8566,-3.8566,-3.8566,-3.8566,-3.8092,-3.762,-3.762,-3.7148,-3.6695,-3.6621,-3.7126,-3.7563,-3.7559,-3.753,-3.75,-3.7467,-3.6725,-3.6099,-3.5907,-3.5868,-3.5631,-3.5009,-3.5453,-3.5461,-3.4615,-3.4374,-3.4426,-3.4784,-3.4133,-3.3982,-3.4594,-3.4612,-3.4612,-3.4612,-3.4038,-3.3738,-3.3738,-3.31,-3.278,-3.278,-3.278,-3.278,0.0,0.0,-2.9963,-3.1642,-3.2695,-3.3524,-3.4338,-3.3821,-3.3584,-3.5104,-3.4648,-3.4199,-3.492,-3.5081,-3.5101,-3.5107,-3.5096,-3.5149,-3.5277,-3.5179,-3.5415,-3.625,-3.6274,-3.6851,0.0,-3.8614,-3.8652,-3.869,-3.9418,-3.9914,-3.9996,-3.9996,-4.0067,-4.0196,-4.0196,-4.0196,-4.0196,-4.0137,-4.0067,-3.9996,-3.9933,-3.99,-3.99,-3.99,-3.99,-3.99,-3.99,-3.99,-3.99,-3.99,-3.99,-3.99,-3.99,-3.9984,-4.0138,-4.0404,-4.0491,-4.05,-4.0764,-4.0922,-4.1018,-4.1025,-4.1012,-4.1012,-4.1012,-4.0439,-3.9769,-3.9769,-3.9156,-3.8504,-3.8504,-3.8504,-3.8504,-3.8504,-3.8471,-3.8459,-3.8459,-3.8486,-3.8504,-3.8435,-3.8448,-3.845,-3.8455,-3.8408,-3.8358,-3.8358,-3.7622,-3.6759,-3.59,-3.5811,-3.5799,-3.5779,-3.5795,-3.5621,-3.5213,-3.517,-3.5007,-3.4636,-3.4575,-3.4564,-3.4612,-3.4612,-3.4612,-3.4612,-3.4594,-3.4564,-3.4564,-3.4537,-3.4508,-3.4508,-3.4508,-3.4508,0.0,0.0,-3.1662,-3.3398,-3.4042,-3.4488,-3.5334,-3.5247,-3.512,-3.5542,-3.487,-3.4268,-3.4462,-3.4426,-3.4373,-3.4361,-3.4871,-3.5258,-3.5354,-3.5289,-3.5548,-3.6364,-3.6896,0.0,0.0,0.0,0.0,-3.9456,-3.9748,-3.9911,-3.9933,-4.0026,-4.0077,-4.0137,-4.0176,-4.0196,-4.0196,-4.0137,-4.0096,-4.0067,-3.9986,-3.9943,-3.99,-3.99,-3.99,-3.99,-3.99,-3.99,-3.99,-3.99,-3.99,-3.9911,-4.0059,-4.0139,-4.02,-4.0559,-4.0692,-4.0723,-4.0964,-4.1064,-4.1098,-4.1103,-4.1109,-4.1109,-4.1109,-4.0893,-4.0656,-4.0656,-4.0459,-4.0223,-4.0223,-4.0223,-4.0223,-4.0223,-3.9774,-3.9366,-3.9366,-3.8931,-3.8534,-3.8509,-3.8979,-3.9353,-3.9307,-3.928,-3.9073,-3.8497,-3.7668,-3.6789,-3.59,-3.5799,-3.5795,-3.5795,-3.5795,-3.564,-3.5218,-3.5208,-3.5026,-3.4626,-3.4612,-3.4612,-3.4612,-3.4612,-3.4612,-3.4612,-3.4612,-3.4612,-3.4612,-3.4612,-3.4612,-3.4612,-3.4612,-3.4506,0.0,-3.1735,-3.2988,-3.4725,-3.5154,-3.531,-3.5875,-3.5976,-3.5907,-3.5791,-3.501,-3.4316,-3.4245,-3.4139,-3.3955,-3.3678,-3.4346,-3.4934,-3.5027,-3.5212,-3.5744,-3.6864,-3.7644,-3.8394,0.0,0.0,0.0,-3.9862,-3.9922,-3.9933,-3.9933,-4.0026,-4.021,-4.0556,-4.0614,-4.0777,-4.1102,-4.0737,-4.0382,-4.0026,-3.9975,-3.9943,-3.99,-3.99,-3.99,-3.99,-3.99,-3.99,-3.99,-3.99,-3.9935,-4.0029,-4.0148,-4.0251,-4.0388,-4.0698,-4.0824,-4.0889,-4.1052,-4.1107,-4.1092,-4.1104,-4.1106,-4.1104,-4.1108,-4.1106,-4.1104,-4.1108,-4.1109,-4.1109,-4.1109,-4.1109,-4.1109,-4.1109,-4.0678,-4.0268,-4.0268,-3.9816,-3.9433,-3.9427,-3.985,-4.0215,-4.0163,-4.0159,-3.987,-3.9008,-3.8382,-3.7702,-3.6848,-3.6459,-3.6261,-3.6261,-3.5989,-3.564,-3.5218,-3.5208,-3.5026,-3.4626,-3.4612,-3.4612,-3.4612,-3.4612,-3.4612,-3.4612,-3.4612,-3.4612,-3.4612,-3.4612,-3.4612,-3.4602,-3.4506,-3.4351,-3.2517,-3.3474,-3.3923,-3.5582,-3.5992,-3.5992,-3.5992,-3.5992,-3.5963,-3.5866,-3.5051,-3.4321,0.0,0.0,-3.3824,-3.3122,-3.3715,-3.432,-3.4443,-3.5048,-3.6086,0.0,0.0,0.0,0.0,0.0,0.0,-3.9911,0.0,-3.9996,-3.9996,-4.0034,-4.0485,-4.1368,-4.1452,-4.1852,-4.2685,-4.1871,-4.0959,-3.9957,-3.9957,-3.9957,-3.99,-3.99,-3.99,-3.99,-3.99,-3.99,-3.99,-3.99,-4.0029,-4.0204,-4.0206,-4.038,-4.0633,-4.0755,-4.0909,-4.1006,-4.1076,-4.1109,-4.1109,-4.1109,-4.1103,-4.1095,-4.1106,-4.1103,-4.1097,-4.1106,-4.1109,-4.1109,-4.1109,-4.1109,-4.1109,-4.1109,-4.1109,-4.1109,-4.1091,-4.1105,-4.1093,-4.1108,-4.1044,-4.1,-4.0993,-4.0996,-4.0725,-3.9897,-3.9757,-3.9431,-3.8523,-3.7683,-3.7178,-3.7178,-3.6377,-3.5693,-3.5295,-3.522,-3.5018,-3.4615,-3.4602,-3.4612,-3.4612,-3.4612,-3.4612,-3.4612,-3.4612,-3.4612,-3.4612,-3.4612,-3.4612,-3.4583,-3.4316,-3.4197,-3.3156,-3.435,-3.5446,-3.5895,-3.5992,-3.5992,-3.5992,-3.5992,-3.5815,-3.5144,-3.4298,-3.3452,0.0,0.0,0.0,-3.3172,-3.4292,0.0,-3.5274,-3.5964,0.0,-3.7775,0.0,-3.9385,-4.0139,-4.0167,0.0,0.0,-4.0036,-4.0036,-3.9933,-4.0637,-4.1137,-4.1385,-4.2025,-4.2484,-4.2704,-4.2423,-4.1836,-4.0943,-4.0943,-4.058,-3.99,-3.99,-3.99,-3.99,-3.99,-3.99,-3.99,-3.99,-4.0012,-4.0206,-4.0362,-4.0558,-4.076,-4.0968,-4.1052,-4.1076,-4.1087,-4.1109,-4.1109,-4.1109,-4.1108,-4.1106,-4.1108,-4.1108,-4.1106,-4.1108,-4.1109,-4.1109,-4.1109,-4.1109,-4.1109,-4.1109,-4.1109,-4.1094,-4.1106,-4.1094,-4.1087,-4.1041,-4.1011,-4.0995,-4.1007,-4.0995,-4.092,-4.064,-4.0597,-4.0053,-3.86,-3.8212,-3.8076,-3.8076,-3.7196,-3.6464,-3.6055,-3.5422,-3.4879,-3.4484,-3.4539,-3.4612,-3.4612,-3.4612,-3.4612,-3.4612,-3.4612,-3.4612,-3.4612,-3.4612,-3.4612,-3.4583,-3.4316,-3.4099,-3.4329,-3.5267,-3.5992,-3.5992,-3.5992,-3.5895,-3.5524,-3.5428,-3.5174,-3.4315,-3.3437,0.0,-3.2187,-3.27,0.0,0.0,0.0,0.0,-3.5151,-3.6178,-3.7188,0.0,-3.9066,0.0,-4.0342,-4.0321,-4.0278,0.0,-4.0139,-4.0238,-4.0536,-4.1087,-4.1758,-4.2512,-4.299,-4.3238,-4.3238,-4.3188,-4.2533,-4.1288,-4.1288,-4.08,-3.99,-3.99,-3.99,-3.99,0.0,-3.9948,-4.0033,-4.0033,-4.0198,-4.0468,-4.0589,-4.0752,-4.0951,-4.1057,-4.1099,-4.1109,-4.1109,-4.1109,-4.1109,-4.1109,-4.1106,-4.1103,-4.1108,-4.1106,-4.1103,-4.1108,-4.1109,-4.1109,-4.1109,-4.1109,-4.1109,-4.1109,-4.1109,-4.1095,-4.111,-4.1093,-4.108,-4.1005,-4.1,-4.1,-4.0991,-4.1006,-4.0978,-4.0912,-4.0907,-4.0558,-3.9625,-3.9198,-3.8965,-3.8965,-3.8073,-3.7308,-3.6889,-3.6065,-3.541,-3.5045,-3.4745,-3.4612,-3.4612,-3.4612,-3.4612,-3.4612,-3.4612,-3.4612,-3.4612,-3.4612,-3.4612,-3.4583,-3.4316,-3.4061,-3.5581,-3.5992,-3.5992,-3.5992,-3.5992,-3.5778,-3.4901,-3.4705,-3.4413,-3.3435,0.0,-3.2052,-3.1953,-3.2538,-3.2869,-3.2331,0.0,-3.4554,-3.4739,-3.6203,-3.7475,-3.8059,-3.9605,-4.063,-4.063,-4.0514,-4.0515,-4.0666,-4.0462,-4.0644,-4.1366,-4.1613,-4.2493,-4.4121,-4.4128,-4.4088,-4.4088,-4.4109,-4.3285,-4.1675,-4.1573,-4.1058,-4.0148,-4.0026,-3.9979,-3.9979,-3.9979,-4.0091,-4.0244,-4.0244,-4.0461,-4.0805,-4.0805,-4.0926,-4.1103,-4.1103,-4.1109,-4.1109,-4.1109,-4.1109,-4.1109,-4.1109,-4.1103,-4.1097,-4.1106,-4.1103,-4.1097,-4.1106,-4.1109,-4.1109,-4.1109,-4.1109,-4.1109,-4.1109,-4.1109,-4.1095,-4.1092,-4.1092,-4.1067,-4.101,-4.1006,-4.0991,-4.0995,-4.1006,-4.0978,-4.0912,-4.0907,-4.0907,-4.0907,-4.0286,-3.9854,-3.9854,-3.8949,-3.8164,-3.7795,-3.6943,-3.6292,-3.599,-3.5207,-3.4771,-3.4771,-3.4658,-3.4612,-3.4612,-3.4612,-3.4612,-3.4612,-3.4612,-3.4612,-3.4583,-3.4316,-3.4074,-3.5914,-3.5992,-3.5992,-3.5992,-3.5992,-3.5778,-3.4901,-3.4705,0.0,0.0,-3.2207,-3.1875,-3.1153,-3.1662,-3.2408,-3.3007,-3.3842,-3.468,-3.5472,-3.7036,-3.8143,0.0,-3.9748,-4.0766,-4.077,-4.0749,0.0,0.0,-4.1616,-4.1559,-4.1495,-4.2802,-4.4015,-4.5029,-4.5067,-4.5057,-4.5057,-4.5179,-4.4672,-4.3609,-4.3038,-4.2302,-4.1368,-4.0704,-4.0408,-4.0408,-4.0408,0.0,-4.0449,-4.0449,-4.0596,-4.0809,-4.0797,-4.0922,-4.1104,-4.1108,-4.1109,-4.1109,-4.1109,-4.1109,-4.1109,-4.1109,-4.1108,-4.1106,-4.1108,-4.1108,-4.1106,-4.1108,-4.1109,-4.1109,-4.1109,-4.1109,-4.1109,-4.1109,-4.1109,-4.11,-4.1093,-4.1058,-4.1013,-4.0993,-4.0995,-4.0996,-4.0991,-4.1006,-4.0978,-4.0912,-4.0907,-4.0907,-4.0907,-4.0771,-4.0694,-4.0694,-3.9631,-3.8873,-3.8695,-3.7669,-3.6968,-3.6803,-3.6088,-3.5672,-3.5672,-3.4977,-3.4612,-3.4612,-3.4612,-3.4612,-3.4612,-3.4612,-3.4612,-3.4583,-3.4316,-3.4124,-3.5992,-3.5992,-3.5992,-3.5992,-3.5992,-3.5641,-3.4334,0.0,0.0,0.0,-3.1426,-3.1309,-3.0878,-3.1451,0.0,-3.2594,-3.3701,-3.4666,-3.5156,-3.7088,-3.8435,-3.8353,-3.9859,-4.091,-4.0906,-4.0866,-4.1207,-4.2041,-4.2466,-4.275,-4.2945,-4.4087,-4.4939,-4.539,-4.539,-4.5448,-4.5513,-4.5569,-4.5139,-4.424,-4.352,-4.2653,-4.1728,-4.0887,-4.0507,-4.0507,-4.0507,-4.0569,-4.066,-4.066,-4.0766,-4.0961,-4.0961,-4.1025,-4.1109,-4.1109,-4.1109,-4.1109,-4.1109,-4.1109,-4.1109,-4.1109,-4.1109,-4.1109,-4.1109,-4.1109,-4.1109,-4.1109,-4.1109,-4.1109,-4.1109,-4.1109,-4.1109,-4.1109,-4.1107,-4.1093,-4.1055,-4.1017,-4.1007,-4.1,-4.1007,-4.0995,-4.095,-4.0945,-4.0941,-4.0907,-4.0907,-4.0907,-4.0907,-4.0907,-4.0907,-4.0907,-4.0237,-3.9722,-3.9593,-3.8533,-3.7811,-3.7683,-3.6956,-3.6517,-3.6517,-3.6115,-3.5908,-3.5908,-3.5484,-3.5277,-3.5277,-3.4808,-3.4612,-3.4602,-3.4473,-3.4293,-3.5992,-3.5992,-3.5992,-3.5992,-3.5992,-3.5543,-3.3806,-3.3396,0.0,-3.1152,-3.08,-3.08,-3.08,-3.1322,-3.1818,0.0,-3.3218,-3.42,-3.4644,-3.6795,-3.8346,0.0,-3.997,0.0,-4.1014,-4.1146,0.0,-4.2529,-4.3471,-4.4178,-4.4604,-4.5173,-4.5509,-4.5563,-4.5571,-4.5621,-4.5715,-4.5743,-4.5428,-4.4731,-4.3934,-4.3084,-4.215,-4.1297,-4.0812,-4.0638,-4.0638,-4.0718,-4.0857,-4.0857,-4.0961,-4.1109,-4.1109,-4.1109,-4.1109,-4.1109,-4.1109,-4.1109,-4.1109,-4.1109,-4.1109,-4.1109,-4.1109,-4.1109,-4.1109,-4.1109,-4.1109,-4.1109,-4.1109,-4.1109,-4.1109,-4.1109,-4.1091,-4.1097,-4.1093,-4.1064,-4.1018,-4.1003,-4.1003,-4.101,-4.0982,-4.0954,-4.0912,-4.0907,-4.0907,-4.0907,-4.0907,-4.0907,-4.0907,-4.0907,-4.0878,-4.0849,-4.0538,-4.0307,-4.0213,-3.9302,-3.8689,-3.8594,-3.7812,-3.7373,-3.7373,-3.7185,-3.711,-3.711,-3.6479,-3.616,-3.616,-3.5296,-3.4958,-3.5138,-3.4781,-3.4544,-3.5992,-3.5992,-3.5992,-3.5992,-3.5992,-3.5543,-3.3806,0.0,-3.2908,-3.1152,-3.08,-3.08,-3.08,-3.0856,-3.1169,-3.1973,0.0,-3.2887,-3.4471,-3.6267,-3.7711,-3.8489,0.0,0.0,-4.1085,-4.1804,-4.2623,-4.3505,-4.503,-4.5862,-4.5673,-4.5725,-4.5777,-4.5777,-4.5777,-4.5783,-4.5796,-4.5903,-4.5925,-4.5847,-4.5094,-4.428,-4.3415,-4.2607,-4.18,-4.1037,-4.1037,-4.1057,0.0,-4.1062,-4.1085,-4.1109,-4.1109,-4.1109,-4.1109,-4.1109,-4.1109,-4.1109,-4.1109,-4.1109,-4.1109,-4.1109,-4.1109,-4.1109,-4.1109,-4.1109,-4.1109,-4.1109,-4.1109,-4.1109,-4.1109,-4.1109,-4.1097,-4.1092,-4.1058,-4.1005,-4.1,-4.1006,-4.101,-4.1006,-4.095,-4.0912,-4.0907,-4.0907,-4.0907,-4.0907,-4.0907,-4.0907,-4.0907,-4.0907,-4.0819,-4.0642,-4.0369,-4.0213,-4.0204,-3.9759,-3.9489,-3.9477,-3.8676,-3.8188,-3.8188,-3.7493,-3.711,-3.711,-3.7035,-3.6998,-3.6998,-3.6179,-3.616,-3.6828,-3.5307,-3.4785,-3.5856,-3.5992,-3.5992,-3.5992,-3.5602,-3.4901,-3.3689,0.0,-3.2265,-3.1054,-3.08,-3.08,-3.08,-3.08,-3.0917,0.0,0.0,0.0,-3.3046,-3.5096,-3.6833,-3.7711,-3.9292,0.0,0.0,0.0,-4.2982,-4.4387,-4.5586,-4.6206,-4.6102,-4.594,-4.5878,-4.5914,-4.5914,-4.5959,-4.6041,-4.6096,-4.6121,-4.6102,-4.5331,-4.4506,-4.3621,-4.2791,-4.2208,-4.1857,-4.1332,-4.1394,0.0,-4.1324,-4.1109,-4.1109,-4.1109,-4.142,-4.1888,-4.1888,-4.2201,-4.2593,-4.2064,-4.1888,-4.1791,-4.1265,-4.1109,-4.1109,-4.1109,-4.1109,-4.1109,-4.1109,-4.1109,-4.1109,-4.1109,-4.1101,-4.1092,-4.1091,-4.1056,-4.0994,-4.1002,-4.096,-4.0945,-4.0945,-4.0917,-4.0907,-4.0907,-4.0907,-4.0907,-4.0907,-4.0907,-4.0898,-4.0844,-4.0839,-4.0765,-4.0556,-4.0342,-4.0152,-4.0034,-3.9762,-3.9589,-3.9589,-3.927,-3.9082,-3.9082,-3.8763,-3.8594,-3.8594,-3.8075,-3.7812,-3.7812,-3.7005,-3.6791,-3.7091,-3.6415,-3.5822,-3.5387,-3.5797,-3.5992,-3.5992,-3.5349,-3.4471,0.0,0.0,-3.1856,-3.0976,-3.08,-3.08,-3.08,-3.08,-3.08,0.0,0.0,-3.1816,-3.2052,-3.3905,-3.5641,0.0,0.0,-3.9507,-4.06,-4.1967,-4.3509,-4.5246,-4.5948,-4.63,-4.63,-4.6112,-4.6037,-4.6092,-4.6092,-4.6134,-4.6228,-4.6228,-4.6238,-4.6219,-4.5395,-4.4543,-4.3666,-4.2806,-4.2396,-4.2376,-4.1752,-4.1986,0.0,-4.2123,-4.187,-4.187,-4.187,-4.224,-4.2786,-4.2786,-4.3177,-4.3606,-4.3001,-4.2786,-4.2689,-4.2066,-4.1695,-4.1479,-4.1479,-4.1304,-4.1109,-4.1109,-4.1109,-4.1109,-4.1109,-4.111,-4.1091,-4.1101,-4.1059,-4.1006,-4.1003,-4.0958,-4.0941,-4.0941,-4.0912,-4.0907,-4.0907,-4.0907,-4.0907,-4.0907,-4.0874,-4.0854,-4.0812,-4.0771,-4.0668,-4.0404,-4.0241,-4.01,-3.9922,-3.9712,-3.9589,-3.9589,-3.9589,-3.9589,-3.9589,-3.9589,-3.9589,-3.9589,-3.9007,-3.8676,-3.8676,-3.785,-3.7598,-3.7824,-3.6991,-3.592,-3.4489,-3.5349,-3.5992,-3.5992,-3.5349,-3.4471,0.0,0.0,-3.1856,-3.0976,-3.08,-3.08,-3.08,-3.08,-3.08,-3.08,0.0,0.0,-3.1973,-3.2871,-3.4079,0.0,0.0,-3.7985,-3.9644,-4.2162,-4.4406,-4.6163,-4.628,0.0,-4.63,-4.63,-4.63,-4.63,-4.63,-4.63,-4.63,-4.63,-4.63,-4.628,-4.5421,-4.4543,-4.3666,-4.2806,-4.2396,-4.2396,-4.2396,-4.2884,0.0,-4.3686,-4.3666,-4.3666,-4.3666,-4.3686,-4.3686,-4.3686,-4.3686,-4.3705,-4.3686,-4.3686,-4.3686,-4.3686,-4.3099,-4.2396,-4.2396,-4.1771,-4.1109,-4.1109,-4.1109,-4.1109,-4.1109,-4.1093,-4.1099,-4.1099,-4.1044,-4.0996,-4.0996,-4.0999,-4.1006,-4.1006,-4.0945,-4.0907,-4.0907,-4.0907,-4.0907,-4.0907,-4.0844,-4.0807,-4.0807,-4.0736,-4.0549,-4.0146,-4.0109,-4.0043,-3.9912,-3.9712,-3.9589,-3.9589,-3.9589,-3.9589,-3.9589,-3.9589,-3.9589,-3.9589,-3.9589,-3.9589,-3.957,-3.8713,-3.8732,-3.9514,-3.6715,-3.4591,-3.269,-3.3551,-3.4216,-3.4216,-3.3573,-3.2851,-3.2578,-3.1836,-3.1133,-3.0859,-3.08,-3.08,-3.08,-3.08,-3.08,-3.08,-3.08,0.0,0.0,0.0,0.0,-3.6677,-3.8668,-4.0561,0.0,0.0,-4.4426,-4.6163,-4.63,-4.63,-4.63,-4.63,-4.63,-4.63,-4.63,-4.63,-4.63,-4.63,-4.6007,-4.5402,-4.5129,-4.4231,-4.2806,-4.2533,-4.2728,-4.3255,-4.2669,-4.3235,-4.4543,-4.3957,-4.3705,-4.3705,-4.3705,-4.4055,-4.4582,-4.4582,-4.4972,-4.5382,-4.4797,-4.4582,-4.4484,-4.3899,-4.3509,-4.3177,-4.2572,-4.1791,-4.1109,-4.1109,-4.1109,-4.1093,-4.1104,-4.1093,-4.1095,-4.1037,-4.1022,-4.0996,-4.0996,-4.1011,-4.1007,-4.1007,-4.0991,-4.0974,-4.0974,-4.0941,-4.0907,-4.0907,-4.0844,-4.0776,-4.073,-4.0668,-4.0469,-4.0063,-4.0024,-3.9951,-3.9712,-3.9631,-3.9589,-3.9589,-3.9589,-3.9589,-3.9589,-3.9589,-3.9589,-3.9589,-3.9589,-3.9589,-3.9589,-3.9326,-3.894,-3.8387,-3.616,-3.4629,0.0,-3.2008,-3.291,-3.291,-3.25,0.0,0.0,0.0,-3.08,-3.08,-3.08,-3.08,-3.08,-3.08,-3.08,-3.08,-3.08,-3.1094,0.0,0.0,0.0,-3.7048,0.0,0.0,0.0,-4.3509,-4.4426,-4.6163,-4.63,-4.63,-4.63,-4.63,-4.63,-4.63,-4.63,-4.63,-4.63,-4.5968,-4.5539,-4.499,-4.4327,-4.345,-4.2396,-4.2064,-4.2396,-4.3196,-4.2982,-4.3684,0.0,-4.4777,-4.468,-4.468,-4.468,-4.5012,-4.55,-4.55,-4.5831,-4.6222,-4.5675,-4.55,-4.5402,-4.4855,-4.4465,-4.3977,-4.2767,-4.1791,-4.1109,-4.1109,-4.1095,-4.1102,-4.1091,-4.1091,-4.1087,-4.1048,-4.1045,-4.1038,-4.1038,-4.1011,-4.1007,-4.1007,-4.0992,-4.0995,-4.1006,-4.0974,-4.0912,-4.0864,-4.0812,-4.073,-4.0668,-4.0595,-4.0419,-4.0033,-3.9993,-3.9897,-3.9626,-3.9589,-3.9589,-3.9589,-3.9589,-3.9589,-3.9589,-3.9589,-3.9589,-3.9589,-3.9589,-3.9589,-3.9589,-3.947,-3.8673,-3.7234,-3.5895,-3.4736,0.0,0.0,0.0,0.0,0.0,0.0,0.0,0.0,0.0,-3.08,-3.08,-3.08,-3.08,-3.08,-3.08,-3.08,-3.0859,-3.1211,0.0,-3.3183,0.0,0.0,-3.8902,0.0,-4.224,-4.3196,-4.4426,-4.6163,-4.63,-4.63,-4.63,-4.63,-4.63,-4.63,-4.6241,-4.6202,-4.6202,-4.5402,-4.4932,-4.4795,-4.3177,-4.2376,-4.2279,-4.1479,-4.1576,0.0,-4.3313,-4.4192,-4.5068,-4.5948,-4.63,-4.63,-4.63,-4.63,-4.63,-4.63,-4.63,-4.63,-4.63,-4.63,-4.63,-4.63,-4.5714,-4.4697,-4.3079,-4.1927,-4.1187,-4.1129,-4.1103,-4.1092,-4.1092,-4.1107,-4.1094,-4.109,-4.11,-4.1107,-4.1107,-4.1059,-4.1009,-4.1009,-4.0991,-4.0992,-4.0995,-4.101,-4.0965,-4.0823,-4.0742,-4.0694,-4.0698,-4.0619,-4.0468,-4.0214,-4.0117,-3.9992,-3.9708,-3.9627,-3.9589,-3.9589,-3.9589,-3.9589,-3.9589,-3.9589,-3.9589,-3.9589,-3.9589,-3.9589,-3.9589,-3.9195,-3.8067,-3.6272,-3.5876,-3.4924,0.0,0.0,0.0,0.0,0.0,0.0,0.0,0.0,0.0,0.0,0.0,0.0,0.0,-3.08,-3.08,-3.08,-3.1368,-3.2324,-3.3866,-3.6521,0.0,-3.9136,-4.0151,-4.1225,-4.2298,-4.3196,-4.4426,-4.6163,-4.63,-4.63,-4.63,-4.63,-4.63,-4.63,-4.5656,-4.5304,-4.5304,-4.5107,-4.4327,-4.3001,-4.2591,-4.2045,-4.1402,-4.1187,-4.1576,-4.2454,-4.3313,-4.4192,-4.5068,-4.5948,-4.63,-4.63,-4.63,-4.63,-4.63,-4.63,-4.63,-4.63,-4.63,-4.63,-4.63,-4.63,-4.5714,-4.4912,-4.4502,-4.3313,-4.1967,-4.1285,-4.1103,-4.1093,-4.1092,-4.1098,-4.1107,-4.1095,-4.1097,-4.1107,-4.1107,-4.1088,-4.1085,-4.1085,-4.1032,-4.0999,-4.0995,-4.1,-4.0967,-4.0888,-4.0829,-4.0965,-4.1521,-4.1536,-4.1583,-4.1797,-4.1333,-4.0843,-4.0477,-3.9927,-3.9589,-3.9589,-3.9589,-3.9589,-3.9589,-3.9589,-3.9589,-3.9589,-3.9589,-3.9589,-3.9589,-3.8598,-3.7776,-3.7103,-3.6154,-3.5248,0.0,0.0,0.0,0.0,0.0,0.0,0.0,0.0,0.0,0.0,0.0,0.0,0.0,0.0,0.0,-3.1932,-3.2383,0.0,0.0,0.0,-3.939,-3.9761,-4.0229,-4.1166,0.0,-4.3411,-4.4426,-4.6163,-4.63,-4.63,-4.63,-4.63,-4.6124,-4.5714,-4.5246,-4.499,-4.499,-4.421,-4.3333,-4.2396,-4.1986,-4.1557,-4.1109,-4.1109,-4.1363,-4.1849,-4.2728,-4.3606,-4.4465,-4.5343,-4.5948,-4.63,-4.63,-4.63,-4.63,-4.63,-4.63,-4.63,-4.63,-4.63,-4.63,-4.63,-4.5987,-4.5519,-4.5129,-4.4055,-4.2806,-4.1947,-4.1401,-4.1093,-4.1109,-4.1106,-4.11,-4.1097,-4.1107,-4.1107,-4.1107,-4.1107,-4.1107,-4.1107,-4.1062,-4.1029,-4.0953,-4.0956,-4.1043,-4.1323,-4.0984,-4.099,-4.1751,-4.182,-4.1805,-4.1852,-4.1491,-4.1082,-4.068,-3.9989,-3.9571,-3.9608,-3.9589,-3.9589,-3.9589,-3.9589,-3.9589,-3.9589,-3.9589,-3.9508,-3.9362,-3.8563,-3.779,-3.701,-3.6241,-3.5599,0.0,0.0,0.0,0.0,0.0,0.0,0.0,0.0,0.0,0.0,0.0,0.0,0.0,-3.2207,0.0,0.0,0.0,0.0,-3.6344,-3.7965,-3.9196,-3.9722,-3.9917,0.0,-4.31,-4.3411,-4.4172,-4.5773,-4.6027,-4.6105,-4.6105,-4.6105,-4.5753,-4.501,-4.4737,-4.46,-4.46,-4.3138,-4.2337,-4.2181,-4.1439,-4.1109,-4.1109,-4.1109,-4.1109,-4.1168,0.0,0.0,-4.3782,-4.4777,-4.5636,-4.63,-4.63,-4.63,-4.63,-4.63,-4.63,-4.63,-4.63,-4.63,-4.63,-4.63,-4.63,-4.6163,-4.5421,-4.4582,-4.3725,-4.285,-4.1873,-4.1107,-4.1104,-4.1109,-4.1107,-4.1107,-4.1107,-4.1107,-4.1107,-4.1107,-4.1107,-4.1107,-4.1107,-4.1068,-4.093,-4.1009,-4.128,-4.1819,-4.127,-4.1087,-4.1881,-4.2,-4.19,-4.1613,-4.1583,-4.1438,-4.1028,-4.0199,-3.9733,-3.9777,-3.9664,-3.9589,-3.9589,-3.9589,-3.9589,-3.9589,-3.9589,-3.9432,-3.9101,-3.8763,-3.7995,-3.6835,-3.6452,-3.6081,-2.8565,-2.9602,-3.0255,-3.0464,-3.0652,0.0,0.0,0.0,0.0,0.0,0.0,0.0,0.0,-3.2695,-3.324,0.0,0.0,-3.7282,0.0,0.0,-4.0485,-3.9878,0.0,-4.107,-4.1461,-4.2162,-4.3021,-4.4016,-4.4777,-4.5207,-4.5207,-4.5207,-4.5148,-4.499,-4.3567,-4.2806,-4.2806,-4.2533,-4.2025,-4.1304,-4.1168,-4.1109,-4.1109,-4.1109,-4.1109,-4.1187,0.0,-4.3587,-4.3822,-4.5441,-4.6183,-4.63,-4.63,-4.63,-4.63,-4.63,-4.63,-4.63,-4.63,-4.63,-4.63,-4.63,-4.63,-4.628,-4.6144,-4.55,-4.4624,-4.3743,-4.2344,-4.1104,-4.1106,-4.1111,-4.1107,-4.1107,-4.1107,-4.1107,-4.1107,-4.1107,-4.1107,-4.1107,-4.1107,-4.1052,-4.0913,-4.1518,-4.1985,-4.1918,-4.1788,-4.1984,-4.2794,-4.2893,-4.3013,-4.3285,-4.3376,-4.3239,-4.2837,-4.1458,-4.0597,-4.0609,-3.9984,-3.9589,-3.9589,-3.9589,-3.9589,-3.9589,-3.9589,-3.9432,-3.9101,-3.8763,-3.8353,-3.787,-3.7344,-3.6986,-2.8928,-2.9829,-3.0661,-3.1177,0.0,-3.2274,-3.2695,0.0,0.0,0.0,0.0,0.0,0.0,0.0,-3.4413,-3.5349,0.0,-3.8279,-3.9039,-3.9878,-4.0249,0.0,0.0,-4.0776,-4.1713,-4.2162,-4.2767,-4.3626,-4.4075,-4.4309,-4.4309,-4.4309,-4.4075,-4.3606,-4.2825,-4.2162,-4.1693,-4.1693,-4.1498,-4.1109,-4.1109,-4.1109,-4.1109,-4.1109,-4.1109,-4.1168,0.0,-4.3255,-4.3803,-4.507,-4.587,-4.63,-4.63,-4.63,-4.63,-4.63,-4.63,-4.63,-4.63,-4.63,-4.63,-4.63,-4.63,-4.63,-4.63,-4.5668,-4.4859,-4.4453,-4.3121,-4.169,-4.1218,-4.1106,-4.1107,-4.1107,-4.1107,-4.1107,-4.1107,-4.1107,-4.1107,-4.1107,-4.1107,-4.1201,-4.1505,-4.1888,-4.2385,-4.3088,-4.2819,-4.2842,-4.3632,-4.3739,-4.3741,-4.3703,-4.3734,-4.3564,-4.3133,-4.2055,-4.104,-4.0196,-3.9796,-3.9589,-3.9589,-3.9589,-3.9589,-3.9589,-3.9589,-3.9349,-3.8822,-3.8688,-3.8231,-3.7486,-3.726,-3.695,-2.9357,-3.009,-3.1012,0.0,0.0,-3.3117,-3.3572,-3.3671,0.0,0.0,0.0,0.0,0.0,-3.5037,0.0,-3.734,-3.8318,-3.8942,-3.9157,-3.9722,-4.0093,-4.0093,-4.0093,-4.0639,-4.1967,-4.2103,-4.2376,-4.3042,-4.3274,-4.3391,-4.3391,-4.3391,-4.3099,-4.2415,-4.2201,-4.1771,-4.1109,-4.1109,-4.1109,-4.1109,-4.1109,-4.1109,-4.1109,-4.1109,-4.1207,-4.1439,-4.2337,-4.3196,-4.4075,-4.4953,-4.5695,-4.63,-4.63,-4.63,-4.63,-4.63,-4.63,-4.63,-4.63,-4.63,-4.63,-4.63,-4.63,-4.63,-4.63,-4.5793,-4.5156,-4.4952,-4.3989,-4.2734,-4.1651,-4.1231,-4.1107,-4.1107,-4.1107,-4.1107,-4.1107,-4.1107,-4.1107,-4.1107,-4.1234,-4.1525,-4.2003,-4.2404,-4.3047,-4.4155,-4.3794,-4.3621,-4.422,-4.4271,-4.4106,-4.3753,-4.3847,-4.3718,-4.3114,-4.2548,-4.1646,-4.0253,-3.9984,-3.9796,-3.9608,-3.9589,-3.9589,-3.9589,-3.9589,-3.9264,-3.8594,-3.8594,-3.8064,-3.7066,-3.7027,-3.6771,-3.0096,-3.0994,-3.1938,-3.2866,-3.2585,0.0,-3.4134,-3.4516,0.0,-3.4597,0.0,0.0,0.0,-3.6013,-3.7419,-3.8357,-3.9195,-3.9995,-4.0816,0.0,-4.1012,-4.1012,-4.1012,-4.1051,-4.1187,-4.1187,-4.1226,-4.1285,-4.2045,-4.2494,-4.2494,-4.2494,-4.2454,-4.2396,-4.1615,-4.1168,-4.1109,-4.1109,-4.1109,-4.1109,-4.1109,-4.1109,-4.1109,-4.1109,-4.1537,-4.2357,-4.3235,-4.4094,-4.4972,-4.5851,-4.6241,-4.63,-4.63,-4.63,-4.63,-4.63,-4.63,-4.63,-4.63,-4.63,-4.63,-4.63,-4.63,-4.63,-4.63,-4.6203,-4.5937,-4.5128,-4.4807,-4.4334,-4.2656,-4.1662,-4.1107,-4.1107,-4.1107,-4.1107,-4.1107,-4.1107,-4.1107,-4.1107,-4.1646,-4.2131,-4.2096,-4.333,-4.4334,-4.438,-4.4344,-4.4309,-4.4306,-4.4201,-4.4037,-4.3828,-4.4357,-4.4322,-4.3364,-4.3238,-4.2825,-4.1892,-4.1135,-4.0384,-3.9627,-3.9589,-3.9589,-3.9589,-3.9589,-3.9264,-3.8594,-3.8594,-3.8148,-3.7278,-3.7085,-3.6869,-3.0308,-3.1099,-3.2018,-3.2908,-3.3358,0.0,0.0,-3.5401,-3.5429,-3.5447,-3.5731,0.0,0.0,0.0,-3.8376,-3.9214,-3.9605,-4.0093,-4.0973,-4.1109,-4.1109,-4.1109,-4.1109,-4.1109,-4.1109,-4.1109,-4.1109,-4.1109,-4.1402,-4.1596,-4.1596,-4.1596,-4.1596,-4.1596,-4.1265,-4.1109,-4.1109,-4.1109,-4.1109,-4.1109,-4.1109,-4.1109,-4.1129,-4.1654,-4.2084,-4.2474,-4.3899,-4.4699,-4.5068,-4.5948,-4.63,-4.63,-4.63,-4.63,-4.63,-4.63,-4.63,-4.63,-4.63,-4.63,-4.63,-4.63,-4.63,-4.63,-4.63,-4.6242,-4.6132,-4.5806,-4.5326,-4.4614,-4.3413,-4.2475,-4.185,-4.185,-4.1451,-4.1244,-4.1731,-4.185,-4.1984,-4.249,-4.2814,-4.314,-4.3579,-4.415,-4.471,-4.514,-4.5216,-4.5192,-4.5175,-4.4978,-4.4801,-4.4619,-4.4607,-4.4465,-4.4083,-4.4064,-4.3688,-4.2862,-4.2018,-4.1191,-4.0384,-4.0347,-4.0115,-3.9608,-3.9589,-3.9264,-3.8594,-3.8594,-3.8099,-3.7105,-3.7046,-3.6791,-3.0808,-3.1491,-3.2381,0.0,0.0,0.0,-3.5651,-3.5874,-3.5913,-3.5936,-3.6189,-3.6666,-3.7529,0.0,0.0,0.0,-4.0034,-4.0424,-4.1012,-4.1109,-4.1109,-4.1109,-4.1109,-4.1109,-4.1109,-4.1109,-4.1109,-4.1109,-4.1109,-4.1109,-4.1109,-4.1109,-4.1109,-4.1109,-4.1109,-4.1109,-4.1109,-4.1109,-4.1109,-4.1109,-4.1109,-4.1109,-4.1129,-4.2006,-4.2552,-4.2884,-4.4367,-4.5168,-4.546,-4.6046,-4.63,-4.63,-4.63,-4.63,-4.63,-4.63,-4.63,-4.63,-4.63,-4.63,-4.63,-4.63,-4.63,-4.63,-4.63,-4.6242,-4.6191,-4.6192,-4.5767,-4.5131,-4.4513,-4.3545,-4.2712,-4.2712,-4.2282,-4.2042,-4.2588,-4.2692,-4.2836,-4.338,-4.369,-4.4003,-4.4505,-4.4808,-4.5135,-4.5627,-4.5711,-4.5714,-4.5701,-4.5429,-4.5156,-4.4931,-4.4672,-4.4501,-4.4501,-4.4501,-4.4271,-4.3707,-4.3112,-4.2305,-4.1229,-4.0929,-4.0534,-3.9984,-3.9633,-3.917,-3.8594,-3.8439,-3.7877,-3.7007,-3.6928,-3.669,-3.1698,-3.2324,0.0,0.0,0.0,0.0,-3.5601,-3.5846,-3.5927,-3.6006,-3.6719,-3.7577,-3.8379,-3.9212,0.0,-3.9819,-4.0542,-4.1109,-4.1109,-4.1109,-4.1109,-4.1109,-4.1109,-4.1109,-4.1109,-4.1109,-4.1109,-4.1109,-4.1109,-4.1109,-4.1109,-4.1109,-4.1109,-4.1109,-4.1109,-4.1109,-4.1109,-4.1109,-4.1109,-4.1109,-4.1109,-4.1109,-4.1148,-4.2006,-4.2884,-4.3762,-4.4621,-4.55,-4.63,-4.63,-4.63,-4.63,-4.63,-4.63,-4.63,-4.63,-4.63,-4.63,-4.63,-4.63,-4.63,-4.63,-4.63,-4.63,-4.63,-4.6242,-4.6191,-4.6194,-4.615,-4.6084,-4.6013,-4.4826,-4.3627,-4.3607,-4.3607,-4.3601,-4.3601,-4.3569,-4.3517,-4.3517,-4.4115,-4.4608,-4.4608,-4.5271,-4.5773,-4.5715,-4.5758,-4.5777,-4.5709,-4.5342,-4.4946,-4.4537,-4.4501,-4.4501,-4.4501,-4.4501,-4.4501,-4.4501,-4.4501,-4.375,-4.2079,-4.1248,-4.0816,-4.0797,-3.9679,-3.8942,-3.8594,-3.8064,-3.7541,-3.7007,-3.6786,-3.6561,-3.0788,-3.1896,0.0,-3.3421,0.0,0.0,0.0,-3.5894,0.0,0.0,-3.7996,-3.9074,-3.9355,-4.0136,0.0,-4.0702,-4.0934,-4.1109,-4.1109,-4.1109,-4.1109,-4.1109,-4.1109,-4.1109,-4.1109,-4.1109,-4.1109,-4.1109,-4.1109,-4.1109,-4.1109,-4.1109,-4.1109,-4.1109,-4.1109,-4.1109,-4.1109,-4.1109,-4.1109,-4.1109,-4.1109,-4.142,-4.2045,-4.2923,-4.3782,-4.466,-4.5539,-4.6066,-4.63,-4.63,-4.63,-4.63,-4.63,-4.63,-4.63,-4.63,-4.63,-4.63,-4.63,-4.63,-4.63,-4.63,-4.63,-4.63,-4.63,-4.6288,-4.6261,-4.6211,-4.6194,-4.6153,-4.6087,-4.5725,-4.5207,-4.4584,-4.4008,-4.3769,-4.4328,-4.4383,-4.4511,-4.5071,-4.5325,-4.5434,-4.5434,-4.5645,-4.5786,-4.5771,-4.5795,-4.5676,-4.5313,-4.5057,-4.4777,-4.4542,-4.4501,-4.4501,-4.4501,-4.4501,-4.4501,-4.4501,-4.4501,-4.4013,-4.2956,-4.2693,-4.1999,-4.0816,-4.0476,-3.9728,-3.8594,-3.8293,-3.7755,-3.7007,-3.6786,-3.6561,-3.1737,0.0,0.0,-3.4007,-3.4951,-3.5815,-3.5885,0.0,0.0,0.0,-3.876,-3.9827,-4.0219,-4.0716,0.0,-4.1092,-4.1108,-4.1104,-4.1104,-4.1097,-4.1109,-4.1109,-4.1109,-4.1109,-4.1109,-4.1109,-4.1109,-4.1109,-4.1109,-4.1109,-4.1109,-4.1109,-4.1109,-4.1109,-4.1109,-4.1109,-4.1109,-4.1109,-4.1109,-4.1109,-4.1109,-4.1557,-4.2435,-4.3294,-4.4172,-4.5049,-4.5929,-4.63,-4.63,-4.63,-4.63,-4.63,-4.63,-4.63,-4.63,-4.63,-4.63,-4.63,-4.63,-4.63,-4.63,-4.63,-4.63,-4.63,-4.63,-4.627,-4.6244,-4.6209,-4.6189,-4.6145,-4.6072,-4.6083,-4.5981,-4.5436,-4.4947,-4.4721,-4.5207,-4.5245,-4.5312,-4.5801,-4.5854,-4.58,-4.5805,-4.5793,-4.58,-4.5805,-4.5731,-4.5547,-4.5191,-4.4929,-4.4706,-4.451,-4.4501,-4.4501,-4.4501,-4.4501,-4.4501,-4.4501,-4.4501,-4.4275,-4.3801,-4.3463,-4.2825,-4.1811,-4.0886,-3.9977,-3.9071,-3.8209,-3.7505,-3.6987,-3.6687,-3.6444,-3.3571,0.0,0.0,-3.5317,-3.565,0.0,-3.5882,-3.6622,-3.7527,-3.8252,0.0,-4.0056,-4.0842,-4.1007,-4.103,-4.1097,-4.1091,-4.1094,-4.1094,-4.1105,-4.1109,-4.1109,-4.1109,-4.1109,-4.1109,-4.1109,-4.1109,-4.1109,-4.1109,-4.1109,-4.1109,-4.1109,-4.1109,-4.1109,-4.1109,-4.1109,-4.1109,-4.1109,-4.1109,-4.1109,-4.1109,-4.1557,-4.2435,-4.3294,-4.4211,-4.5168,-4.5968,-4.63,-4.63,-4.63,-4.63,-4.63,-4.63,-4.63,-4.63,-4.63,-4.63,-4.63,-4.63,-4.63,-4.63,-4.63,-4.63,-4.63,-4.63,-4.6242,-4.6191,-4.6196,-4.6153,-4.6084,-4.6022,-4.6047,-4.6093,-4.6089,-4.6093,-4.6093,-4.6084,-4.5986,-4.5905,-4.588,-4.5828,-4.5793,-4.5795,-4.5805,-4.5793,-4.5795,-4.5618,-4.541,-4.5222,-4.4941,-4.4712,-4.4528,-4.4501,-4.4501,-4.4501,-4.4501,-4.4501,-4.4501,-4.4501,-4.4501,-4.4501,-4.3801,-4.3356,-4.3253,-4.1201,-3.9997,-3.9756,-3.8043,-3.7138,-3.6987,-3.6509,-3.6301,0.0,-3.3261,0.0,0.0,-3.526,-3.5885,-3.5897,-3.705,-3.8194,-3.8365,-3.9595,-4.0719,-4.0967,-4.0995,-4.1013,-4.1094,-4.1091,-4.1094,-4.1094,-4.1105,-4.1109,-4.1109,-4.1109,-4.1109,-4.1109,-4.1109,-4.1109,-4.1109,-4.1109,-4.1109,-4.1109,-4.1109,-4.1109,-4.1109,-4.1109,-4.1109,-4.1109,-4.1109,-4.1109,-4.1109,-4.1109,-4.1557,-4.2435,-4.3294,-4.4543,-4.6027,-4.6222,-4.63,-4.63,-4.63,-4.63,-4.63,-4.63,-4.63,-4.63,-4.63,-4.63,-4.63,-4.63,-4.63,-4.63,-4.63,-4.63,-4.63,-4.63,-4.6242,-4.6191,-4.619,-4.616,-4.6095,-4.608,-4.6095,-4.6089,-4.6027,-4.6071,-4.6075,-4.5969,-4.5929,-4.5873,-4.5841,-4.5814,-4.58,-4.5793,-4.58,-4.58,-4.5793,-4.5491,-4.5243,-4.5211,-4.482,-4.4556,-4.4496,-4.4501,-4.4501,-4.4501,-4.4501,-4.4501,-4.4501,-4.4501,-4.4501,-4.4501,-4.4332,-4.3802,-4.2847,-4.2646,-4.1516,-3.9417,-3.8956,-3.8131,-3.6987,-3.6509,-3.6301,0.0,0.0,0.0,-3.48,0.0,-3.5807,-3.5846,-3.6844,-3.7895,-3.8303,-3.9734,-4.0915,-4.099,-4.0979,-4.0963,-4.1042,-4.1055,-4.1056,-4.1048,-4.1074,-4.1103,-4.1091,-4.1109,-4.1109,-4.1109,-4.1109,-4.1109,-4.1109,-4.1109,-4.1109,-4.1109,-4.1109,-4.1109,-4.1109,-4.1109,-4.1109,-4.1109,-4.1109,-4.1109,-4.1109,-4.1109,-4.1557,-4.2435,-4.3723,-4.4816,-4.5695,-4.6124,-4.63,-4.63,-4.63,-4.63,-4.63,-4.63,-4.63,-4.63,-4.63,-4.63,-4.63,-4.63,-4.63,-4.63,-4.63,-4.63,-4.6284,-4.6258,-4.623,-4.6183,-4.615,-4.6092,-4.6059,-4.6046,-4.6051,-4.6047,-4.5972,-4.5991,-4.6022,-4.591,-4.5867,-4.5828,-4.5814,-4.5807,-4.5807,-4.5807,-4.5807,-4.5807,-4.5807,-4.5454,-4.5201,-4.5201,-4.4783,-4.4501,-4.4501,-4.4501,-4.4501,-4.4501,-4.4501,-4.4501,-4.4501,-4.4501,-4.4496,-4.4556,-4.4556,-4.4247,-4.3561,-4.3245,-4.2065,-3.9977,-3.9282,-3.8237,-3.6846,-3.6468,-3.6301,0.0,0.0,-3.3627,-3.527,-3.5683,0.0,-3.576,-3.644,-3.7271,-3.7984,-3.9507,-4.077,-4.0964,-4.0939,-4.0945,-4.0984,-4.1009,-4.0995,-4.0996,-4.1068,-4.1093,-4.1099,-4.1093,-4.1109,-4.1109,-4.1109,-4.1109,-4.1109,-4.1109,-4.1109,-4.1109,-4.1109,-4.1109,-4.1109,-4.1109,-4.1109,-4.1109,-4.1109,-4.1109,-4.1109,-4.1109,-4.1479,-4.224,-4.3821,-4.4717,-4.5049,-4.5929,-4.63,-4.63,-4.63,-4.63,-4.63,-4.63,-4.63,-4.63,-4.63,-4.63,-4.63,-4.63,-4.63,-4.63,-4.63,-4.63,-4.6287,-4.6229,-4.6205,-4.6195,-4.6115,-4.6031,-4.598,-4.5978,-4.5989,-4.5964,-4.5899,-4.5949,-4.5969,-4.5905,-4.5848,-4.5807,-4.5807,-4.5807,-4.5807,-4.5807,-4.5807,-4.5807,-4.5807,-4.5454,-4.5201,-4.5201,-4.4783,-4.4501,-4.4501,-4.4501,-4.4501,-4.4501,-4.4501,-4.4501,-4.4501,-4.4501,-4.451,-4.4578,-4.4605,-4.4578,-4.4528,-4.3614,-4.2319,-4.0625,-3.9518,-3.8189,-3.6702,-3.6423,-3.6301,0.0,0.0,-3.4369,0.0,-3.5651,-3.5698,0.0,0.0,-3.6953,0.0,-3.8573,-4.0079,-4.085,-4.0987,-4.0982,-4.101,-4.0993,-4.0992,-4.1006,-4.1059,-4.1094,-4.1093,-4.1103,-4.1109,-4.1109,-4.1109,-4.1109,-4.1109,-4.1109,-4.1109,-4.1109,-4.1109,-4.1109,-4.1109,-4.1109,-4.1109,-4.1109,-4.1109,-4.1109,-4.1109,-4.1109,-4.1168,-4.1304,-4.2298,-4.3567,-4.5049,-4.5929,-4.63,-4.63,-4.63,-4.63,-4.63,-4.63,-4.63,-4.63,-4.63,-4.63,-4.63,-4.63,-4.63,-4.63,-4.63,-4.63,-4.6287,-4.6229,-4.6205,-4.6193,-4.6121,-4.6013,-4.5904,-4.5917,-4.5917,-4.5911,-4.5906,-4.5912,-4.5886,-4.5834,-4.5814,-4.5807,-4.5807,-4.5807,-4.5807,-4.5807,-4.5807,-4.5807,-4.5807,-4.5454,-4.5201,-4.5201,-4.4783,-4.4501,-4.4501,-4.4501,-4.4501,-4.4501,-4.4501,-4.4501,-4.4501,-4.4501,-4.4496,-4.4515,-4.4619,-4.4659,-4.4578,-4.4327,-4.2925,-4.0347,-4.0113,-3.8858,-3.6702,-3.6423,-3.6301,-3.2122,-3.3282,-3.4443,0.0,-3.5579,-3.5596,-3.5646,0.0,-3.6314,-3.6792,-3.7584,-3.8602,-3.9954,-4.0222,-4.0386,-4.0918,-4.1002,-4.1003,-4.1003,-4.1029,-4.1035,-4.1046,-4.1033,-4.1055,-4.1109,-4.1108,-4.1104,-4.1091,-4.1109,-4.1109,-4.1109,-4.1109,-4.1109,-4.1109,-4.1109,-4.1109,-4.1109,-4.1109,-4.1109,-4.1109,-4.1109,-4.1109,-4.1129,-4.2006,-4.3079,-4.4328,-4.5187,-4.5851,-4.63,-4.63,-4.63,-4.63,-4.63,-4.63,-4.63,-4.63,-4.63,-4.63,-4.63,-4.63,-4.6284,-4.6261,-4.6245,-4.6229,-4.6122,-4.6081,-4.6075,-4.5968,-4.5923,-4.5899,-4.5861,-4.5867,-4.5893,-4.586,-4.5841,-4.5841,-4.5814,-4.5807,-4.5807,-4.5807,-4.5807,-4.5807,-4.5807,-4.5807,-4.5759,-4.5642,-4.5472,-4.5274,-4.5019,-4.4801,-4.4616,-4.4496,-4.4501,-4.4501,-4.4501,-4.4501,-4.4501,-4.4501,-4.4501,-4.4524,-4.4605,-4.4632,-4.4685,-4.4776,-4.4646,-4.32,-4.0399,-4.0347,-3.9006,-3.6464,-3.6343,-3.6301,0.0,0.0,-3.409,-3.4956,-3.5341,-3.5502,0.0,0.0,-3.5749,0.0,-3.6607,-3.7108,-3.8666,-3.9117,-3.9504,-4.0206,-4.0318,-4.0311,-4.0341,-4.034,-4.0423,-4.067,-4.0705,-4.0795,-4.1074,-4.1093,-4.1108,-4.1091,-4.1109,-4.1109,-4.1109,-4.1109,-4.1109,-4.1109,-4.1109,-4.1109,-4.1109,-4.1109,-4.1109,-4.1109,-4.1109,-4.1109,-4.1129,-4.1771,-4.2552,-4.3411,-4.4289,-4.5168,-4.5968,-4.5968,-4.6105,-4.63,-4.63,-4.63,-4.63,-4.63,-4.63,-4.63,-4.63,-4.6287,-4.6277,-4.623,-4.6171,-4.6121,-4.6033,-4.5996,-4.5959,-4.5822,-4.5847,-4.586,-4.5814,-4.584,-4.5866,-4.5807,-4.5807,-4.5807,-4.5807,-4.5807,-4.5807,-4.5807,-4.5807,-4.5807,-4.5807,-4.5807,-4.5745,-4.5602,-4.5524,-4.5371,-4.4954,-4.4837,-4.4726,-4.451,-4.4501,-4.4515,-4.451,-4.4515,-4.4515,-4.451,-4.4515,-4.4537,-4.4646,-4.4619,-4.4559,-4.4518,-4.4391,-4.3065,-4.0517,-4.0146,-3.8699,-3.6301,-3.6301,-3.6301,0.0,-3.2397,0.0,-3.4071,0.0,0.0,0.0,0.0,-3.5541,-3.5655,-3.5662,-3.5968,-3.6947,-3.7817,-3.8384,-3.8438,-3.8438,-3.8466,-3.8527,-3.8542,-3.8867,-3.9767,-3.9858,-4.0194,-4.1014,-4.1102,-4.1091,-4.1109,-4.1109,-4.1109,-4.1109,-4.1109,-4.1109,-4.1109,-4.1109,-4.1109,-4.1109,-4.1109,-4.1109,-4.1109,-4.1109,-4.1109,-4.1109,-4.1148,-4.1635,-4.2513,-4.3391,-4.425,-4.5068,-4.5068,-4.5558,-4.63,-4.63,-4.63,-4.63,-4.63,-4.63,-4.63,-4.63,-4.6259,-4.6191,-4.6191,-4.6101,-4.6006,-4.6006,-4.5963,-4.5896,-4.5815,-4.5807,-4.5807,-4.5807,-4.5798,-4.5803,-4.58,-4.5807,-4.5807,-4.5807,-4.5807,-4.5807,-4.5807,-4.5807,-4.5807,-4.5807,-4.5807,-4.58,-4.5793,-4.5626,-4.5418,-4.5211,-4.4962,-4.4726,-4.451,-4.4501,-4.4528,-4.4592,-4.4542,-4.4528,-4.4592,-4.4542,-4.4501,-4.4515,-4.4565,-4.4248,-4.3484,-4.3351,-4.2389,-4.0582,-3.9392,-3.7929,-3.6301,-3.6301,-3.6301,0.0,0.0,0.0,-3.4044,-3.4917,-3.556,-3.556,-3.556,-3.5566,-3.5598,-3.5596,-3.5697,-3.6041,-3.685,-3.7657,-3.8263,-3.8354,-3.8358,-3.8345,-3.8337,-3.8455,-3.8801,-3.8871,-3.9021,-3.9343,-3.9864,-4.0211,-4.0268,-4.0777,-4.1106,-4.109,-4.1109,-4.1109,-4.1109,-4.1109,-4.1109,-4.1109,-4.1109,-4.1109,-4.1109,-4.1109,-4.1109,-4.1109,-4.1109,-4.1265,-4.1576,-4.191,-4.2845,-4.4211,-4.4777,-4.5187,-4.5519,-4.6085,-4.63,-4.63,-4.63,-4.63,-4.6285,-4.6209,-4.6152,-4.6126,-4.6045,-4.5963,-4.5924,-4.5871,-4.5854,-4.5828,-4.5757,-4.5769,-4.581,-4.581,-4.5798,-4.5805,-4.58,-4.5807,-4.5807,-4.5807,-4.5807,-4.5807,-4.5807,-4.5807,-4.5807,-4.5807,-4.5807,-4.5752,-4.5626,-4.565,-4.5533,-4.5074,-4.5074,-4.4981,-4.4605,-4.4565,-4.4565,-4.4592,-4.4578,-4.4565,-4.4592,-4.4578,-4.4565,-4.4565,-4.4049,-4.3657,-4.3479,-4.2122,-4.0863,-3.9752,-3.9175,-3.7992,-3.6301,-3.6301,-3.6301,-3.2028,0.0,0.0,0.0,0.0,-3.5596,-3.5596,0.0,-3.5616,-3.5628,-3.5626,-3.5637,-3.5637,-3.614,-3.6769,-3.7385,-3.7492,-3.7472,-3.7424,-3.7424,-3.7541,-3.7866,-3.794,-3.8073,-3.8377,-3.8906,-3.9382,-3.9765,-4.0312,0.0,-4.1072,-4.1109,-4.1109,-4.1109,-4.1109,-4.1109,-4.1109,-4.1109,-4.1109,-4.1109,-4.1109,-4.1109,-4.1109,-4.1109,-4.1109,-4.1109,-4.1109,-4.1929,-4.3333,-4.4192,-4.4738,-4.5088,-4.5968,-4.63,-4.63,-4.63,-4.6272,-4.6226,-4.613,-4.6072,-4.603,-4.5939,-4.5886,-4.5866,-4.5805,-4.5807,-4.5781,-4.5758,-4.5773,-4.581,-4.581,-4.5805,-4.5807,-4.5807,-4.5807,-4.5807,-4.5807,-4.5807,-4.5807,-4.5807,-4.5807,-4.5807,-4.5807,-4.5807,-4.5752,-4.5618,-4.5685,-4.5558,-4.5088,-4.5107,-4.5015,-4.4646,-4.4592,-4.4592,-4.4592,-4.4592,-4.4592,-4.4592,-4.4578,-4.4565,-4.4565,-4.3753,-4.3302,-4.3337,-4.1264,-3.985,-3.915,-3.8725,-3.7743,-3.6301,-3.6301,-3.6301,0.0,0.0,0.0,0.0,0.0,0.0,-3.5606,0.0,-3.5612,-3.5679,-3.5704,-3.5704,-3.5709,-3.5709,-3.5709,-3.5709,-3.5709,-3.5706,-3.5699,-3.5704,-3.6033,-3.6956,-3.7062,-3.7391,-3.8248,-3.828,-3.8676,-3.9646,-3.9705,-4.0098,-4.1015,-4.109,-4.1109,-4.1109,-4.1109,-4.1109,-4.1109,-4.1109,-4.1109,-4.1109,-4.1109,-4.109,-4.1091,-4.1091,-4.1091,-4.1091,-4.1091,-4.1597,-4.2476,-4.3334,-4.4192,-4.5051,-4.595,-4.6302,-4.6302,-4.6303,-4.6208,-4.6105,-4.6085,-4.6017,-4.5899,-4.5894,-4.5848,-4.58,-4.5807,-4.5807,-4.5807,-4.5807,-4.5798,-4.5807,-4.5807,-4.5807,-4.5807,-4.5807,-4.5807,-4.5807,-4.5807,-4.5807,-4.5807,-4.5807,-4.5807,-4.5807,-4.5807,-4.5807,-4.5807,-4.5807,-4.5685,-4.5537,-4.5332,-4.5063,-4.4807,-4.4632,-4.4592,-4.4592,-4.4592,-4.4592,-4.4592,-4.4592,-4.4537,-4.4501,-4.4501,-4.3726,-4.3207,-4.3001,-4.0917,-3.9511,-3.8888,-3.7953,-3.7057,-3.6301,-3.6301,-3.6301,-3.2937,0.0,0.0,0.0,0.0,0.0,0.0,0.0,-3.5679,-3.5704,-3.5704,-3.5695,-3.5692,-3.5697,-3.5702,-3.5703,-3.5692,-3.569,-3.5706,-3.5711,-3.5794,-3.6061,-3.6096,-3.619,-3.6423,-3.6996,-3.75,0.0,-3.8996,-3.9825,-4.0136,-4.0769,-4.1109,-4.1109,-4.1109,-4.1109,-4.1109,-4.1109,-4.1095,-4.1103,-4.1103,-4.1107,-4.1092,-4.1092,-4.1092,-4.1092,-4.1092,-4.1599,-4.2478,-4.3343,-4.3848,-4.4208,-4.5712,-4.6301,-4.6288,-4.6189,-4.6122,-4.6083,-4.5932,-4.5866,-4.582,-4.5766,-4.5743,-4.575,-4.5792,-4.5807,-4.5795,-4.5798,-4.58,-4.5807,-4.5807,-4.5807,-4.5807,-4.5807,-4.5807,-4.5807,-4.5807,-4.5807,-4.5807,-4.5807,-4.5807,-4.5807,-4.5807,-4.5807,-4.5807,-4.5807,-4.5642,-4.5473,-4.5332,-4.5063,-4.4807,-4.4632,-4.4592,-4.4592,-4.4592,-4.4592,-4.4592,-4.4592,-4.4578,-4.4537,-4.4501,-4.3726,-4.3207,-4.3001,-4.1422,-4.0042,-3.8888,-3.7676,-3.6801,-3.6301,-3.6301,-3.6301,0.0,0.0,0.0,0.0,0.0,0.0,-3.5704,-3.5704,-3.5704,-3.5704,-3.5704,-3.569,-3.5706,-3.5692,-3.5702,-3.5708,-3.5702,-3.5706,-3.5697,-3.5702,-3.5702,-3.5702,-3.5708,-3.5708,-3.5708,-3.6159,-3.6641,-3.7076,-3.8023,-3.8919,-3.9671,-4.0605,-4.1089,-4.1054,-4.1086,-4.1095,-4.1109,-4.1095,-4.1104,-4.1092,-4.1092,-4.1092,-4.1093,-4.1093,-4.1093,-4.1112,-4.1483,-4.1933,-4.2499,-4.3708,-4.4216,-4.4373,-4.5703,-4.6229,-4.6204,-4.6076,-4.5994,-4.5959,-4.5834,-4.5757,-4.5699,-4.5695,-4.569,-4.5703,-4.5785,-4.5795,-4.5798,-4.58,-4.5807,-4.5807,-4.5807,-4.5807,-4.5807,-4.5807,-4.5807,-4.5807,-4.5807,-4.5807,-4.5807,-4.5807,-4.5807,-4.5807,-4.5807,-4.5807,-4.5807,-4.5807,-4.5585,-4.539,-4.5322,-4.4992,-4.472,-4.4619,-4.4592,-4.4578,-4.4551,-4.4578,-4.4578,-4.4551,-4.457,-4.4537,-4.4501,-4.3638,-4.3259,-4.3416,-4.1534,-3.9824,-3.8304,-3.7701,-3.7013,-3.6301,-3.6301,-3.6301,0.0,0.0,0.0,0.0,0.0,0.0,-3.5704,-3.5704,-3.5704,-3.5704,-3.5704,-3.5709,-3.569,-3.569,-3.5701,-3.5707,-3.5693,-3.5698,-3.5704,-3.5708,-3.5704,-3.5704,-3.5704,-3.5704,-3.5699,-3.5698,-3.6042,-3.6878,-3.7062,-3.7861,-3.9519,-4.0534,-4.1049,-4.0989,-4.1033,-4.107,-4.1098,-4.1089,-4.1074,-4.1093,-4.1073,-4.1074,-4.1074,-4.1074,-4.1133,-4.1269,-4.2031,-4.2499,-4.2773,-4.427,-4.4915,-4.5057,-4.5799,-4.6076,-4.6067,-4.5946,-4.5857,-4.5796,-4.5783,-4.5691,-4.5631,-4.5673,-4.5714,-4.5723,-4.5781,-4.5798,-4.5807,-4.5807,-4.5807,-4.5807,-4.5807,-4.5807,-4.5807,-4.5807,-4.5807,-4.5807,-4.5807,-4.5807,-4.5807,-4.5807,-4.5807,-4.5807,-4.5807,-4.5807,-4.5807,-4.5807,-4.5518,-4.5302,-4.5292,-4.4881,-4.4592,-4.4592,-4.4592,-4.4565,-4.4515,-4.4551,-4.4551,-4.4496,-4.4501,-4.4501,-4.4501,-4.3629,-4.3413,-4.3986,-4.1522,-3.9359,-3.7616,-3.7809,-3.7355,-3.6301,-3.6322,-3.6322,0.0,0.0,0.0,0.0,0.0,0.0,-3.5704,-3.5704,-3.5704,-3.5704,-3.5704,-3.5695,-3.5697,-3.5702,-3.5707,-3.5694,-3.5699,-3.5699,-3.5704,-3.5708,-3.5699,-3.5698,-3.5693,-3.5707,-3.5706,-3.5697,-3.5771,-3.596,-3.7251,-3.8512,-3.9619,-4.0484,-4.0923,-4.0913,-4.0877,-4.0902,-4.1011,-4.0971,-4.0978,-4.1028,-4.0964,-4.0933,-4.0942,-4.0932,-4.1328,-4.1987,-4.2166,-4.3043,-4.4364,-4.4685,-4.4821,-4.4924,-4.5715,-4.599,-4.593,-4.5858,-4.5803,-4.5768,-4.568,-4.5662,-4.5673,-4.5703,-4.5743,-4.5781,-4.5805,-4.58,-4.5807,-4.5807,-4.5807,-4.5807,-4.5807,-4.5807,-4.5807,-4.5807,-4.5807,-4.5807,-4.5807,-4.5807,-4.5807,-4.5807,-4.5807,-4.5807,-4.5807,-4.5807,-4.5807,-4.5807,-4.5518,-4.5292,-4.5222,-4.4857,-4.4578,-4.4528,-4.4528,-4.4496,-4.4501,-4.4515,-4.4496,-4.4501,-4.4501,-4.4501,-4.4501,-4.4204,-4.4024,-4.4005,-4.196,-4.007,-3.8392,-3.7214,-3.6523,-3.6301,-3.6423,-3.6402,0.0,0.0,0.0,-3.375,0.0,0.0,0.0,-3.54,-3.5704,-3.5704,-3.5704,-3.569,-3.5706,-3.5706,-3.5562,-3.5122,-3.5418,-3.5403,-3.4565,-3.5194,-3.5761,-3.5747,-3.5757,-3.5757,-3.5747,-3.5747,-3.5752,-3.5692,-3.6947,-3.8077,-3.8917,-3.9816,-4.048,-4.0848,-4.085,-4.0886,-4.0947,-4.0914,-4.0928,-4.0947,-4.0919,-4.0898,-4.0902,-4.1354,-4.1789,-4.2245,-4.3121,-4.3997,-4.4834,-4.5239,-4.538,-4.5394,-4.5789,-4.5938,-4.5883,-4.5787,-4.5749,-4.5734,-4.5668,-4.5679,-4.5703,-4.5743,-4.5773,-4.5795,-4.5793,-4.5807,-4.5807,-4.5807,-4.5807,-4.5807,-4.5807,-4.5807,-4.5807,-4.5807,-4.5807,-4.5807,-4.5807,-4.5807,-4.5807,-4.5807,-4.5807,-4.5807,-4.5807,-4.5737,-4.5692,-4.5669,-4.5343,-4.5074,-4.5019,-4.4751,-4.4542,-4.4501,-4.4501,-4.4501,-4.4501,-4.4501,-4.4501,-4.4501,-4.4501,-4.4501,-4.4501,-4.4266,-4.3825,-4.3123,-4.1785,-4.0279,-3.8594,-3.7439,-3.668,-3.6301,-3.6444,-3.6464,0.0,0.0,0.0,0.0,0.0,-3.4156,0.0,0.0,0.0,-3.5458,0.0,0.0,0.0,0.0,0.0,0.0,0.0,0.0,0.0,-3.4399,0.0,-3.5518,-3.5687,-3.5773,-3.5788,-3.577,-3.5766,-3.5698,-3.6545,-3.7385,-3.8169,-3.9112,-3.9985,-4.0765,-4.0824,-4.0852,-4.0878,-4.0875,-4.0875,-4.0878,-4.0885,-4.0866,-4.0882,-4.1758,-4.2252,-4.2502,-4.4078,-4.4857,-4.5047,-4.5691,-4.5933,-4.5885,-4.5873,-4.5874,-4.5854,-4.5734,-4.5708,-4.5708,-4.5708,-4.5708,-4.5723,-4.5773,-4.5795,-4.5803,-4.5793,-4.5807,-4.5807,-4.5807,-4.5807,-4.5807,-4.5807,-4.5807,-4.5807,-4.5807,-4.5807,-4.5807,-4.5807,-4.5807,-4.5807,-4.5807,-4.5807,-4.5807,-4.5807,-4.5685,-4.5588,-4.5498,-4.5173,-4.4903,-4.48,-4.4648,-4.4496,-4.4501,-4.4501,-4.4501,-4.4501,-4.4501,-4.4501,-4.4501,-4.4501,-4.4487,-4.4473,-4.4147,-4.3424,-4.2218,-4.1629,-4.0418,-3.8594,-3.8013,-3.7236,-3.6343,-3.6444,-3.6523,0.0,0.0,0.0,0.0,-3.3165,0.0,0.0,0.0,-3.4549,-3.4549,0.0,0.0,0.0,0.0,0.0,0.0,0.0,0.0,-3.3136,-3.3321,-3.3766,-3.4463,-3.5238,-3.5713,-3.5706,-3.5701,-3.5716,-3.5699,-3.6463,-3.7307,-3.8154,-3.898,-3.9824,-4.0675,-4.0655,-4.0699,-4.0815,-4.0742,-4.0742,-4.082,-4.0804,-4.0776,-4.0745,-4.1628,-4.2434,-4.3234,-4.4202,-4.5034,-4.5693,-4.5796,-4.5827,-4.5801,-4.5805,-4.5788,-4.5712,-4.5715,-4.5708,-4.5708,-4.5708,-4.5731,-4.5781,-4.5807,-4.5791,-4.58,-4.5807,-4.5807,-4.5807,-4.5807,-4.5807,-4.5807,-4.5807,-4.5807,-4.5807,-4.5807,-4.5807,-4.5807,-4.5807,-4.5807,-4.5807,-4.5807,-4.5807,-4.5807,-4.5807,-4.5685,-4.5588,-4.5498,-4.5262,-4.5007,-4.4812,-4.4687,-4.4584,-4.4515,-4.4501,-4.4501,-4.4501,-4.4501,-4.4501,-4.4501,-4.4501,-4.4444,-4.4329,-4.3995,-4.3321,-4.2218,-4.2126,-4.093,-3.8594,-3.853,-3.7798,-3.6482,-3.6502,-3.6564,0.0,0.0,0.0,0.0,0.0,0.0,-3.3156,0.0,-3.4328,0.0,0.0,0.0,0.0,0.0,0.0,0.0,-3.3339,0.0,0.0,0.0,-3.3272,0.0,0.0,0.0,-3.4903,-3.5398,-3.5693,-3.5702,-3.6002,-3.6571,-3.7406,-3.8239,-3.9103,-3.9979,-4.0469,-4.0745,-4.0792,-4.0777,-4.0777,-4.0792,-4.0796,-4.0784,-4.0791,-4.2138,-4.2957,-4.3363,-4.4717,-4.549,-4.5807,-4.5807,-4.5807,-4.5807,-4.5805,-4.5771,-4.5757,-4.5757,-4.5757,-4.5757,-4.5757,-4.5791,-4.5798,-4.5798,-4.5793,-4.5807,-4.5807,-4.5807,-4.5807,-4.5807,-4.5807,-4.5807,-4.5807,-4.5807,-4.5807,-4.5807,-4.5807,-4.5807,-4.5807,-4.5807,-4.5807,-4.5807,-4.5807,-4.5807,-4.5807,-4.5629,-4.54,-4.5184,-4.5,-4.4808,-4.4648,-4.4573,-4.4542,-4.4501,-4.4501,-4.4501,-4.4501,-4.4501,-4.4473,-4.4387,-4.3833,-4.3435,-4.3265,-4.2505,-4.1685,-4.0881,-4.0638,-3.9673,-3.7961,-3.7961,-3.7452,-3.6502,-3.6502,-3.6585,-3.6871,0.0,0.0,0.0,0.0,0.0,0.0,0.0,0.0,0.0,0.0,0.0,0.0,0.0,0.0,0.0,0.0,-3.2237,0.0,-3.1657,0.0,0.0,0.0,0.0,0.0,-3.4967,-3.5441,-3.5681,-3.5711,-3.6054,-3.6864,-3.7729,-3.8605,-3.9462,-4.0352,-4.0797,-4.0797,-4.0797,-4.0797,-4.0797,-4.0797,-4.0913,-4.1184,-4.2647,-4.344,-4.375,-4.5181,-4.5807,-4.5807,-4.5807,-4.5807,-4.5807,-4.5807,-4.5807,-4.5807,-4.5807,-4.5807,-4.5807,-4.5807,-4.5807,-4.5807,-4.5807,-4.5807,-4.5807,-4.5807,-4.5807,-4.5807,-4.5807,-4.5807,-4.5807,-4.5807,-4.5807,-4.5807,-4.5807,-4.5807,-4.5807,-4.5807,-4.5807,-4.5773,-4.573,-4.5723,-4.5681,-4.5574,-4.5464,-4.5312,-4.5052,-4.4833,-4.4659,-4.4537,-4.4515,-4.4501,-4.4501,-4.4501,-4.4501,-4.4501,-4.4501,-4.4458,-4.4358,-4.3383,-4.2733,-4.2591,-4.1376,-4.0456,-3.9917,-3.9499,-3.8713,-3.7512,-3.7512,-3.7283,-3.6839,-3.6568,-3.6689,0.0,0.0,0.0,-3.6916,0.0,0.0,0.0,0.0,-3.3277,0.0,0.0,0.0,0.0,0.0,0.0,0.0,0.0,0.0,0.0,0.0,0.0,0.0,0.0,0.0,0.0,-3.4429,-3.4791,-3.5644,-3.5701,-3.6052,-3.6864,-3.7729,-3.8605,-3.9462,-4.0352,-4.0797,-4.0797,-4.0797,-4.0797,-4.0797,-4.0797,-4.1222,-4.199,-4.2899,-4.3769,-4.4594,-4.5432,-4.5807,-4.5807,-4.5807,-4.5807,-4.5807,-4.5807,-4.5807,-4.5807,-4.5807,-4.5807,-4.5807,-4.5807,-4.5807,-4.5807,-4.5807,-4.5807,-4.5807,-4.5807,-4.5807,-4.5807,-4.5807,-4.5807,-4.5807,-4.5807,-4.5807,-4.5807,-4.5807,-4.5807,-4.5807,-4.5807,-4.5807,-4.5745,-4.556,-4.5498,-4.5399,-4.5,-4.5201,-4.5362,-4.5302,-4.4941,-4.4685,-4.4605,-4.4537,-4.4501,-4.4501,-4.4501,-4.4501,-4.4501,-4.4501,-4.4501,-4.4501,-4.3442,-4.2797,-4.2797,-4.1309,-4.0329,-3.9917,-3.9499,-3.8713,-3.7512,-3.7512,-3.7586,-3.7728,-3.6772,-3.6887,0.0,0.0,-3.9391,-3.8592,0.0,0.0,0.0,0.0,0.0,0.0,0.0,0.0,0.0,0.0,0.0,0.0,0.0,0.0,0.0,0.0,0.0,0.0,0.0,0.0,0.0,0.0,-3.4515,-3.4811,-3.5366,-3.582,-3.6091,-3.7444,-3.8328,-3.8624,-4.0036,-4.0797,-4.0797,-4.0797,-4.0797,-4.0797,-4.0797,-4.1222,-4.2028,-4.2899,-4.3788,-4.4632,-4.5452,-4.5807,-4.5807,-4.5807,-4.5807,-4.5807,-4.5807,-4.5807,-4.5807,-4.5807,-4.5807,-4.5807,-4.5807,-4.5807,-4.5807,-4.5807,-4.5807,-4.5807,-4.5807,-4.5807,-4.5807,-4.5807,-4.5807,-4.5807,-4.5807,-4.5807,-4.5807,-4.5807,-4.5807,-4.5807,-4.5807,-4.5807,-4.5737,-4.5552,-4.549,-4.5418,-4.515,-4.5085,-4.5026,-4.4857,-4.4719,-4.4605,-4.4537,-4.4496,-4.4501,-4.4501,-4.4501,-4.4501,-4.4501,-4.431,-4.4147,-4.4042,-4.3058,-4.2228,-4.1696,-4.0146,-3.8993,-3.8308,-3.7667,-3.7109,-3.6697,-3.6697,-3.674,-3.6807,-3.7101,-3.753,-4.1508,-4.1041,0.0,-4.0186,-3.9155,0.0,-3.6986,0.0,-3.5758,0.0,0.0,0.0,0.0,0.0,0.0,0.0,0.0,0.0,0.0,-3.0926,0.0,0.0,0.0,0.0,0.0,0.0,-3.4195,-3.4819,-3.538,-3.5704,0.0,-3.729,-3.8193,-3.8193,-3.9881,-4.0797,-4.0797,-4.0797,-4.0797,-4.0797,-4.1087,-4.1661,-4.2492,-4.3363,-4.4214,-4.5065,-4.5568,-4.5807,-4.5807,-4.5807,-4.5807,-4.5807,-4.5807,-4.5807,-4.5807,-4.5807,-4.5807,-4.5807,-4.5807,-4.5807,-4.5807,-4.5807,-4.5807,-4.5807,-4.5807,-4.5807,-4.5807,-4.5807,-4.5807,-4.5807,-4.5807,-4.5807,-4.5807,-4.5807,-4.5807,-4.5773,-4.5715,-4.5681,-4.5618,-4.5314,-4.5255,-4.5184,-4.4992,-4.4838,-4.4758,-4.4713,-4.464,-4.4578,-4.4537,-4.4496,-4.4501,-4.4501,-4.4501,-4.4487,-4.443,-4.4177,-4.3958,-4.3883,-4.2926,-4.2062,-4.1415,-3.9914,-3.8769,-3.8135,-3.7195,-3.6715,-3.6715,-3.6439,-3.6477,-3.6813,-3.7737,-3.8276]},{"header":{"parameterUnit":"m.s-1","parameterCategory":1,"la1":30.6,"la2":29.2853,"lo1":-89.7004,"lo2":-87.6739,"dy":0.0162,"dx":0.0183,"nx":112,"ny":82,"refTime":"2023-03-05T06:00:00:Z","depth":0,"parameterNumber":3,"parameterNumberName":"V-component_of_WINDS"},"data":[0.0,0.0,0.0,0.0,0.0,0.0,0.0,0.0,0.0,0.0,0.0,0.0,0.0,0.0,0.0,0.0,0.0,0.0,0.0,0.0,0.0,0.0,0.0,0.0,0.0,0.0,0.0,0.0,0.0,0.0,0.0,0.0,0.0,0.0,0.0,0.0,0.0,0.0,0.0,0.0,0.0,0.0,0.0,0.0,0.0,0.0,0.0,0.0,0.0,0.0,0.0,0.0,0.0,0.0,0.0,0.0,0.0,0.0,0.0,0.0,0.0,0.0,0.0,0.0,0.0,0.0,0.0,0.0,0.0,0.0,0.0,0.0,0.0,0.0,0.0,0.0,0.0,0.0,0.0,0.0,0.0,0.0,0.0,0.0,0.0,0.0,0.0,0.0,0.0,0.0,0.8752,0.9163,0.942,0.9652,0.9888,0.9702,0.9923,1.0787,0.0,0.0,0.0,0.0,0.0,0.0,0.0,0.0,0.0,0.0,0.0,0.0,0.0,0.0,0.0,0.0,0.0,0.0,0.0,0.0,0.0,0.0,0.0,0.0,0.0,0.0,0.0,0.0,0.0,0.0,0.0,0.0,0.0,0.0,0.0,0.0,0.0,0.0,0.0,0.0,0.0,0.0,0.0,0.0,0.0,0.0,0.0,0.0,0.0,0.0,0.0,0.0,0.0,0.0,0.0,0.0,0.0,0.0,0.0,0.0,0.0,0.0,0.0,0.0,0.0,0.0,0.0,0.0,0.0,0.0,0.0,0.0,0.0,0.0,0.0,0.0,0.0,0.0,0.0,0.0,0.0,0.0,0.0,0.0,0.0,0.0,0.0,0.0,0.0,0.0,0.0,0.0,0.0,0.0,0.0,0.0,0.0,0.0,0.0,0.0,0.0,0.0,0.0,0.0,0.913,0.9273,0.9551,0.9696,0.9588,0.9696,1.014,1.0994,0.0,0.0,0.0,0.0,0.0,0.0,0.0,0.0,0.0,0.0,0.0,0.0,0.0,0.0,0.0,0.0,0.0,0.0,0.0,0.0,0.0,0.0,0.0,0.0,0.0,0.0,0.0,0.0,0.0,0.0,0.0,0.0,0.0,0.0,0.0,0.0,0.0,0.0,0.0,0.0,0.0,0.0,0.0,0.0,0.0,0.0,0.0,0.0,0.0,0.0,0.0,0.0,0.0,0.0,0.0,0.0,0.0,0.0,0.0,0.0,0.0,0.0,0.0,0.0,0.0,0.0,0.0,0.0,0.0,0.0,0.0,0.0,0.0,0.0,0.0,0.0,0.0,0.0,0.0,0.0,0.0,0.0,0.0,0.0,0.0,0.0,0.0,0.0,0.0,0.0,0.0,0.0,0.0,0.0,0.0,0.0,0.0,0.0,0.0,0.0,0.0,0.0,0.0,0.8968,0.9138,0.9137,0.9215,0.9247,0.9236,0.9408,0.9887,1.0726,1.1039,0.0,0.0,0.0,0.0,0.0,0.0,0.0,0.0,0.0,0.0,0.0,0.0,0.0,0.0,0.0,0.0,0.0,0.0,0.0,0.0,0.0,0.0,0.0,0.0,0.0,0.0,0.0,0.0,0.0,0.0,0.0,0.0,0.0,0.0,0.0,0.0,0.0,0.0,0.0,0.0,0.0,0.0,0.0,0.0,0.0,0.0,0.0,0.0,0.0,0.0,0.0,0.0,0.0,0.0,0.0,0.0,0.0,0.0,0.0,0.0,0.0,0.0,0.0,0.0,0.0,0.0,0.0,0.0,0.0,0.0,0.0,0.0,0.0,0.0,0.0,0.0,0.0,0.0,0.0,0.0,0.0,0.0,0.0,0.0,0.0,0.0,0.0,0.0,0.0,0.0,0.0,0.0,0.0,0.0,0.0,0.0,0.0,0.0,0.0,0.0,0.0,0.0,0.8719,0.8768,0.8871,0.8835,0.8835,0.8958,0.9177,0.9655,1.0486,1.0945,0.0,0.0,0.0,0.0,0.0,0.0,0.0,0.0,0.0,0.0,0.0,0.0,0.0,0.0,0.0,0.0,0.0,0.0,0.0,0.0,0.0,0.0,0.0,0.0,0.0,0.0,0.0,0.0,0.0,0.0,0.0,0.0,0.0,0.0,0.0,0.0,0.0,0.0,0.0,0.0,0.0,0.0,0.0,0.0,0.0,0.0,0.0,0.0,0.0,0.0,0.0,0.0,0.0,0.0,0.0,0.0,0.0,0.0,0.0,0.0,0.0,0.0,0.0,0.0,0.0,0.0,0.0,0.0,0.0,0.0,0.0,0.0,0.0,0.0,0.0,0.0,0.0,0.0,0.0,0.0,0.0,0.0,0.0,0.0,0.0,0.0,0.0,0.0,0.0,0.0,0.0,0.0,0.0,0.0,0.0,0.0,0.0,0.0,0.0,0.0,0.0,0.0,0.8069,0.7832,0.8479,0.8705,0.8802,0.8802,0.9113,0.9693,1.062,1.0884,0.0,0.0,0.0,0.0,0.0,0.0,0.0,0.0,0.0,0.0,0.0,0.0,0.0,0.0,0.0,0.0,0.0,0.0,0.0,0.0,0.0,0.0,0.0,0.0,0.0,0.0,0.0,0.0,0.0,0.0,0.0,0.0,0.0,0.0,0.0,0.0,0.0,0.0,0.0,0.0,0.0,0.0,0.0,0.0,0.0,0.0,0.0,0.0,0.0,0.0,0.0,0.0,0.0,0.0,0.0,0.0,0.0,0.0,0.0,0.0,0.0,0.0,0.0,0.0,0.0,0.0,0.0,0.0,0.0,0.0,0.0,0.0,0.0,0.0,0.0,0.0,0.0,0.0,0.0,0.0,0.0,0.0,0.0,0.0,0.0,0.0,0.0,0.0,0.0,0.0,0.0,0.0,0.0,0.0,0.0,0.0,0.0,0.0,0.0,0.0,0.0,0.0,0.7994,0.7977,0.8447,0.8582,0.8511,0.8312,0.8603,0.9348,1.0619,0.0,0.0,0.0,0.0,0.0,0.0,0.0,0.0,0.0,0.0,0.0,0.0,0.0,0.0,0.0,0.0,0.0,0.0,0.0,0.0,0.0,0.0,0.0,0.0,0.0,0.0,0.0,0.0,0.0,0.0,0.0,0.0,0.0,0.0,0.0,0.0,0.0,0.0,0.0,0.0,0.0,0.0,0.0,0.0,0.0,0.0,0.0,0.0,0.0,0.0,0.0,0.0,0.0,0.0,0.0,0.0,0.0,0.0,0.0,0.0,0.0,0.0,0.0,0.0,0.0,0.0,0.0,0.0,0.0,0.0,0.0,0.0,0.0,0.0,0.0,0.0,0.0,0.0,0.0,0.0,0.0,0.0,0.0,0.0,0.0,0.0,0.0,0.0,0.0,0.0,0.0,0.0,0.0,0.0,0.0,0.0,0.0,0.0,0.0,0.0,0.0,0.0,0.7476,0.7298,0.7409,0.8117,0.8117,0.8084,0.8079,0.8317,0.9075,1.0393,0.0,0.0,0.0,0.0,0.0,0.0,0.0,0.0,0.0,0.0,0.0,0.0,0.0,0.0,0.0,0.0,0.0,0.0,0.0,0.0,0.0,0.0,0.0,0.0,0.0,0.0,0.0,0.0,0.0,0.0,0.0,0.0,0.0,0.0,0.0,0.0,0.0,0.0,0.0,0.0,0.0,0.0,0.0,0.0,0.0,0.0,0.0,0.0,0.0,0.0,0.0,0.0,0.0,0.0,0.0,0.0,0.0,0.0,0.0,0.0,0.0,0.0,0.0,0.0,0.0,0.0,0.0,0.0,0.0,0.0,0.0,0.0,0.0,0.0,0.0,0.0,0.0,0.0,0.0,0.0,0.0,0.0,0.0,0.0,0.0,0.0,0.0,0.0,0.0,0.0,0.0,0.0,0.0,0.0,0.0,0.0,0.0,0.0,0.0,0.0,0.0,0.0,0.64,0.5798,0.5877,0.733,0.7339,0.7466,0.8144,0.8387,0.8931,0.0,0.0,0.0,0.0,0.0,0.0,0.0,0.0,0.0,0.0,0.0,0.0,0.0,0.0,0.0,0.0,0.0,0.0,0.0,0.0,0.0,0.0,0.0,0.0,0.0,0.0,0.0,0.0,0.0,0.0,0.0,0.0,0.0,0.0,0.0,0.0,0.0,0.0,0.0,0.0,0.0,0.0,0.0,0.0,0.0,0.0,0.0,0.0,0.0,0.0,0.0,0.0,0.0,0.0,0.0,0.0,0.0,0.0,0.0,0.0,0.0,0.0,0.0,0.0,0.0,0.0,0.0,0.0,0.0,0.0,0.0,0.0,0.0,0.0,0.0,0.0,0.0,0.0,0.0,0.0,0.0,0.0,0.0,0.0,0.0,0.0,0.0,0.0,0.0,0.0,0.0,0.0,0.0,0.0,0.0,0.0,0.0,0.0,0.0,0.0,0.0,0.0,0.0,0.5756,0.5436,0.5629,0.689,0.7446,0.7792,0.7826,0.8452,0.9299,1.0347,0.0,0.0,0.0,0.0,0.0,0.0,0.0,0.0,0.0,0.0,0.0,0.0,0.0,0.0,0.0,0.0,0.0,0.0,0.0,0.0,0.0,0.0,0.0,0.0,0.0,0.0,0.0,0.0,0.0,0.0,0.0,0.0,0.0,0.0,0.0,0.0,0.0,0.0,0.0,0.0,0.0,0.0,0.0,0.0,0.0,0.0,0.0,0.0,0.0,0.0,0.0,0.0,0.0,0.0,0.0,0.0,0.0,0.0,0.0,0.0,0.0,0.0,0.0,0.0,0.0,0.0,0.0,0.0,0.0,0.0,0.0,0.0,0.0,0.0,0.0,0.0,0.0,0.0,0.0,0.0,0.0,0.0,0.0,0.0,0.0,0.0,0.0,0.0,0.0,0.0,0.0,0.0,0.0,0.0,0.0,0.0,0.0,0.0,0.0,0.0,0.0,0.0,0.4876,0.4848,0.5153,0.6154,0.7043,0.7646,0.7792,0.8609,0.9419,1.0175,0.0,0.0,0.0,0.0,0.0,0.0,0.0,0.0,0.0,0.0,0.0,0.0,0.0,0.0,0.0,0.0,0.0,0.0,0.0,0.0,0.0,0.0,0.0,0.0,0.0,0.0,0.0,0.0,0.0,0.0,0.0,0.0,0.0,0.0,0.0,0.0,0.0,0.0,0.0,0.0,0.0,0.0,0.0,0.0,0.0,0.0,0.0,0.0,0.0,0.0,0.0,0.0,0.0,0.0,0.0,0.0,0.0,0.0,0.0,0.0,0.0,0.0,0.0,0.0,0.0,0.0,0.0,0.0,0.0,0.0,0.0,0.0,0.0,0.0,0.0,0.0,0.0,0.0,0.0,0.0,0.0,0.0,0.0,0.0,0.0,0.0,0.0,0.0,0.0,0.0,0.0,0.0,0.0,0.0,0.0,0.0,0.0,0.0,0.0,0.0,0.0,0.0,0.3953,0.4099,0.4499,0.5165,0.6237,0.7162,0.7788,0.8674,0.934,0.9638,0.0,0.0,0.0,0.0,0.0,0.0,0.0,0.0,0.0,0.0,0.0,0.0,0.0,0.0,0.0,0.0,0.0,0.0,0.0,0.0,0.0,0.0,0.0,0.0,0.0,0.0,0.0,0.0,0.0,0.0,0.0,0.0,0.0,0.0,0.0,0.0,0.0,0.0,0.0,0.0,0.0,0.0,0.0,0.0,0.0,0.0,0.0,0.0,0.0,0.0,0.0,0.0,0.0,0.0,0.0,0.0,0.0,0.0,0.0,0.0,-0.5552,0.0,0.0,0.0,0.0,0.0,0.0,0.0,0.0,0.0,0.0,0.0,0.0,0.0,0.0,0.0,0.0,0.0,0.0,0.0,0.0,0.0,0.0,0.0,0.0,0.0,0.0,0.0,0.0,0.0,0.0,0.0,0.0,0.0,0.0,0.0,0.0,0.0,0.0,0.0,0.0,0.0,0.382,0.3745,0.3753,0.4052,0.5701,0.6787,0.6762,0.8242,0.9264,0.9445,1.0134,0.0,0.0,0.0,0.0,0.0,0.0,0.0,0.0,0.0,0.0,0.0,0.0,0.0,0.0,0.0,0.0,0.0,0.0,0.0,0.0,0.0,0.0,0.0,0.0,0.0,0.0,0.0,0.0,0.0,0.0,0.0,0.0,0.0,0.0,0.0,0.0,0.0,0.0,0.0,0.0,0.0,0.0,0.0,0.0,0.0,0.0,0.0,0.0,0.0,0.0,0.0,0.0,0.0,0.0,0.0,0.0,0.0,0.0,0.0,0.0,-0.5399,0.0,0.0,0.0,0.0,0.0,0.0,0.0,0.0,0.0,0.0,0.0,0.0,0.0,0.0,0.0,0.0,0.0,0.0,0.0,0.0,0.0,0.0,0.0,0.0,0.0,0.0,0.0,0.0,0.0,0.0,0.0,0.0,0.0,0.0,0.0,0.0,0.0,0.0,0.0,0.0,0.3469,0.3447,0.343,0.3495,0.5353,0.6556,0.6401,0.8136,0.9222,0.9303,0.9681,0.0,0.0,0.0,0.0,0.0,0.0,0.0,0.0,0.0,0.0,0.0,0.0,0.0,0.0,0.0,0.0,0.0,0.0,0.0,0.0,0.0,0.0,0.0,0.0,0.0,0.0,0.0,0.0,0.0,0.0,0.0,0.0,0.0,0.0,0.0,0.0,0.0,0.0,0.0,0.0,0.0,0.0,0.0,0.0,0.0,0.0,0.0,0.0,0.0,0.0,0.0,0.0,0.0,-0.7489,-0.7489,-0.7489,-0.7489,-0.7489,-0.7423,-0.6199,-0.5968,-0.6334,-0.5672,0.0,0.0,0.0,0.0,0.0,0.0,0.0,0.0,0.0,0.0,0.0,0.0,0.0,0.0,0.0,0.0,0.0,0.0,0.0,0.0,0.0,0.0,0.0,0.0,-0.1317,-0.1204,-0.0393,0.0,0.0,0.0,0.0,0.0,0.0,0.0,0.0,0.0,0.0,0.0,0.3116,0.3154,0.3201,0.3152,0.4932,0.6125,0.6202,0.7852,0.8944,0.9082,0.9169,0.9258,0.0,0.0,0.0,0.0,0.0,0.0,0.0,0.0,0.0,0.0,0.0,0.0,0.0,0.0,0.0,0.0,0.0,0.0,0.0,0.0,0.0,0.0,0.0,0.0,0.0,0.0,0.0,0.0,0.0,0.0,0.0,0.0,-0.543,-0.6168,0.0,0.0,0.0,0.0,0.0,0.0,0.0,0.0,0.0,0.0,0.0,0.0,0.0,-0.7163,-0.7195,-0.7381,-0.7456,-0.7489,-0.7489,-0.7489,-0.7489,-0.7489,-0.7489,-0.7489,-0.7293,0.0,-0.6367,-0.5968,0.0,0.0,0.0,0.0,0.0,0.0,0.0,0.0,0.0,0.0,0.0,0.0,0.0,0.0,0.0,0.0,0.0,0.0,0.0,0.0,0.0,0.0,-0.1234,-0.1202,-0.1335,-0.1393,0.0,-0.0554,-0.0073,0.0217,0.076,0.0,0.0,0.0,0.0,0.0,0.0,0.0,0.3011,0.2974,0.2853,0.2616,0.4,0.5058,0.5429,0.6858,0.7969,0.857,0.8609,0.8749,0.9036,0.9133,0.0,0.0,0.0,0.0,0.0,0.0,0.0,0.0,0.0,0.0,0.0,0.0,0.0,0.0,0.0,0.0,0.0,0.0,0.0,0.0,0.0,0.0,0.0,0.0,0.0,0.0,0.0,0.0,0.0,-0.5277,-0.5636,-0.578,-0.6083,-0.6272,0.0,0.0,0.0,0.0,0.0,0.0,0.0,0.0,0.0,-0.7204,-0.7297,-0.7363,-0.7363,-0.7451,-0.7511,-0.7511,-0.7487,-0.7507,-0.7507,-0.7507,-0.7507,-0.7507,-0.7507,-0.7331,-0.7005,-0.6855,-0.6166,-0.52,0.0,0.0,0.0,0.0,-0.3558,-0.3363,-0.3348,-0.3367,-0.3332,-0.2912,0.0,0.0,0.0,0.0,0.0,0.0,0.0,0.0,0.0,0.0,-0.1196,-0.1251,-0.1304,-0.1353,-0.1276,-0.0996,-0.0644,0.0,0.0149,0.0697,0.176,0.0,0.0,0.0,0.0,0.301,0.301,0.2768,0.2569,0.2472,0.3447,0.4465,0.5233,0.6457,0.7554,0.8447,0.8517,0.8576,0.87,0.8894,0.9454,0.0,0.0,0.0,0.0,0.0,0.0,0.0,0.0,0.0,0.0,0.0,0.0,0.0,0.0,0.0,0.0,0.0,0.0,0.0,0.0,0.0,0.0,0.0,0.0,0.0,0.0,0.0,0.0,-0.5715,-0.59,-0.5695,-0.6332,-0.6634,0.0,0.0,0.0,0.0,0.0,0.0,-0.7297,-0.748,-0.7508,-0.7348,-0.756,-0.7617,-0.7588,-0.7641,-0.7621,-0.7587,-0.7632,-0.7628,-0.7593,-0.7593,-0.7557,-0.7491,-0.7491,-0.7491,-0.7504,-0.7512,-0.6978,-0.6161,-0.6085,-0.5561,-0.486,-0.4921,-0.4893,-0.4798,-0.4858,-0.4997,-0.4997,-0.4349,-0.4388,-0.4462,-0.3149,0.0,0.0,0.0,0.0,-0.1157,-0.121,-0.1224,-0.1229,-0.1291,-0.1296,-0.1296,-0.1296,-0.1296,-0.1133,0.0,-0.042,0.0038,0.1402,0.0,0.0,0.0,0.0,0.3114,0.3093,0.2788,0.2578,0.2559,0.3119,0.3944,0.4998,0.6059,0.7092,0.8182,0.8414,0.8517,0.8517,0.8732,0.9139,0.9735,0.0,0.0,0.0,0.0,0.0,0.0,0.0,0.0,0.0,0.0,0.0,0.0,0.0,0.0,0.0,0.0,0.0,0.0,0.0,0.0,0.0,0.0,0.0,0.0,0.0,0.0,0.0,0.0,0.0,-0.659,-0.6664,0.0,0.0,0.0,0.0,-0.7171,-0.7204,-0.7297,-0.7489,-0.7688,-0.7763,-0.7763,-0.7947,-0.7976,-0.7774,-0.799,-0.796,-0.7788,-0.7969,-0.7974,-0.777,-0.777,-0.7699,-0.7491,-0.7491,-0.7491,-0.7486,-0.7504,-0.7349,-0.7107,-0.6905,-0.6743,-0.6521,-0.6217,-0.5909,-0.5607,-0.5431,-0.4922,-0.4344,-0.4308,-0.4491,-0.4551,-0.3843,-0.3513,0.0,0.0,-0.1848,-0.1215,-0.1286,-0.1294,-0.1295,-0.1296,-0.1296,-0.1296,-0.1296,-0.1296,-0.1296,0.0,-0.1255,-0.0738,0.0869,0.0,0.1679,0.3243,0.3487,0.3454,0.3404,0.318,0.3044,0.2965,0.3023,0.3453,0.4444,0.5404,0.64,0.7489,0.8149,0.8517,0.8517,0.8511,0.87,0.9049,0.9703,0.0,0.0,0.0,0.0,0.0,0.0,0.0,0.0,0.0,0.0,0.0,0.0,0.0,0.0,0.0,0.0,0.0,0.0,0.0,0.0,0.0,0.0,0.0,0.0,0.0,0.0,0.0,0.0,-0.6282,-0.6586,0.0,-0.6442,-0.6602,-0.6798,-0.7008,-0.7362,-0.7624,-0.7681,-0.7899,-0.8006,-0.8006,-0.8077,-0.8009,-0.7801,-0.7852,-0.7811,-0.7597,-0.7681,-0.7663,-0.7592,-0.7592,-0.7555,-0.7518,-0.7518,-0.7518,-0.7518,-0.7518,-0.7446,-0.737,-0.7307,-0.7326,-0.741,-0.7409,-0.7422,-0.736,-0.6911,-0.6757,-0.6641,-0.6153,-0.5475,-0.4766,-0.4002,-0.3341,-0.2717,-0.1932,-0.1512,-0.1282,-0.1293,-0.1296,-0.1296,-0.1296,-0.1296,-0.1296,-0.1296,-0.1296,-0.1296,-0.1296,-0.1296,-0.0818,0.072,0.1057,0.161,0.3072,0.3427,0.3489,0.3456,0.3307,0.3115,0.2942,0.2823,0.3372,0.4931,0.5352,0.6256,0.8019,0.8382,0.8517,0.8517,0.8517,0.8544,0.8673,0.892,0.9428,0.0,0.0,0.0,0.0,0.0,0.0,0.0,0.0,0.0,0.0,0.0,0.0,0.0,0.0,0.0,0.0,0.0,0.0,0.0,0.0,0.0,0.0,0.0,0.0,0.0,0.0,-0.67,-0.6282,-0.6738,-0.6919,-0.6465,-0.6813,-0.7089,-0.7103,-0.7471,-0.7734,-0.7797,-0.7972,-0.8081,-0.8005,-0.8146,-0.8075,-0.7792,-0.788,-0.7792,-0.7613,-0.766,-0.7676,-0.7603,-0.7603,-0.7561,-0.7484,-0.7484,-0.7484,-0.7484,-0.7484,-0.7491,-0.7497,-0.7497,-0.7572,-0.7723,-0.7915,-0.8068,-0.814,-0.7676,-0.7642,-0.768,-0.7022,-0.5973,-0.4885,-0.4377,-0.3405,-0.2393,-0.1845,-0.1492,-0.1296,-0.1296,-0.1296,-0.1296,-0.1296,-0.1296,-0.1296,-0.1296,-0.1296,-0.1296,-0.1296,-0.106,-0.0468,0.0805,0.1338,0.1973,0.3147,0.3495,0.3567,0.3507,0.3414,0.3271,0.3136,0.294,0.3538,0.5313,0.5457,0.6273,0.8258,0.8457,0.8517,0.8517,0.8517,0.8517,0.8517,0.8517,0.8985,0.9983,0.0,0.0,0.0,0.0,0.0,0.0,0.0,0.0,0.0,0.0,0.0,0.0,0.0,0.0,0.0,0.0,0.0,0.0,0.0,0.0,0.0,0.0,0.0,-0.609,-0.6445,-0.6732,-0.6732,-0.7178,-0.7416,-0.7236,-0.7373,-0.7491,-0.7499,-0.7499,-0.7606,-0.7788,-0.7975,-0.8005,-0.7812,-0.8185,-0.8217,-0.7804,-0.7991,-0.7991,-0.7804,-0.7991,-0.7991,-0.7804,-0.7804,-0.7723,-0.7522,-0.7522,-0.7522,-0.7522,-0.7522,-0.7522,-0.7522,-0.7522,-0.7522,-0.7522,-0.7723,-0.7804,-0.7765,-0.7599,-0.7411,-0.7142,-0.6756,-0.5899,-0.5004,-0.4963,-0.3795,-0.2511,-0.247,-0.1884,-0.1296,-0.1296,-0.1296,-0.1296,-0.1296,-0.1296,-0.1296,-0.1296,-0.1296,-0.1296,-0.1296,-0.0588,0.0313,0.1136,0.196,0.2762,0.3493,0.3705,0.0,0.353,0.3579,0.356,0.3514,0.3318,0.3853,0.5457,0.5644,0.6344,0.7986,0.8339,0.849,0.8517,0.8517,0.8517,0.8517,0.8517,0.8985,0.9952,0.0,0.0,0.0,0.0,0.0,0.0,0.0,0.0,0.0,0.0,0.0,0.0,0.0,0.0,0.0,0.0,0.0,0.0,0.0,0.0,0.0,0.0,-0.682,-0.6532,-0.7085,-0.7507,-0.7507,-0.75,-0.7482,-0.7408,-0.7345,-0.7288,-0.7285,-0.755,-0.7753,-0.7789,-0.7996,-0.8061,-0.8018,-0.8114,-0.8063,-0.7804,-0.7842,-0.7842,-0.7804,-0.7842,-0.7915,-0.803,-0.803,-0.7991,-0.7949,-0.7949,-0.7949,-0.7949,-0.7949,-0.7949,-0.791,-0.7599,-0.7603,-0.7723,-0.7765,-0.7876,-0.803,-0.8136,-0.794,-0.7595,-0.7326,-0.6437,-0.5273,-0.4377,-0.3366,-0.2393,-0.1805,-0.1453,-0.1296,-0.1296,-0.1296,-0.1296,-0.1296,-0.1296,-0.1296,-0.1296,-0.1296,-0.1296,-0.1296,-0.0078,0.1019,0.1254,0.196,0.2778,0.3614,0.3785,0.0,0.3736,0.375,0.3653,0.3381,0.3279,0.3708,0.4928,0.4985,0.5768,0.7627,0.7817,0.8054,0.849,0.8517,0.8517,0.8517,0.8517,0.8765,0.0,0.0,0.0,0.0,0.0,0.0,0.0,0.0,0.0,0.0,0.0,0.0,0.0,0.0,0.0,0.0,0.0,0.0,0.0,0.0,0.0,0.0,-0.6835,-0.718,-0.7154,-0.7618,-0.7905,-0.7806,-0.7704,-0.7604,-0.75,-0.7382,-0.7364,-0.7442,-0.7593,-0.7752,-0.791,-0.803,-0.8102,-0.8102,-0.8263,-0.8264,-0.8069,-0.8151,-0.8194,-0.8194,-0.8194,-0.8229,-0.8348,-0.8348,-0.8348,-0.8348,-0.8348,-0.8348,-0.8348,-0.8269,-0.8221,0.0,0.0,0.0,0.0,0.0,-0.7872,-0.7872,-0.7983,-0.7472,-0.6734,-0.6623,-0.5541,-0.4183,-0.3483,-0.2665,-0.1884,-0.1414,-0.1296,-0.1296,-0.1296,-0.1296,-0.1296,-0.1296,-0.1296,-0.1296,-0.1296,-0.1296,-0.1296,-0.1296,0.0,0.0,0.1136,0.2194,0.3203,0.3635,0.3777,0.375,0.3598,0.3624,0.3548,0.3233,0.3188,0.3678,0.501,0.5255,0.0,0.0,0.0,0.8385,0.8667,0.8565,0.0,0.0,0.0,0.8608,0.8797,0.0,0.0,0.0,1.1516,1.202,0.0,0.0,0.0,0.0,0.0,0.0,0.0,0.0,0.0,0.0,0.0,0.0,0.0,0.0,0.0,0.0,-0.7211,-0.758,-0.777,-0.7958,-0.8034,-0.7838,-0.7792,-0.7727,-0.7546,-0.7504,-0.7561,-0.7761,-0.7603,-0.7676,-0.8063,0.0,0.0,0.0,0.0,-0.8586,-0.8418,-0.8594,-0.8723,-0.8723,-0.8723,-0.8764,-0.8764,-0.8764,-0.8764,-0.8764,-0.8764,-0.8764,-0.8764,-0.8563,-0.85,-0.8475,-0.8224,-0.8102,-0.8102,-0.8102,-0.7872,-0.7561,-0.7442,0.0,0.0,-0.5265,-0.3986,-0.2549,-0.2511,-0.1923,-0.1296,-0.1296,-0.1296,-0.1296,-0.1296,-0.1296,-0.1296,-0.1296,-0.1296,-0.1296,-0.1296,-0.1335,-0.1296,-0.1218,-0.0078,0.0901,0.0979,0.2546,0.3736,0.3614,0.3671,0.3657,0.3355,0.3405,0.3368,0.3129,0.0,0.0,0.5316,0.5777,0.6704,0.8368,0.8939,0.9114,0.8944,0.8678,0.8554,0.8554,0.8528,0.8517,0.8517,0.8517,0.8517,0.8544,1.0426,1.1118,0.0,0.0,0.0,0.0,0.0,0.0,0.0,0.0,0.0,0.0,0.0,0.0,0.0,0.0,0.0,-0.6764,-0.7337,-0.7744,-0.7797,-0.7961,-0.8043,-0.7841,-0.7814,-0.7783,-0.7749,-0.7583,-0.7522,-0.7561,-0.7684,-0.7761,-0.7842,-0.8017,-0.8098,-0.8098,-0.8326,-0.8429,-0.8384,-0.8582,-0.8759,-0.8923,0.0,0.0,-0.9205,-0.9205,-0.9205,-0.9205,-0.9205,-0.9205,-0.9164,-0.9123,-0.9141,-0.9066,-0.8355,-0.8102,-0.8102,-0.8102,-0.8063,-0.7868,-0.7007,-0.6503,-0.6079,-0.4955,-0.3865,-0.2932,-0.2586,-0.1923,0.0,-0.1296,-0.1296,-0.1296,-0.1296,-0.1296,-0.1296,-0.1296,-0.1296,-0.1296,-0.1296,-0.1415,-0.1335,-0.0628,0.0118,0.0901,0.1568,0.2741,0.356,0.3542,0.3554,0.3521,0.3466,0.3285,0.3156,0.3017,0.3011,0.3425,0.448,0.461,0.5529,0.7504,0.8618,0.9184,0.9141,0.8921,0.883,0.883,0.8608,0.8517,0.8517,0.8517,0.8517,0.8517,0.9454,0.9862,0.0,0.0,0.0,0.0,0.0,0.0,0.0,0.0,0.0,0.0,0.0,-0.4659,0.0,0.0,-0.6631,-0.7332,-0.7565,-0.7733,-0.7926,-0.7964,-0.7957,-0.7966,-0.7969,-0.7953,-0.7953,-0.7872,-0.7829,-0.7961,-0.7935,-0.802,-0.8233,-0.8203,-0.8254,-0.8331,-0.8556,-0.8702,-0.8831,-0.905,-0.9264,-0.9512,-0.9512,-0.9555,-0.9639,-0.9639,-0.9639,-0.9639,-0.9639,-0.9639,-0.963,-0.9484,-0.9405,-0.9252,-0.8863,-0.8625,-0.855,-0.8392,-0.8015,-0.7462,-0.6627,-0.5749,-0.4802,-0.3793,-0.2896,-0.2154,-0.1961,-0.161,-0.1296,-0.1296,-0.1296,-0.1296,-0.1296,-0.1296,-0.1296,-0.1296,-0.1375,-0.1454,-0.1454,-0.1611,-0.1493,-0.0628,0.0039,0.0744,0.1607,0.2547,0.3176,0.3294,0.3409,0.3409,0.3176,0.3022,0.289,0.2778,0.2705,0.3114,0.4105,0.5231,0.6533,0.8085,0.8826,0.926,0.9383,0.9163,0.9034,0.9034,0.8807,0.8689,0.8689,0.8571,0.8517,0.8517,0.8861,0.9172,0.0,0.0,0.0,0.0,0.0,0.0,0.0,0.0,-0.278,-0.4043,-0.4461,-0.4965,-0.631,-0.6464,-0.6741,-0.7918,-0.7801,-0.7691,-0.8037,-0.7953,-0.7915,-0.814,-0.814,-0.8102,-0.8102,-0.8137,-0.822,-0.837,-0.8339,-0.8394,-0.8673,-0.8511,-0.8487,-0.8606,-0.8788,-0.902,-0.9199,-0.9481,-0.9689,-0.9907,-0.9994,-0.9994,-0.9994,-0.9994,-0.9994,-0.9994,-0.9994,-0.9994,-0.998,-0.9771,-0.9578,-0.9436,-0.9391,-0.9243,-0.9068,-0.8786,-0.8089,-0.7119,-0.6263,-0.4868,-0.3373,-0.2545,-0.1831,-0.1314,-0.1314,-0.131,-0.1345,-0.1345,-0.138,-0.1415,-0.1415,-0.1415,-0.1415,-0.1415,-0.1493,-0.1611,-0.1611,-0.1729,-0.1533,-0.055,0.0,0.0627,0.1607,0.2392,0.2904,0.3023,0.3215,0.3255,0.2904,0.2826,0.2746,0.2628,0.2583,0.3067,0.4331,0.6277,0.7884,0.8988,0.9223,0.9432,0.9637,0.941,0.9276,0.9276,0.9084,0.8965,0.8965,0.8737,0.8651,0.8651,0.8651,0.8886,-0.0907,-0.0893,-0.0924,-0.0982,-0.1006,-0.1394,0.0,0.0,-0.4102,-0.6115,-0.6572,-0.6857,-0.7716,-0.7605,-0.751,-0.8005,-0.7922,-0.7836,-0.8075,-0.8068,-0.814,-0.8327,-0.8217,-0.8102,-0.8102,-0.8256,-0.8357,-0.8379,-0.8707,-0.886,-0.8723,-0.8794,-0.8759,-0.859,-0.8776,-0.8921,-0.8925,-0.9375,-0.9602,-0.9646,-0.9864,-0.9994,-0.9994,-0.9994,-0.9994,-0.9994,-0.9994,-0.9994,-0.9994,-0.9971,-0.9961,-0.9913,-0.9673,-0.9534,-0.9493,-0.9096,-0.8451,-0.7566,-0.5744,-0.4575,-0.3573,-0.1961,-0.1379,-0.1296,-0.1296,-0.1443,-0.1582,-0.1582,-0.1678,-0.1848,-0.1848,-0.1848,-0.1848,-0.1848,-0.1729,-0.1611,-0.1611,-0.1611,-0.1218,0.0196,0.0392,0.0744,0.2156,0.2787,0.3023,0.2865,0.2863,0.2943,0.3062,0.2904,0.2865,0.3023,0.3015,0.3748,0.5535,0.6793,0.8015,0.9183,0.96,0.9852,0.9879,0.9663,0.957,0.957,0.9292,0.9168,0.9168,0.9141,0.9125,0.9125,0.9125,0.8938,-0.0945,-0.0973,-0.0981,-0.1027,-0.1048,-0.1336,-0.246,-0.3115,-0.402,-0.5816,-0.6714,-0.7362,-0.8148,-0.8134,-0.8062,0.0,-0.8107,-0.7967,-0.7931,-0.8136,-0.8255,-0.8217,-0.8474,-0.862,-0.862,-0.8693,-0.884,-0.9073,-0.9133,-0.9191,-0.9219,-0.9004,-0.8875,-0.8793,-0.8742,-0.8784,-0.8911,-0.9082,-0.9257,-0.9432,-0.9646,-0.9777,-0.9777,-0.9907,-0.9994,-0.9994,-0.9994,-0.9994,-0.9994,-0.9994,-0.9994,-0.9994,-0.9864,-0.982,-0.971,-0.8674,-0.7912,-0.707,-0.5074,-0.3938,-0.3144,-0.1767,-0.1305,-0.1305,-0.1305,-0.1339,-0.1412,-0.1412,-0.1485,-0.1556,-0.1556,-0.1556,-0.1556,-0.1556,-0.1581,-0.1605,-0.1605,-0.1707,-0.1335,0.0157,0.0396,0.088,0.2523,0.2886,0.3004,0.3082,0.3164,0.3176,0.31,0.3023,0.3007,0.3041,0.3424,0.4169,0.5398,0.6595,0.7731,0.8879,0.9452,0.9782,0.9879,0.983,0.9776,0.9776,0.9545,0.9421,0.9421,0.9276,0.9206,0.9206,0.9206,0.9098,-0.1011,-0.1012,-0.1015,-0.1074,-0.1129,-0.1316,-0.2097,-0.277,-0.3703,-0.5322,-0.6371,-0.7257,-0.8101,-0.827,-0.8289,-0.825,-0.8097,-0.7944,-0.7672,-0.8021,-0.8273,-0.8138,-0.8617,-0.9028,-0.9145,-0.9155,-0.9282,-0.9583,-0.9531,-0.9542,-0.9598,-0.9257,-0.9043,-0.8911,-0.874,-0.874,-0.8911,-0.8955,-0.913,-0.9388,-0.9602,-0.9689,-0.9733,-0.9907,-0.9994,-0.9994,-0.9994,-0.9994,-0.9994,-0.9994,-0.9994,-0.9994,-0.9994,-0.9907,-0.9602,-0.8009,-0.7149,-0.6538,-0.4454,-0.3291,-0.2609,-0.1628,-0.1329,-0.1329,-0.1329,-0.1366,-0.1402,-0.1402,-0.1438,-0.1473,-0.1473,-0.1473,-0.1473,-0.1473,-0.158,-0.1643,-0.1643,-0.1703,-0.1321,0.012,0.0486,0.1066,0.2709,0.3077,0.3198,0.336,0.3536,0.3516,0.326,0.3256,0.3274,0.3217,0.3687,0.4472,0.556,0.6487,0.7593,0.8955,0.9426,0.9744,0.9879,0.9884,0.9884,0.9884,0.976,0.9674,0.9674,0.9491,0.94,0.94,0.94,0.94,0.0,0.0,-0.1014,-0.107,-0.1142,-0.1427,-0.2288,-0.2662,-0.3345,-0.5207,-0.5954,-0.657,-0.7622,-0.7978,-0.8063,-0.7863,-0.7821,-0.7672,-0.7257,-0.7718,-0.8095,-0.8119,-0.8625,-0.9145,0.0,-0.9583,-0.9592,-0.9602,-0.9828,-0.9859,-0.9602,-0.9602,-0.9388,-0.8911,-0.8911,-0.8911,-0.8911,-0.9174,-0.9388,-0.9602,-0.9864,-0.9994,-0.9994,-0.9994,-0.9994,-0.9994,-0.9994,-0.9994,-0.9994,-0.9994,-0.9994,-0.9994,-0.9994,-0.9738,-0.9082,-0.717,-0.6413,-0.6098,-0.397,-0.2772,-0.215,-0.1567,-0.1387,-0.1387,-0.1387,-0.1545,-0.1693,-0.1693,-0.1838,-0.1976,-0.1976,-0.1976,-0.1976,-0.1976,-0.1848,-0.1679,-0.1679,-0.1512,-0.0924,0.0419,0.0839,0.1427,0.2773,0.336,0.3693,0.3693,0.3788,0.3782,0.3536,0.3645,0.3763,0.3761,0.3802,0.4611,0.6566,0.6796,0.7681,0.9728,0.9873,0.9911,0.9884,0.9884,0.9884,0.9884,0.9879,0.9911,0.9911,0.9863,0.9895,0.9895,0.9895,0.9895,0.0,0.0,-0.1071,-0.1166,-0.1189,-0.128,-0.162,-0.2156,-0.2841,-0.3775,-0.4475,-0.5121,-0.5767,-0.6419,-0.6798,-0.6757,-0.7095,-0.7253,-0.6872,-0.7099,-0.7394,-0.7688,-0.8095,0.0,0.0,0.0,0.0,-0.9838,-0.9956,-0.9951,-0.9864,-0.9563,-0.9345,-0.9174,-0.8999,-0.8911,-0.8911,-0.9174,-0.9349,-0.9388,-0.9646,-0.982,-0.9994,-0.9994,-0.9994,-0.9994,-0.9994,-0.9994,-0.9994,-0.9994,-0.9994,-0.9951,-0.9248,-0.8715,-0.8042,-0.5836,-0.4816,-0.437,-0.2999,-0.2377,-0.2109,-0.157,-0.1391,-0.1391,-0.1391,-0.1428,-0.1509,-0.1509,-0.1545,-0.158,-0.158,-0.158,-0.158,-0.158,-0.1563,-0.1504,-0.1504,-0.1062,-0.0336,0.0714,0.1404,0.2192,0.3396,0.3696,0.3805,0.3876,0.3918,0.3867,0.3734,0.3763,0.3802,0.3802,0.3802,0.4613,0.6647,0.6804,0.7685,0.9765,0.9884,0.9884,0.9884,0.9884,0.9884,0.9884,0.9884,0.9884,0.9884,0.9884,0.9884,0.9884,0.9884,1.018,0.0,-0.1212,-0.1152,-0.1213,-0.1228,-0.1233,-0.1292,-0.1689,-0.2235,-0.2778,-0.341,-0.4024,-0.4584,-0.5445,-0.5949,-0.5598,-0.6095,-0.6356,-0.594,-0.6248,-0.6705,-0.7291,-0.7959,-0.8644,0.0,0.0,0.0,-0.9985,-0.9907,-0.9864,-0.9864,-0.9563,-0.9376,-0.927,-0.919,-0.9087,-0.9065,-0.9265,-0.9416,-0.9563,-0.9689,-0.982,-0.9994,-0.9994,-0.9994,-0.9994,-0.9994,-0.9994,-0.9994,-0.9994,-0.9772,-0.9379,-0.858,-0.7779,-0.6804,-0.4772,-0.3751,-0.3218,-0.2241,-0.193,-0.1839,-0.1525,-0.148,-0.1525,-0.1436,-0.148,-0.1525,-0.1436,-0.1391,-0.1391,-0.1391,-0.1391,-0.1391,-0.1391,-0.1421,-0.1406,-0.1406,-0.0825,-0.0086,0.0731,0.1609,0.2504,0.347,0.3734,0.3883,0.4057,0.4034,0.3963,0.3873,0.3832,0.3851,0.3851,0.3822,0.4613,0.6647,0.6804,0.7685,0.9765,0.9884,0.9884,0.9884,0.9884,0.9884,0.9884,0.9884,0.9884,0.9884,0.9884,0.9884,0.9922,1.018,1.0625,-0.1207,-0.1206,-0.1222,-0.1281,-0.1296,-0.1296,-0.1296,-0.1296,-0.1531,-0.2272,-0.272,-0.3229,0.0,0.0,-0.5433,-0.4434,-0.4851,-0.5167,-0.4726,-0.5316,-0.612,0.0,0.0,0.0,0.0,0.0,0.0,-0.9951,0.0,-0.9602,-0.9602,-0.9611,-0.9486,-0.9218,-0.938,-0.947,-0.9414,-0.9474,-0.9692,-1.0009,-1.0009,-1.0009,-0.9994,-0.9994,-0.9994,-0.9994,-0.9994,-0.9994,-0.9994,-0.9994,-0.9379,-0.8408,-0.7906,-0.6848,-0.544,-0.4059,-0.322,-0.2688,-0.1749,-0.1391,-0.1391,-0.1391,-0.157,-0.1749,-0.148,-0.157,-0.1705,-0.148,-0.1391,-0.1391,-0.1391,-0.1391,-0.1391,-0.1391,-0.1391,-0.1391,-0.1345,-0.0807,-0.0134,0.0628,0.1568,0.2463,0.3136,0.3587,0.3966,0.4193,0.4222,0.4144,0.4006,0.3961,0.3908,0.3908,0.3864,0.4659,0.6661,0.6846,0.7723,0.9803,0.9922,0.9884,0.9884,0.9884,0.9884,0.9884,0.9884,0.9884,0.9884,0.9884,0.9884,0.9916,1.0738,1.1111,-0.1339,-0.1312,-0.1277,-0.1293,-0.1296,-0.1296,-0.1296,-0.1296,-0.1329,-0.1496,-0.161,-0.1717,0.0,0.0,0.0,-0.3706,-0.4819,0.0,-0.539,-0.5656,0.0,-0.7001,0.0,-0.7834,-0.8807,-0.8859,0.0,0.0,-0.9519,-0.9519,-0.9864,-0.9522,-0.9356,-0.9412,-0.9413,-0.9418,-0.9418,-0.9599,-0.9803,-0.9924,-0.9924,-0.993,-0.9994,-0.9994,-0.9994,-0.9994,-0.9994,-0.9994,-0.9994,-0.9994,-0.9192,-0.7906,-0.7071,-0.57,-0.4014,-0.2955,-0.2241,-0.1749,-0.148,-0.1391,-0.1391,-0.1391,-0.1436,-0.148,-0.1436,-0.1436,-0.148,-0.1436,-0.1391,-0.1391,-0.1391,-0.1391,-0.1391,-0.1391,-0.1391,-0.1256,-0.0762,-0.009,0.0717,0.1657,0.2598,0.3361,0.3678,0.3812,0.3985,0.4227,0.4267,0.421,0.4014,0.3974,0.396,0.396,0.4444,0.549,0.7254,0.761,0.8494,1.0255,1.0067,0.9884,0.9884,0.9884,0.9884,0.9884,0.9884,0.9884,0.9884,0.9884,0.9884,0.9916,1.0738,1.1409,-0.1349,-0.1347,-0.1296,-0.1296,-0.1296,-0.1293,-0.1279,-0.1237,-0.1228,-0.1198,-0.1168,0.0,-0.1124,-0.2466,0.0,0.0,0.0,0.0,-0.4277,-0.4402,-0.4978,0.0,-0.6537,0.0,-0.7614,-0.7929,-0.8149,0.0,-0.8899,-0.9429,-0.9779,-0.9486,-0.9353,-0.9473,-0.9482,-0.9536,-0.9536,-0.9673,-0.982,-0.9912,-0.9912,-0.9936,-0.9994,-0.9994,-0.9994,-0.9994,0.0,-0.9637,-0.9013,-0.9013,-0.795,-0.6183,-0.5479,-0.4283,-0.2908,-0.2152,-0.166,-0.1391,-0.1391,-0.1391,-0.1391,-0.1391,-0.148,-0.157,-0.1436,-0.148,-0.157,-0.1436,-0.1391,-0.1391,-0.1391,-0.1391,-0.1391,-0.1391,-0.1391,-0.1211,-0.0538,0.0179,0.1076,0.2373,0.3047,0.3542,0.3857,0.3903,0.3991,0.4255,0.43,0.4263,0.4165,0.412,0.4095,0.4095,0.4675,0.5784,0.7463,0.7872,0.8788,1.0423,1.0127,0.9884,0.9884,0.9884,0.9884,0.9884,0.9884,0.9884,0.9884,0.9884,0.9884,0.9916,1.0738,1.1521,-0.132,-0.1296,-0.1296,-0.1296,-0.1296,-0.1288,-0.1219,-0.1212,-0.1202,-0.1204,0.0,-0.1084,-0.1116,-0.2275,-0.2803,-0.1447,0.0,-0.3251,-0.2696,-0.277,-0.3485,-0.5095,-0.561,-0.5891,-0.5891,-0.6643,-0.6871,-0.6305,-0.7819,-0.8964,-0.9408,-0.9464,-0.9469,-0.9429,-0.9581,-0.9673,-0.9673,-0.9577,-0.9596,-0.9717,-0.955,-0.9526,-0.9639,-0.9563,-0.9506,-0.9506,-0.9506,-0.875,-0.7504,-0.7504,-0.6228,-0.4154,-0.3749,-0.2996,-0.2019,-0.157,-0.1391,-0.1391,-0.1391,-0.1391,-0.1391,-0.1391,-0.157,-0.1705,-0.148,-0.157,-0.1705,-0.148,-0.1391,-0.1391,-0.1391,-0.1391,-0.1391,-0.1391,-0.1391,-0.1211,-0.0403,0.0403,0.1479,0.2913,0.3227,0.3406,0.3812,0.3903,0.3991,0.4255,0.43,0.43,0.43,0.4234,0.4233,0.4233,0.4912,0.6002,0.7518,0.8063,0.8965,1.0533,1.022,0.997,0.997,0.9938,0.9884,0.9884,0.9884,0.9884,0.9884,0.9884,0.9884,0.9916,1.0738,1.1484,-0.1293,-0.1296,-0.1296,-0.1296,-0.1296,-0.1288,-0.1219,-0.1212,0.0,0.0,-0.1125,-0.1113,-0.1088,-0.1902,-0.2444,-0.1983,-0.2886,-0.3569,-0.3298,-0.3566,-0.3883,0.0,-0.4485,-0.469,-0.4825,-0.5003,0.0,0.0,-0.5895,-0.6908,-0.882,-0.9244,-0.9456,-0.9571,-0.9579,-0.9629,-0.9629,-0.8936,-0.8683,-0.8724,-0.7637,-0.7316,-0.7761,-0.7269,-0.7034,-0.7034,-0.7034,0.0,-0.6045,-0.6045,-0.512,-0.3705,-0.3614,-0.2772,-0.1525,-0.1436,-0.1391,-0.1391,-0.1391,-0.1391,-0.1391,-0.1391,-0.1436,-0.148,-0.1436,-0.1436,-0.148,-0.1436,-0.1391,-0.1391,-0.1391,-0.1391,-0.1391,-0.1391,-0.1391,-0.1031,0.0224,0.1703,0.2868,0.3136,0.3361,0.3587,0.3857,0.3903,0.3991,0.4255,0.43,0.43,0.43,0.4285,0.4277,0.4277,0.5835,0.7073,0.7697,0.9087,1.0165,1.0814,1.0476,1.0229,1.0229,1.003,0.9884,0.9884,0.9884,0.9884,0.9884,0.9884,0.9884,0.9916,1.0738,1.1335,-0.1296,-0.1296,-0.1296,-0.1296,-0.1296,-0.1284,-0.1199,0.0,0.0,0.0,-0.1097,-0.1093,-0.1112,-0.182,0.0,-0.1673,-0.2431,-0.288,-0.2343,-0.2431,-0.2772,-0.3313,-0.3356,-0.3444,-0.3714,-0.3935,-0.4059,-0.3956,-0.4604,-0.5818,-0.7717,-0.862,-0.9041,-0.8977,-0.8977,-0.8783,-0.8333,-0.7677,-0.7402,-0.7453,-0.6504,-0.6232,-0.6469,-0.6156,-0.6054,-0.6054,-0.6054,-0.5476,-0.4588,-0.4588,-0.3746,-0.246,-0.246,-0.2015,-0.1391,-0.1391,-0.1391,-0.1391,-0.1391,-0.1391,-0.1391,-0.1391,-0.1391,-0.1391,-0.1391,-0.1391,-0.1391,-0.1391,-0.1391,-0.1391,-0.1391,-0.1391,-0.1391,-0.1391,-0.0718,0.0179,0.1254,0.2509,0.3452,0.3542,0.3678,0.3812,0.4078,0.4123,0.4168,0.43,0.43,0.43,0.43,0.43,0.43,0.43,0.6013,0.7317,0.7786,0.934,1.0486,1.0939,1.064,1.0471,1.0471,1.0313,1.0254,1.0254,1.0175,1.0116,1.0116,0.9981,0.9884,0.9922,1.0293,1.0812,-0.1296,-0.1296,-0.1296,-0.1296,-0.1296,-0.128,-0.1217,-0.1203,0.0,-0.1122,-0.1109,-0.1109,-0.1109,-0.1676,-0.1911,0.0,-0.1705,-0.1979,-0.1285,-0.1245,-0.159,0.0,-0.2357,0.0,-0.2553,-0.2922,0.0,-0.2415,-0.3517,-0.4936,-0.6517,-0.7559,-0.8024,-0.7829,-0.7779,-0.7481,-0.6883,-0.6276,-0.5981,-0.6038,-0.5346,-0.5052,-0.5129,-0.5025,-0.4966,-0.4945,-0.4945,-0.4235,-0.3126,-0.3126,-0.246,-0.1391,-0.1391,-0.1391,-0.1391,-0.1391,-0.1391,-0.1391,-0.1391,-0.1391,-0.1391,-0.1391,-0.1391,-0.1391,-0.1391,-0.1391,-0.1391,-0.1391,-0.1391,-0.1391,-0.1391,-0.1391,-0.1345,-0.1166,0.0179,0.1569,0.215,0.3002,0.3723,0.3859,0.3946,0.4034,0.4255,0.43,0.43,0.43,0.43,0.43,0.43,0.43,0.4387,0.4654,0.6239,0.7379,0.7771,0.9481,1.0684,1.1021,1.0842,1.0672,1.0672,1.0619,1.0597,1.0597,1.046,1.0369,1.0369,1.0121,1.0024,1.0034,0.9932,1.0396,-0.1296,-0.1296,-0.1296,-0.1296,-0.1296,-0.128,-0.1217,0.0,-0.1185,-0.1122,-0.1109,-0.1109,-0.1109,-0.1179,-0.1191,-0.1117,0.0,-0.122,-0.1204,-0.1266,-0.1317,-0.1428,0.0,0.0,-0.1524,-0.1642,-0.1675,-0.1614,-0.2458,-0.376,-0.5608,-0.5817,-0.5874,-0.5874,-0.5874,-0.5824,-0.5724,-0.4977,-0.4574,-0.4566,-0.3302,-0.2902,-0.3226,-0.2746,-0.2511,-0.251,-0.251,-0.2152,0.0,-0.1613,-0.1524,-0.1391,-0.1391,-0.1391,-0.1391,-0.1391,-0.1391,-0.1391,-0.1391,-0.1391,-0.1391,-0.1391,-0.1391,-0.1391,-0.1391,-0.1391,-0.1391,-0.1391,-0.1391,-0.1391,-0.1391,-0.1391,-0.1166,-0.0314,0.1165,0.2373,0.2463,0.3227,0.3859,0.3903,0.4078,0.4255,0.43,0.43,0.43,0.43,0.43,0.43,0.43,0.43,0.4741,0.5802,0.7027,0.7771,0.7815,0.9913,1.123,1.1273,1.109,1.095,1.095,1.0751,1.0597,1.0597,1.0576,1.0565,1.0565,1.0374,1.0369,1.0517,1.0083,1.0676,-0.1291,-0.1296,-0.1296,-0.1296,-0.1282,-0.1219,-0.1213,0.0,-0.1127,-0.1118,-0.1109,-0.1109,-0.1109,-0.1109,-0.1113,0.0,0.0,0.0,-0.1154,-0.1226,-0.1286,-0.1317,-0.1372,0.0,0.0,0.0,-0.1501,-0.155,-0.1891,-0.2422,-0.3173,-0.4423,-0.5024,-0.4876,-0.4876,-0.4628,-0.418,-0.3527,-0.3175,-0.3173,-0.2326,-0.1992,-0.2095,-0.1868,-0.1797,-0.1782,-0.1714,-0.1626,0.0,-0.1398,-0.1391,-0.1391,-0.1391,-0.1446,-0.1463,-0.1463,-0.1474,-0.1441,-0.1469,-0.1463,-0.1459,-0.1396,-0.1391,-0.1391,-0.1391,-0.1391,-0.1391,-0.1391,-0.1391,-0.1391,-0.1391,-0.0987,-0.0359,0.0448,0.1748,0.2867,0.3272,0.3764,0.4123,0.4123,0.421,0.43,0.43,0.43,0.43,0.43,0.43,0.4389,0.4699,0.4743,0.5186,0.6378,0.7295,0.8078,0.8829,1.0376,1.1305,1.1305,1.1214,1.116,1.116,1.1069,1.1021,1.1021,1.0918,1.0842,1.0842,1.0611,1.0506,1.0592,1.0399,1.0824,-0.1274,-0.1289,-0.1296,-0.1296,-0.1234,-0.1204,0.0,0.0,-0.1112,-0.1116,-0.1109,-0.1109,-0.1109,-0.1109,-0.1109,0.0,0.0,-0.1111,-0.1084,-0.1184,-0.1284,0.0,0.0,-0.138,-0.1418,-0.1466,-0.1519,-0.158,-0.1605,-0.1617,-0.1617,-0.3022,-0.3775,-0.3577,-0.3577,-0.3277,-0.2726,-0.2372,-0.217,-0.217,-0.1784,-0.1555,-0.1477,-0.1495,-0.148,-0.148,-0.1458,-0.1466,0.0,-0.1471,-0.1416,-0.1416,-0.1416,-0.1475,-0.1494,-0.1494,-0.1508,-0.1523,-0.1502,-0.1494,-0.1491,-0.1423,-0.141,-0.1448,-0.1448,-0.1397,-0.1391,-0.1391,-0.1391,-0.1391,-0.1391,-0.0538,0.0448,0.0987,0.2107,0.3227,0.3723,0.3989,0.4168,0.4168,0.4255,0.43,0.43,0.43,0.43,0.43,0.4431,0.461,0.4966,0.5142,0.5761,0.717,0.7731,0.8432,0.9492,1.0641,1.1305,1.1305,1.1305,1.1305,1.1305,1.1305,1.1305,1.1305,1.1139,1.109,1.109,1.0853,1.0737,1.0801,1.0869,1.1368,-0.1242,-0.1234,-0.1296,-0.1296,-0.1234,-0.1204,0.0,0.0,-0.1112,-0.1116,-0.1109,-0.1109,-0.1109,-0.1109,-0.1109,-0.1109,0.0,0.0,-0.1117,-0.1148,-0.1227,0.0,0.0,-0.1326,-0.1384,-0.1472,-0.1551,-0.1612,-0.1616,0.0,-0.1617,-0.1617,-0.1617,-0.1617,-0.1617,-0.1617,-0.1617,-0.1617,-0.1617,-0.1616,-0.1586,-0.1555,-0.1477,-0.1495,-0.148,-0.148,-0.148,-0.1498,0.0,-0.1478,-0.1477,-0.1477,-0.1477,-0.1478,-0.1478,-0.1478,-0.1478,-0.1478,-0.1478,-0.1478,-0.1478,-0.1478,-0.1505,-0.148,-0.148,-0.1459,-0.1391,-0.1391,-0.1391,-0.1391,-0.1391,-0.0179,0.1076,0.1076,0.2376,0.3587,0.3587,0.3767,0.3903,0.3903,0.4123,0.43,0.43,0.43,0.43,0.43,0.4699,0.501,0.501,0.5408,0.6422,0.8305,0.848,0.8786,0.9536,1.0641,1.1305,1.1305,1.1305,1.1305,1.1305,1.1305,1.1305,1.1305,1.1305,1.1305,1.13,1.1101,1.1106,1.1284,1.1444,1.2377,-0.1284,-0.1245,-0.1232,-0.1232,-0.1172,-0.1147,-0.1138,-0.1112,-0.1087,-0.1111,-0.1109,-0.1109,-0.1109,-0.1109,-0.1109,-0.1109,-0.1109,0.0,0.0,0.0,0.0,-0.1281,-0.135,-0.1416,0.0,0.0,-0.1551,-0.1612,-0.1617,-0.1617,-0.1617,-0.1617,-0.1617,-0.1617,-0.1617,-0.1617,-0.1617,-0.1617,-0.1607,-0.1585,-0.1576,-0.1545,-0.1495,-0.1485,-0.1492,-0.151,-0.149,-0.151,-0.1555,-0.1535,-0.1478,-0.1478,-0.1478,-0.1538,-0.1557,-0.1557,-0.157,-0.1585,-0.1564,-0.1557,-0.1553,-0.1533,-0.1519,-0.1508,-0.1487,-0.1459,-0.1391,-0.1391,-0.1391,-0.13,-0.0852,0.0179,0.1211,0.1747,0.2734,0.3587,0.3587,0.3633,0.3678,0.3678,0.3857,0.4036,0.4036,0.4168,0.43,0.43,0.4699,0.5097,0.5453,0.5897,0.6908,0.879,0.8965,0.9453,1.0641,1.1084,1.1305,1.1305,1.1305,1.1305,1.1305,1.1305,1.1305,1.1305,1.1305,1.1305,1.1305,1.123,1.1442,1.192,1.2143,1.312,0.0,-0.1223,-0.1149,-0.1149,-0.1135,0.0,0.0,0.0,-0.1109,-0.1109,-0.1109,-0.1109,-0.1109,-0.1109,-0.1109,-0.1109,-0.1109,-0.1086,0.0,0.0,0.0,-0.1294,0.0,0.0,0.0,-0.1519,-0.1551,-0.1612,-0.1617,-0.1617,-0.1617,-0.1617,-0.1617,-0.1617,-0.1617,-0.1617,-0.1617,-0.1605,-0.159,-0.162,-0.1596,-0.1517,-0.148,-0.1469,-0.148,-0.1508,-0.1501,-0.1525,0.0,-0.1564,-0.156,-0.156,-0.156,-0.1572,-0.1589,-0.1589,-0.16,-0.1614,-0.1595,-0.1589,-0.1585,-0.1566,-0.1553,-0.1536,-0.1493,-0.1459,-0.1391,-0.1391,-0.1211,-0.0942,-0.0493,0.0493,0.148,0.1927,0.269,0.332,0.332,0.3408,0.3452,0.3452,0.3631,0.3812,0.3903,0.4036,0.4255,0.452,0.4966,0.5453,0.5897,0.6384,0.7309,0.9013,0.9187,0.9763,1.1176,1.1305,1.1305,1.1305,1.1305,1.1305,1.1305,1.1305,1.1305,1.1305,1.1305,1.1305,1.1305,1.1645,1.2054,1.2503,1.302,1.4078,0.0,0.0,0.0,0.0,0.0,0.0,0.0,0.0,0.0,-0.1109,-0.1109,-0.1109,-0.1109,-0.1109,-0.1109,-0.1109,-0.1111,-0.109,0.0,-0.1159,0.0,0.0,-0.1358,0.0,-0.1475,-0.1508,-0.1551,-0.1612,-0.1617,-0.1617,-0.1617,-0.1617,-0.1617,-0.1617,-0.1615,-0.1613,-0.1613,-0.1585,-0.1618,-0.1613,-0.1508,-0.148,-0.1476,-0.1448,-0.1452,0.0,-0.1513,-0.1543,-0.1623,-0.1605,-0.1617,-0.1617,-0.1617,-0.1617,-0.1617,-0.1617,-0.1617,-0.1617,-0.1617,-0.1617,-0.1617,-0.1617,-0.1596,-0.161,-0.1504,-0.1464,-0.1393,-0.1391,-0.0897,-0.0403,-0.0314,0.0718,0.1794,0.1884,0.2424,0.292,0.292,0.3051,0.3183,0.3183,0.3406,0.3631,0.3812,0.3859,0.4125,0.4877,0.5364,0.5855,0.6355,0.6843,0.7683,0.9099,0.9262,0.9786,1.1246,1.1316,1.1305,1.1305,1.1305,1.1305,1.1305,1.1305,1.1305,1.1305,1.1305,1.1305,1.1305,1.2217,1.2783,1.3068,1.3906,1.5095,0.0,0.0,0.0,0.0,0.0,0.0,0.0,0.0,0.0,0.0,0.0,0.0,0.0,-0.1109,-0.1109,-0.1109,-0.1095,-0.1129,-0.1183,-0.1275,0.0,-0.1367,-0.1402,-0.144,-0.1477,-0.1508,-0.1551,-0.1612,-0.1617,-0.1617,-0.1617,-0.1617,-0.1617,-0.1617,-0.1594,-0.1582,-0.1582,-0.1624,-0.1596,-0.1502,-0.1487,-0.1468,-0.1401,-0.1393,-0.1452,-0.1483,-0.1513,-0.1543,-0.1623,-0.1605,-0.1617,-0.1617,-0.1617,-0.1617,-0.1617,-0.1617,-0.1617,-0.1617,-0.1617,-0.1617,-0.1617,-0.1617,-0.1596,-0.1617,-0.1603,-0.1513,-0.1466,-0.1397,-0.0897,-0.0269,0.0314,0.1121,0.193,0.2513,0.2784,0.292,0.292,0.2918,0.2963,0.2963,0.3139,0.3317,0.3361,0.3542,0.39,0.4659,0.5149,0.5757,0.653,0.7044,0.7989,0.9794,0.9637,1.0089,1.175,1.1543,1.1305,1.1305,1.1305,1.1305,1.1305,1.1305,1.1305,1.1305,1.1305,1.1305,1.1305,1.2031,1.2731,1.3413,1.4105,1.5281,0.0,0.0,0.0,0.0,0.0,0.0,0.0,0.0,0.0,0.0,0.0,0.0,0.0,0.0,0.0,-0.115,-0.1131,0.0,0.0,0.0,-0.1376,-0.1388,-0.1405,-0.1438,0.0,-0.1516,-0.1551,-0.1612,-0.1617,-0.1617,-0.1617,-0.1617,-0.1611,-0.1596,-0.158,-0.162,-0.162,-0.1592,-0.1513,-0.148,-0.1466,-0.1451,-0.1391,-0.1391,-0.1399,-0.1461,-0.1492,-0.1523,-0.1553,-0.1583,-0.1605,-0.1617,-0.1617,-0.1617,-0.1617,-0.1617,-0.1617,-0.1617,-0.1617,-0.1617,-0.1617,-0.1617,-0.1606,-0.159,-0.1576,-0.1538,-0.1495,-0.1465,-0.0677,0.0179,0.0583,0.148,0.2424,0.2784,0.292,0.292,0.292,0.292,0.292,0.292,0.3006,0.3184,0.3628,0.3808,0.4314,0.544,0.576,0.6126,0.694,0.7233,0.8079,0.9903,0.9818,1.0338,1.2098,1.175,1.144,1.1311,1.1305,1.1305,1.1305,1.1305,1.1305,1.1305,1.1305,1.1516,1.194,1.2716,1.3522,1.4439,1.5244,1.627,0.0,0.0,0.0,0.0,0.0,0.0,0.0,0.0,0.0,0.0,0.0,0.0,0.0,-0.1125,0.0,0.0,0.0,0.0,-0.1309,-0.1326,-0.1326,-0.1387,-0.1394,0.0,-0.1458,-0.1516,-0.1543,-0.1598,-0.1607,-0.161,-0.161,-0.161,-0.1598,-0.1621,-0.1611,-0.1606,-0.1606,-0.1506,-0.1478,-0.1473,-0.1447,-0.1391,-0.1391,-0.1391,-0.1391,-0.1393,0.0,0.0,-0.1529,-0.1564,-0.1594,-0.1617,-0.1617,-0.1617,-0.1617,-0.1617,-0.1617,-0.1617,-0.1617,-0.1617,-0.1617,-0.1617,-0.1617,-0.1612,-0.1586,-0.1557,-0.1479,-0.1356,-0.0365,0.0718,0.0852,0.1885,0.292,0.292,0.292,0.292,0.292,0.292,0.292,0.292,0.292,0.3187,0.4076,0.4265,0.484,0.639,0.649,0.6645,0.7338,0.7453,0.8097,0.9894,0.9935,1.0524,1.2299,1.2003,1.1581,1.1359,1.1327,1.1305,1.1305,1.1305,1.1305,1.1305,1.1305,1.1774,1.2705,1.3584,1.449,1.5493,1.6516,1.7403,0.4556,0.3635,0.2647,0.2498,0.1774,0.0,0.0,0.0,0.0,0.0,0.0,0.0,0.0,-0.1142,-0.1197,0.0,0.0,-0.1302,0.0,0.0,-0.137,-0.1393,0.0,-0.1389,-0.1403,-0.1472,-0.1502,-0.1537,-0.1564,-0.1579,-0.1579,-0.1579,-0.1577,-0.162,-0.1521,-0.1495,-0.1495,-0.1485,-0.1468,-0.1397,-0.1393,-0.1391,-0.1391,-0.1391,-0.1391,-0.1393,0.0,-0.1522,-0.1482,-0.1587,-0.1613,-0.1617,-0.1617,-0.1617,-0.1617,-0.1617,-0.1617,-0.1617,-0.1617,-0.1617,-0.1617,-0.1617,-0.1617,-0.1616,-0.1611,-0.1589,-0.1461,-0.0764,0.0046,0.0852,0.148,0.2244,0.292,0.292,0.292,0.292,0.292,0.292,0.292,0.292,0.292,0.3141,0.3849,0.4089,0.4691,0.6125,0.6338,0.6603,0.7449,0.7563,0.8312,1.0292,1.0164,1.0731,1.2587,1.2084,1.1689,1.1645,1.1418,1.1305,1.1305,1.1305,1.1305,1.1305,1.1305,1.1774,1.2705,1.3584,1.4483,1.5445,1.6724,1.7592,0.4873,0.4292,0.3663,0.3621,0.0,0.0845,0.0107,0.0,0.0,0.0,0.0,0.0,0.0,0.0,-0.1202,-0.1234,0.0,-0.1295,-0.1363,-0.1393,-0.1406,0.0,0.0,-0.1424,-0.1457,-0.1472,-0.1493,-0.1523,-0.1539,-0.1547,-0.1547,-0.1547,-0.1539,-0.1523,-0.1495,-0.1472,-0.1456,-0.1456,-0.1449,-0.1391,-0.1391,-0.1391,-0.1391,-0.1391,-0.1391,-0.1393,0.0,-0.151,-0.1482,-0.1574,-0.1602,-0.1617,-0.1617,-0.1617,-0.1617,-0.1617,-0.1617,-0.1617,-0.1617,-0.1617,-0.1617,-0.1617,-0.1617,-0.1617,-0.1617,-0.1196,-0.0587,0.0194,0.0564,0.0864,0.1619,0.2334,0.292,0.292,0.292,0.292,0.292,0.292,0.292,0.292,0.292,0.3243,0.4408,0.468,0.5298,0.6873,0.7069,0.7169,0.7644,0.7712,0.8453,1.0391,1.0348,1.0963,1.2828,1.2408,1.1914,1.1526,1.1364,1.1305,1.1305,1.1305,1.1305,1.1305,1.1305,1.1983,1.3415,1.3795,1.4963,1.6837,1.7424,1.8072,0.5143,0.4665,0.4152,0.0,0.0,0.1337,0.0403,0.0184,0.0,0.0,0.0,0.0,0.0,-0.1224,0.0,-0.1304,-0.1296,-0.1317,-0.1325,-0.1387,-0.14,-0.14,-0.14,-0.1419,-0.1466,-0.147,-0.148,-0.1456,-0.1511,-0.1515,-0.1515,-0.1515,-0.1505,-0.1481,-0.1474,-0.1459,-0.1391,-0.1391,-0.1391,-0.1391,-0.1391,-0.1391,-0.1391,-0.1391,-0.1394,-0.1447,-0.1478,-0.1508,-0.1539,-0.157,-0.1596,-0.1617,-0.1617,-0.1617,-0.1617,-0.1617,-0.1617,-0.1617,-0.1617,-0.1617,-0.1617,-0.1617,-0.1617,-0.1617,-0.1617,-0.0849,0.0148,0.0883,0.1152,0.1306,0.2001,0.2522,0.292,0.292,0.292,0.292,0.292,0.292,0.292,0.292,0.3064,0.3587,0.4878,0.5301,0.5954,0.7488,0.7624,0.7594,0.7797,0.7956,0.8723,1.0353,1.0628,1.1306,1.2822,1.2603,1.2139,1.1542,1.1418,1.1364,1.1311,1.1305,1.1305,1.1305,1.1305,1.2192,1.3999,1.3999,1.533,1.7878,1.7959,1.8434,0.5341,0.4563,0.3674,0.3454,0.3317,0.0,0.1341,0.1017,0.0,-0.0906,0.0,0.0,0.0,-0.1258,-0.1307,-0.1298,-0.1369,-0.1397,-0.1381,0.0,-0.1387,-0.1387,-0.1387,-0.1389,-0.1393,-0.1393,-0.1395,-0.1397,-0.1468,-0.1484,-0.1484,-0.1484,-0.1483,-0.148,-0.1453,-0.1393,-0.1391,-0.1391,-0.1391,-0.1391,-0.1391,-0.1391,-0.1391,-0.1391,-0.1451,-0.1479,-0.151,-0.154,-0.157,-0.1601,-0.1615,-0.1617,-0.1617,-0.1617,-0.1617,-0.1617,-0.1617,-0.1617,-0.1617,-0.1617,-0.1617,-0.1617,-0.1617,-0.1617,-0.1617,-0.0857,0.015,0.0886,0.1809,0.2663,0.317,0.3096,0.292,0.292,0.292,0.292,0.292,0.292,0.292,0.292,0.3552,0.4242,0.475,0.5608,0.6477,0.7327,0.7421,0.7514,0.7762,0.8442,0.926,1.0118,1.1008,1.1773,1.2383,1.2398,1.228,1.2062,1.1795,1.158,1.1316,1.1305,1.1305,1.1305,1.1305,1.2192,1.3999,1.3999,1.5171,1.7432,1.7838,1.8282,0.5378,0.4787,0.4144,0.4113,0.3801,0.0,0.0,0.0811,0.0232,-0.0348,-0.0897,0.0,0.0,0.0,-0.1298,-0.1369,-0.1383,-0.14,-0.1386,-0.1391,-0.1391,-0.1391,-0.1391,-0.1391,-0.1391,-0.1391,-0.1391,-0.1391,-0.1401,-0.1453,-0.1453,-0.1453,-0.1453,-0.1453,-0.1396,-0.1391,-0.1391,-0.1391,-0.1391,-0.1391,-0.1391,-0.1391,-0.1391,-0.1455,-0.147,-0.1483,-0.1533,-0.1561,-0.1623,-0.1605,-0.1617,-0.1617,-0.1617,-0.1617,-0.1617,-0.1617,-0.1617,-0.1617,-0.1617,-0.1617,-0.1617,-0.1617,-0.1617,-0.1617,-0.1617,-0.0858,0.0201,0.1149,0.2028,0.2875,0.3512,0.3483,0.3202,0.3202,0.3035,0.2929,0.2964,0.3202,0.3489,0.3531,0.4075,0.4725,0.5351,0.5812,0.6333,0.715,0.7415,0.7563,0.7661,0.8539,0.9421,1.025,1.1536,1.2436,1.2641,1.2635,1.2527,1.2291,1.2048,1.1811,1.158,1.1569,1.1455,1.1311,1.1305,1.2192,1.3999,1.3999,1.5296,1.7797,1.7919,1.8393,0.5467,0.5058,0.4659,0.0,0.0,0.0,0.2259,0.1331,0.0588,0.0274,-0.0434,-0.1,-0.086,0.0,0.0,0.0,-0.1398,-0.1412,-0.1387,-0.1391,-0.1391,-0.1391,-0.1391,-0.1391,-0.1391,-0.1391,-0.1391,-0.1391,-0.1391,-0.1391,-0.1391,-0.1391,-0.1391,-0.1391,-0.1391,-0.1391,-0.1391,-0.1391,-0.1391,-0.1391,-0.1391,-0.1391,-0.1391,-0.1467,-0.1486,-0.1498,-0.1549,-0.1577,-0.1588,-0.1608,-0.1617,-0.1617,-0.1617,-0.1617,-0.1617,-0.1617,-0.1617,-0.1617,-0.1617,-0.1617,-0.1617,-0.1617,-0.1617,-0.1617,-0.1617,-0.0858,0.0202,0.131,0.2198,0.3057,0.3943,0.381,0.3455,0.3455,0.3188,0.2986,0.3025,0.3454,0.3842,0.3891,0.4544,0.5257,0.581,0.6048,0.6394,0.7074,0.7291,0.7394,0.7596,0.8676,0.9908,1.1047,1.2127,1.2813,1.2813,1.2813,1.2694,1.2533,1.2413,1.2181,1.1822,1.1736,1.1623,1.1418,1.1646,1.2491,1.3999,1.442,1.5786,1.8,1.8161,1.8594,0.5589,0.5409,0.0,0.0,0.0,0.0,0.3585,0.2821,0.1883,0.0825,0.008,-0.0287,0.0042,-0.0727,0.0,-0.1391,-0.1416,-0.1391,-0.1391,-0.1391,-0.1391,-0.1391,-0.1391,-0.1391,-0.1391,-0.1391,-0.1391,-0.1391,-0.1391,-0.1391,-0.1391,-0.1391,-0.1391,-0.1391,-0.1391,-0.1391,-0.1391,-0.1391,-0.1391,-0.1391,-0.1391,-0.1391,-0.1392,-0.1467,-0.1498,-0.1528,-0.1558,-0.1589,-0.1617,-0.1617,-0.1617,-0.1617,-0.1617,-0.1617,-0.1617,-0.1617,-0.1617,-0.1617,-0.1617,-0.1617,-0.1617,-0.1617,-0.1617,-0.1617,-0.1617,-0.0858,0.0202,0.126,0.2368,0.3425,0.4481,0.4168,0.3529,0.3528,0.3288,0.3097,0.3097,0.3525,0.3903,0.3903,0.4977,0.5922,0.5922,0.6413,0.6892,0.7138,0.6992,0.6995,0.7547,0.9019,1.0739,1.2613,1.2813,1.2813,1.2813,1.2813,1.2813,1.2813,1.2813,1.2597,1.2116,1.1828,1.1704,1.1698,1.2368,1.3124,1.3999,1.533,1.6665,1.8,1.8491,1.8931,0.5463,0.5123,0.0,0.4697,0.0,0.0,0.0,0.2707,0.0,0.0,0.0953,0.0767,0.0129,-0.0219,0.0,-0.1288,-0.1385,-0.1391,-0.1391,-0.1391,-0.1391,-0.1391,-0.1391,-0.1391,-0.1391,-0.1391,-0.1391,-0.1391,-0.1391,-0.1391,-0.1391,-0.1391,-0.1391,-0.1391,-0.1391,-0.1391,-0.1391,-0.1391,-0.1391,-0.1391,-0.1391,-0.1446,-0.1468,-0.1499,-0.1529,-0.156,-0.159,-0.1609,-0.1617,-0.1617,-0.1617,-0.1617,-0.1617,-0.1617,-0.1617,-0.1617,-0.1617,-0.1617,-0.1617,-0.1617,-0.1617,-0.1617,-0.1617,-0.1617,-0.1617,-0.1364,-0.0908,0.0151,0.126,0.2318,0.3374,0.3749,0.3856,0.3803,0.3415,0.3205,0.3586,0.4078,0.458,0.5036,0.5716,0.6234,0.6234,0.6415,0.6537,0.6637,0.6742,0.7388,0.9065,1.035,1.158,1.2667,1.2813,1.2813,1.2813,1.2813,1.2813,1.2813,1.2813,1.2672,1.2318,1.2242,1.2043,1.1704,1.1894,1.2669,1.3999,1.4747,1.6075,1.8,1.8491,1.8931,0.5596,0.0,0.0,0.4742,0.4137,0.3409,0.3061,0.0,0.0,0.0,0.1947,0.1695,0.1097,0.0755,0.0,-0.0314,-0.0673,-0.0852,-0.0852,-0.1166,-0.1391,-0.1391,-0.1391,-0.1391,-0.1391,-0.1391,-0.1391,-0.1391,-0.1391,-0.1391,-0.1391,-0.1391,-0.1391,-0.1391,-0.1391,-0.1391,-0.1391,-0.1391,-0.1391,-0.1391,-0.1391,-0.1451,-0.1482,-0.1512,-0.1543,-0.1622,-0.1604,-0.1617,-0.1617,-0.1617,-0.1617,-0.1617,-0.1617,-0.1617,-0.1617,-0.1617,-0.1617,-0.1617,-0.1617,-0.1617,-0.1617,-0.1617,-0.1617,-0.1617,-0.1617,-0.1313,-0.0757,0.0353,0.1411,0.2469,0.3575,0.393,0.3972,0.3925,0.3685,0.3569,0.3856,0.4506,0.5163,0.5522,0.6037,0.6437,0.6539,0.6487,0.6437,0.6539,0.7039,0.8031,0.9657,1.089,1.1927,1.271,1.2813,1.2813,1.2813,1.2813,1.2813,1.2813,1.2813,1.2748,1.256,1.2463,1.228,1.1989,1.25,1.3231,1.4173,1.5389,1.6698,1.804,1.8643,1.9073,0.5882,0.0,0.0,0.4963,0.4219,0.0,0.2863,0.2922,0.3118,0.3347,0.0,0.2538,0.2498,0.197,0.1433,0.1166,0.0493,0.0,0.0,-0.0807,-0.1391,-0.1391,-0.1391,-0.1391,-0.1391,-0.1391,-0.1391,-0.1391,-0.1391,-0.1391,-0.1391,-0.1391,-0.1391,-0.1391,-0.1391,-0.1391,-0.1391,-0.1391,-0.1391,-0.1391,-0.1391,-0.1451,-0.1482,-0.1512,-0.1544,-0.1577,-0.1605,-0.1617,-0.1617,-0.1617,-0.1617,-0.1617,-0.1617,-0.1617,-0.1617,-0.1617,-0.1617,-0.1617,-0.1617,-0.1617,-0.1617,-0.1617,-0.1617,-0.1617,-0.1617,-0.0858,0.0202,0.1159,0.2318,0.3425,0.4381,0.4332,0.4033,0.4083,0.4033,0.4033,0.4133,0.4935,0.5636,0.5684,0.6084,0.6487,0.6742,0.6539,0.6487,0.6742,0.7736,0.8775,0.9509,1.0841,1.198,1.2716,1.2813,1.2813,1.2813,1.2813,1.2813,1.2813,1.2813,1.2813,1.2813,1.256,1.2483,1.2556,1.3636,1.4311,1.4519,1.6739,1.7863,1.804,1.8904,1.9301,0.0,0.5491,0.0,0.0,0.4017,0.3061,0.2668,0.2957,0.3342,0.3399,0.3682,0.3607,0.2685,0.2552,0.2239,0.1256,0.0493,0.0,0.0,-0.0807,-0.1391,-0.1391,-0.1391,-0.1391,-0.1391,-0.1391,-0.1391,-0.1391,-0.1391,-0.1391,-0.1391,-0.1391,-0.1391,-0.1391,-0.1391,-0.1391,-0.1391,-0.1391,-0.1391,-0.1391,-0.1391,-0.1451,-0.1482,-0.1512,-0.1555,-0.1607,-0.1614,-0.1617,-0.1617,-0.1617,-0.1617,-0.1617,-0.1617,-0.1617,-0.1617,-0.1617,-0.1617,-0.1617,-0.1617,-0.1617,-0.1617,-0.1617,-0.1617,-0.1617,-0.1617,-0.0858,0.005,0.0302,0.1713,0.3274,0.3475,0.378,0.4083,0.4533,0.4284,0.4234,0.5085,0.5436,0.5734,0.6137,0.6337,0.6437,0.6487,0.6437,0.6437,0.6487,0.8124,0.941,0.9558,1.1331,1.2619,1.2759,1.2813,1.2813,1.2813,1.2813,1.2813,1.2813,1.2813,1.2813,1.2813,1.2764,1.2975,1.3561,1.3089,1.374,1.5576,1.5987,1.6828,1.804,1.8904,1.9301,0.0,0.0,0.0,0.4852,0.0,0.3684,0.3057,0.3304,0.3607,0.3435,0.387,0.403,0.3181,0.3315,0.3269,0.242,0.1792,0.121,0.0717,-0.0134,-0.0897,-0.1345,-0.1391,-0.1391,-0.1391,-0.1391,-0.1391,-0.1391,-0.1391,-0.1391,-0.1391,-0.1391,-0.1391,-0.1391,-0.1391,-0.1391,-0.1391,-0.1391,-0.1391,-0.1391,-0.1391,-0.1451,-0.1482,-0.1527,-0.1565,-0.1596,-0.1611,-0.1617,-0.1617,-0.1617,-0.1617,-0.1617,-0.1617,-0.1617,-0.1617,-0.1617,-0.1617,-0.1617,-0.1617,-0.1617,-0.1617,-0.1617,-0.1617,-0.1515,-0.1009,-0.0101,0.0857,0.141,0.2718,0.3979,0.413,0.4282,0.4535,0.5238,0.4885,0.4583,0.5434,0.5784,0.6084,0.6337,0.6387,0.6387,0.6387,0.6387,0.6387,0.6387,0.8219,0.9608,0.9608,1.1477,1.2813,1.2813,1.2813,1.2813,1.2813,1.2813,1.2813,1.2813,1.2813,1.2759,1.2619,1.2619,1.2845,1.337,1.3067,1.382,1.5647,1.6121,1.7024,1.8371,1.8984,1.9301,0.0,0.0,0.5176,0.4878,0.4737,0.0,0.3759,0.383,0.3958,0.3699,0.3978,0.4105,0.3719,0.3987,0.4123,0.3721,0.3183,0.2552,0.179,0.0717,-0.0269,-0.1076,-0.13,-0.1391,-0.1391,-0.1391,-0.1391,-0.1391,-0.1391,-0.1391,-0.1391,-0.1391,-0.1391,-0.1391,-0.1391,-0.1391,-0.1391,-0.1391,-0.1391,-0.1391,-0.1391,-0.1448,-0.1475,-0.153,-0.161,-0.1622,-0.1604,-0.1617,-0.1617,-0.1617,-0.1617,-0.1617,-0.1617,-0.1617,-0.1617,-0.1617,-0.1617,-0.1617,-0.1617,-0.1617,-0.1617,-0.1617,-0.1617,-0.1414,-0.0303,0.0756,0.1815,0.2972,0.4078,0.4985,0.5188,0.5087,0.5135,0.5839,0.5438,0.5085,0.5636,0.6087,0.6387,0.6387,0.6387,0.6387,0.6387,0.6387,0.6387,0.6387,0.8219,0.9608,0.9608,1.1477,1.2813,1.2813,1.2813,1.2813,1.2813,1.2813,1.2813,1.2813,1.2813,1.271,1.2467,1.237,1.2467,1.2716,1.3126,1.4109,1.5595,1.652,1.7555,1.87,1.9112,1.9301,0.0,0.0,0.5367,0.0,0.4971,0.4621,0.0,0.0,0.466,0.0,0.4267,0.3947,0.3888,0.3901,0.3946,0.3859,0.3136,0.2597,0.2688,0.112,-0.0045,-0.0179,-0.0897,-0.1391,-0.1391,-0.1391,-0.1391,-0.1391,-0.1391,-0.1391,-0.1391,-0.1391,-0.1391,-0.1391,-0.1391,-0.1391,-0.1391,-0.1391,-0.1391,-0.1391,-0.1391,-0.1393,-0.1397,-0.1477,-0.1521,-0.1622,-0.1604,-0.1617,-0.1617,-0.1617,-0.1617,-0.1617,-0.1617,-0.1617,-0.1617,-0.1617,-0.1617,-0.1617,-0.1617,-0.1617,-0.1617,-0.1617,-0.1617,-0.1414,-0.0303,0.0756,0.1865,0.3175,0.4481,0.5484,0.5536,0.5536,0.5586,0.5942,0.5739,0.5634,0.6187,0.6337,0.6387,0.6387,0.6387,0.6387,0.6387,0.6387,0.6387,0.6387,0.8219,0.9608,0.9608,1.1477,1.2813,1.2813,1.2813,1.2813,1.2813,1.2813,1.2813,1.2813,1.2813,1.2759,1.2764,1.2322,1.2175,1.2467,1.292,1.4206,1.6353,1.6667,1.7453,1.87,1.9112,1.9301,0.5664,0.5719,0.5764,0.0,0.5715,0.5479,0.501,0.0,0.5023,0.4844,0.449,0.4185,0.4023,0.4094,0.4022,0.358,0.3272,0.3002,0.2732,0.1926,0.1254,0.0851,0.0403,-0.0045,-0.0583,-0.0628,-0.0852,-0.1345,-0.1391,-0.1391,-0.1391,-0.1391,-0.1391,-0.1391,-0.1391,-0.1391,-0.1391,-0.1391,-0.1391,-0.1391,-0.1391,-0.1391,-0.1391,-0.1467,-0.1504,-0.1548,-0.1578,-0.1601,-0.1617,-0.1617,-0.1617,-0.1617,-0.1617,-0.1617,-0.1617,-0.1617,-0.1617,-0.1617,-0.1617,-0.1617,-0.1515,-0.0908,-0.0706,-0.0353,0.1661,0.2566,0.3272,0.473,0.5486,0.5839,0.5987,0.5937,0.5889,0.6139,0.6137,0.6137,0.6337,0.6387,0.6387,0.6387,0.6387,0.6387,0.6387,0.6387,0.6584,0.7229,0.812,0.916,1.0342,1.1326,1.2111,1.2759,1.2813,1.2813,1.2813,1.2813,1.2813,1.2813,1.2813,1.2662,1.237,1.2273,1.2078,1.1736,1.2224,1.3673,1.6066,1.625,1.7265,1.9033,1.9222,1.9301,0.0,0.0,0.5858,0.6124,0.6192,0.606,0.0,0.0,0.5383,0.0,0.4901,0.468,0.432,0.4327,0.4196,0.365,0.3705,0.3571,0.2954,0.2688,0.2295,0.1642,0.1199,0.0668,-0.0045,-0.0269,-0.0628,-0.1345,-0.1391,-0.1391,-0.1391,-0.1391,-0.1391,-0.1391,-0.1391,-0.1391,-0.1391,-0.1391,-0.1391,-0.1391,-0.1391,-0.1391,-0.1391,-0.1459,-0.1486,-0.1516,-0.1547,-0.1577,-0.1605,-0.1605,-0.161,-0.1617,-0.1617,-0.1617,-0.1617,-0.1617,-0.1617,-0.1617,-0.1617,-0.1414,-0.106,-0.0252,0.0252,0.1057,0.332,0.4024,0.4425,0.5982,0.6239,0.6139,0.6337,0.6289,0.6242,0.6387,0.6387,0.6387,0.6387,0.6387,0.6387,0.6387,0.6387,0.6387,0.6387,0.6387,0.6684,0.7478,0.7822,0.8665,1.0534,1.1023,1.1619,1.271,1.2813,1.2764,1.271,1.2764,1.2764,1.271,1.2764,1.2613,1.2224,1.2322,1.2096,1.141,1.1895,1.3321,1.5604,1.6067,1.7331,1.9301,1.9301,1.9301,0.0,0.5204,0.0,0.574,0.0,0.0,0.0,0.0,0.5828,0.5607,0.5569,0.5375,0.4864,0.4518,0.4373,0.4592,0.4422,0.417,0.3964,0.316,0.2462,0.2128,0.0652,-0.0307,-0.0358,-0.0942,-0.1345,-0.1391,-0.1391,-0.1391,-0.1391,-0.1391,-0.1391,-0.1391,-0.1391,-0.1391,-0.1391,-0.1391,-0.1391,-0.1391,-0.1391,-0.1391,-0.1391,-0.1392,-0.1454,-0.1485,-0.1515,-0.1545,-0.1623,-0.1623,-0.1591,-0.1617,-0.1617,-0.1617,-0.1617,-0.1617,-0.1617,-0.1617,-0.1617,-0.0959,-0.005,0.0,0.1056,0.2512,0.3671,0.4173,0.4672,0.6032,0.6387,0.6387,0.6387,0.6589,0.6692,0.6437,0.6387,0.6387,0.6387,0.6387,0.6387,0.6387,0.6387,0.6387,0.6387,0.6387,0.6437,0.6487,0.7329,0.8418,0.9558,1.0587,1.1619,1.271,1.2813,1.2716,1.2419,1.2667,1.2716,1.2419,1.2667,1.2813,1.2764,1.2516,1.2271,1.1957,1.2431,1.3518,1.5324,1.6468,1.7838,1.9301,1.9301,1.9301,0.0,0.0,0.0,0.5544,0.5648,0.5712,0.5712,0.5712,0.5673,0.5598,0.5479,0.5335,0.5145,0.4851,0.454,0.4233,0.4116,0.4074,0.4199,0.3903,0.3703,0.3779,0.2974,0.2173,0.1589,0.1218,0.0526,-0.0659,-0.0578,-0.0762,-0.139,-0.1391,-0.1391,-0.1391,-0.1391,-0.1391,-0.1391,-0.1391,-0.1391,-0.1391,-0.1391,-0.1391,-0.1391,-0.1391,-0.1396,-0.1452,-0.1418,-0.1496,-0.1544,-0.1564,-0.1578,-0.159,-0.1609,-0.1617,-0.1617,-0.1617,-0.1617,-0.1465,-0.0403,0.0201,0.0805,0.2514,0.3466,0.4169,0.5429,0.5884,0.6084,0.6736,0.6789,0.6642,0.6642,0.6589,0.6539,0.6437,0.6387,0.6387,0.6387,0.6387,0.6387,0.6387,0.6387,0.6387,0.6387,0.6387,0.6634,0.7329,0.7179,0.7773,1.0096,1.0096,1.0592,1.237,1.2516,1.2516,1.2419,1.2467,1.2516,1.2419,1.2467,1.2516,1.2516,1.2475,1.221,1.1752,1.2527,1.3722,1.5309,1.6227,1.7565,1.9301,1.9301,1.9301,0.5037,0.0,0.0,0.0,0.0,0.5479,0.5479,0.0,0.5482,0.5404,0.5285,0.5207,0.5207,0.4999,0.4718,0.4342,0.4272,0.4269,0.4347,0.4347,0.436,0.444,0.3946,0.3373,0.2768,0.2465,0.159,-0.0087,0.0044,0.0,-0.1345,-0.1391,-0.1391,-0.1391,-0.1391,-0.1391,-0.1391,-0.1391,-0.1391,-0.1391,-0.1391,-0.1391,-0.1391,-0.1391,-0.1391,-0.1391,-0.1391,-0.1418,-0.1513,-0.1543,-0.1562,-0.1624,-0.1605,-0.1617,-0.1617,-0.1617,-0.1262,-0.0656,0.0453,0.1408,0.2412,0.4221,0.5127,0.5632,0.6539,0.6795,0.6842,0.6992,0.6892,0.6642,0.6642,0.6539,0.6387,0.6387,0.6387,0.6387,0.6387,0.6387,0.6387,0.6387,0.6387,0.6387,0.6387,0.6387,0.6634,0.7378,0.7083,0.7624,0.9944,0.9948,1.0444,1.2224,1.2419,1.2419,1.2419,1.2419,1.2419,1.2419,1.2467,1.2516,1.2516,1.2443,1.2315,1.212,1.306,1.4259,1.5718,1.6239,1.745,1.9301,1.9301,1.9301,0.0,0.0,0.0,0.0,0.0,0.0,0.5282,0.0,0.5243,0.5054,0.5018,0.5018,0.4979,0.4979,0.4979,0.4979,0.4979,0.4859,0.4462,0.4423,0.4305,0.3966,0.3283,0.2861,0.2926,0.2467,0.1646,0.0389,0.0433,0.0,-0.1298,-0.139,-0.1391,-0.1391,-0.1391,-0.1391,-0.1391,-0.1391,-0.1391,-0.1391,-0.1391,-0.139,-0.1345,-0.1345,-0.1345,-0.1345,-0.1345,-0.1407,-0.1437,-0.1466,-0.1543,-0.1573,-0.1554,-0.1566,-0.1566,-0.1516,-0.0504,0.0855,0.0905,0.2663,0.4824,0.4874,0.5782,0.6845,0.6795,0.6795,0.6795,0.6795,0.6589,0.6387,0.6387,0.6387,0.6387,0.6387,0.6387,0.6387,0.6387,0.6387,0.6387,0.6387,0.6387,0.6387,0.6387,0.6387,0.6387,0.6387,0.7083,0.7978,0.9069,1.0145,1.1224,1.2273,1.2419,1.2419,1.2419,1.2419,1.2419,1.2419,1.2613,1.2813,1.2813,1.2538,1.2645,1.3198,1.3989,1.5118,1.6507,1.6651,1.7626,1.9301,1.9301,1.9301,0.4776,0.0,0.0,0.0,0.0,0.0,0.0,0.0,0.5054,0.5018,0.5018,0.4937,0.4818,0.4779,0.474,0.4582,0.4818,0.4976,0.4859,0.482,0.4792,0.4708,0.4272,0.3963,0.3989,0.3766,0.3198,0.0,0.1916,0.1217,-0.0175,-0.0979,-0.1391,-0.1391,-0.1391,-0.1391,-0.1391,-0.1391,-0.1211,-0.0897,-0.0897,-0.0718,-0.0403,-0.0403,-0.0403,-0.0403,-0.0403,-0.0408,-0.0463,-0.1182,-0.1292,-0.0965,-0.0997,-0.0808,-0.0353,0.0453,0.1006,0.166,0.3615,0.477,0.5525,0.6534,0.7092,0.7297,0.6895,0.6795,0.6742,0.6589,0.6437,0.6387,0.6387,0.6387,0.6387,0.6387,0.6387,0.6387,0.6387,0.6387,0.6387,0.6387,0.6387,0.6387,0.6387,0.6387,0.6387,0.6387,0.7229,0.8223,0.9069,1.0145,1.1224,1.2273,1.2419,1.2419,1.2419,1.2419,1.2419,1.2419,1.2467,1.2613,1.2813,1.2538,1.2645,1.3198,1.4263,1.5371,1.6507,1.7269,1.8198,1.9301,1.9301,1.9301,0.0,0.0,0.0,0.0,0.0,0.0,0.5018,0.5018,0.5018,0.5018,0.5018,0.4976,0.4859,0.4818,0.474,0.4543,0.474,0.4859,0.4779,0.474,0.474,0.474,0.4543,0.4384,0.4384,0.44,0.3972,0.2877,0.2784,0.2253,0.1125,-0.0133,-0.0628,-0.0224,-0.0807,-0.1211,-0.1391,-0.1211,-0.0852,-0.0403,-0.0403,-0.0314,-0.0179,-0.0179,-0.0224,-0.0314,-0.0272,-0.0274,-0.0325,-0.0477,-0.0482,-0.0387,0.005,0.0403,0.0806,0.1861,0.2712,0.3516,0.507,0.6024,0.6728,0.7391,0.7543,0.7341,0.6945,0.6742,0.6589,0.6437,0.6387,0.6387,0.6387,0.6387,0.6387,0.6387,0.6387,0.6387,0.6387,0.6387,0.6387,0.6387,0.6387,0.6387,0.6387,0.6387,0.6387,0.6387,0.7577,0.8669,0.9118,1.0542,1.1722,1.2322,1.2419,1.2467,1.2565,1.2467,1.2467,1.2565,1.257,1.2613,1.2813,1.2771,1.3019,1.3637,1.5117,1.6547,1.7912,1.8134,1.8605,1.9301,1.9301,1.9301,0.0,0.0,0.0,0.0,0.0,0.0,0.5018,0.5018,0.5018,0.5018,0.5018,0.4979,0.4976,0.4976,0.4898,0.4701,0.4659,0.4621,0.4423,0.4384,0.4423,0.4423,0.4423,0.4423,0.4462,0.4621,0.4226,0.3145,0.3283,0.3104,0.2374,0.1017,0.0672,0.1476,0.0358,-0.0582,-0.1121,-0.0628,-0.0179,0.0179,0.0269,0.0224,0.009,0.0045,-0.0045,-0.018,-0.0183,-0.0185,-0.0093,0.0773,0.0784,0.0344,0.1399,0.1861,0.2062,0.3162,0.4466,0.5724,0.5824,0.6778,0.7892,0.7643,0.7394,0.7089,0.6842,0.6589,0.6387,0.6387,0.6387,0.6387,0.6387,0.6387,0.6387,0.6387,0.6387,0.6387,0.6387,0.6387,0.6387,0.6387,0.6387,0.6387,0.6387,0.6387,0.6387,0.6387,0.7975,0.9217,0.9266,1.1086,1.2419,1.2419,1.2419,1.2516,1.2764,1.2565,1.2565,1.2759,1.2813,1.2813,1.2813,1.3079,1.3584,1.4292,1.6199,1.8145,1.9948,1.9109,1.888,1.9301,1.9262,1.9262,0.0,0.0,0.0,0.0,0.0,0.0,0.5018,0.5018,0.5018,0.5018,0.5018,0.4937,0.4779,0.474,0.4701,0.4501,0.4462,0.4462,0.4423,0.4384,0.4462,0.4621,0.4659,0.4701,0.4859,0.4779,0.467,0.4575,0.3956,0.3285,0.264,0.2255,0.21,0.2278,0.2232,0.1696,0.0626,0.1431,0.1744,0.1478,0.2057,0.2593,0.3042,0.2907,0.2845,0.2936,0.2902,0.2963,0.3102,0.3272,0.2692,0.1814,0.2796,0.362,0.4321,0.5377,0.5979,0.6381,0.7235,0.759,0.7643,0.7341,0.7092,0.6842,0.6539,0.6437,0.6387,0.6387,0.6387,0.6387,0.6387,0.6387,0.6387,0.6387,0.6387,0.6387,0.6387,0.6387,0.6387,0.6387,0.6387,0.6387,0.6387,0.6387,0.6387,0.6387,0.7975,0.9266,0.9509,1.1184,1.2467,1.2716,1.2716,1.2759,1.2813,1.2764,1.2759,1.2813,1.2813,1.2813,1.2813,1.3199,1.3723,1.4298,1.674,1.8792,2.036,1.9579,1.9216,1.9301,1.9112,1.9152,0.0,0.0,0.0,0.4743,0.0,0.0,0.0,0.4936,0.5018,0.5018,0.5018,0.4976,0.4859,0.4859,0.4761,0.4507,0.4506,0.4465,0.4244,0.4243,0.4272,0.4389,0.4311,0.4311,0.4389,0.4389,0.4509,0.4818,0.4046,0.375,0.4176,0.3396,0.3186,0.3708,0.3215,0.2725,0.237,0.2592,0.2683,0.2684,0.3086,0.3353,0.3534,0.3527,0.3472,0.3417,0.3488,0.3559,0.3627,0.4157,0.412,0.3722,0.4359,0.4828,0.5329,0.6384,0.6786,0.6886,0.7437,0.749,0.7341,0.7092,0.6892,0.6742,0.6487,0.6387,0.6387,0.6387,0.6387,0.6387,0.6387,0.6387,0.6387,0.6387,0.6387,0.6387,0.6387,0.6387,0.6387,0.6387,0.6387,0.6387,0.6387,0.6734,0.7033,0.7182,0.8814,1.0096,1.0342,1.1678,1.2667,1.2813,1.2813,1.2813,1.2813,1.2813,1.2813,1.2813,1.2813,1.2813,1.2813,1.3534,1.4717,1.6499,1.7629,1.8943,2.0521,1.9907,1.9503,1.9301,1.9073,1.9033,0.0,0.0,0.0,0.0,0.0,0.48,0.0,0.0,0.0,0.4944,0.0,0.0,0.0,0.0,0.0,0.0,0.0,0.0,0.0,0.4148,0.0,0.4165,0.4066,0.3997,0.4038,0.4194,0.4392,0.4621,0.4123,0.4342,0.5577,0.4543,0.4291,0.5186,0.4156,0.3664,0.3801,0.3621,0.3621,0.3801,0.3937,0.3935,0.3757,0.3837,0.3789,0.3625,0.3759,0.3826,0.3892,0.4752,0.5233,0.5482,0.5734,0.5887,0.6037,0.6886,0.7188,0.7188,0.7188,0.7188,0.7089,0.6892,0.6742,0.6692,0.6487,0.6387,0.6387,0.6387,0.6387,0.6387,0.6387,0.6387,0.6387,0.6387,0.6387,0.6387,0.6387,0.6387,0.6387,0.6387,0.6387,0.6387,0.6387,0.7083,0.768,0.7971,0.955,1.0832,1.117,1.2068,1.2759,1.2813,1.2813,1.2813,1.2813,1.2813,1.2813,1.2813,1.2813,1.2861,1.291,1.3919,1.5805,1.8742,1.848,1.9062,2.0521,2.0159,1.9747,1.9222,1.9073,1.8962,0.0,0.0,0.0,0.0,0.4698,0.0,0.0,0.0,0.4817,0.4817,0.0,0.0,0.0,0.0,0.0,0.0,0.0,0.0,0.462,0.4424,0.4333,0.4423,0.4522,0.4662,0.4859,0.4898,0.4781,0.4462,0.48,0.5119,0.5405,0.5565,0.573,0.5988,0.5985,0.5539,0.4605,0.5364,0.5364,0.4561,0.5191,0.5549,0.5772,0.5665,0.5681,0.574,0.5868,0.5979,0.6066,0.6182,0.6237,0.6284,0.6539,0.6792,0.7036,0.7138,0.7188,0.7188,0.7188,0.7039,0.6842,0.6795,0.6639,0.6437,0.6387,0.6387,0.6387,0.6387,0.6387,0.6387,0.6387,0.6387,0.6387,0.6387,0.6387,0.6387,0.6387,0.6387,0.6387,0.6387,0.6387,0.6387,0.6387,0.7083,0.768,0.7971,0.9414,1.065,1.1121,1.1922,1.2521,1.2764,1.2813,1.2813,1.2813,1.2813,1.2813,1.2813,1.2813,1.3007,1.3394,1.4454,1.6197,1.8742,1.8756,1.9304,2.0521,2.0433,1.9939,1.9042,1.9002,1.8882,0.0,0.0,0.0,0.0,0.0,0.0,0.5029,0.0,0.5245,0.0,0.0,0.0,0.0,0.0,0.0,0.0,0.4723,0.0,0.0,0.0,0.4491,0.0,0.0,0.0,0.4673,0.466,0.4659,0.474,0.486,0.5018,0.5257,0.5502,0.567,0.5752,0.5913,0.5772,0.528,0.5686,0.5686,0.528,0.5552,0.5777,0.5869,0.5969,0.6037,0.6094,0.6285,0.6393,0.6387,0.6387,0.6387,0.6387,0.6539,0.6637,0.6736,0.6736,0.6736,0.6736,0.6736,0.6639,0.6589,0.6589,0.6487,0.6387,0.6387,0.6387,0.6387,0.6387,0.6387,0.6387,0.6387,0.6387,0.6387,0.6387,0.6387,0.6387,0.6387,0.6387,0.6387,0.6387,0.6387,0.6387,0.6387,0.7431,0.8619,0.9501,1.0596,1.1536,1.2068,1.2414,1.2667,1.2813,1.2813,1.2813,1.2813,1.2813,1.291,1.3201,1.3349,1.3643,1.411,1.4895,1.6211,1.8095,1.8681,1.935,2.0131,2.0131,1.9757,1.9002,1.9002,1.8843,0.6046,0.0,0.0,0.0,0.0,0.0,0.0,0.0,0.0,0.0,0.0,0.0,0.0,0.0,0.0,0.0,0.0,0.4566,0.0,0.4484,0.0,0.0,0.0,0.0,0.0,0.4487,0.4627,0.4896,0.482,0.4907,0.5181,0.5344,0.5426,0.5502,0.5626,0.5688,0.5688,0.5688,0.5688,0.5688,0.5688,0.5704,0.5742,0.5994,0.6105,0.6149,0.635,0.6387,0.6387,0.6387,0.6387,0.6387,0.6387,0.6387,0.6387,0.6387,0.6387,0.6387,0.6387,0.6387,0.6387,0.6387,0.6387,0.6387,0.6387,0.6387,0.6387,0.6387,0.6387,0.6387,0.6387,0.6387,0.6387,0.6387,0.6387,0.6387,0.6387,0.6387,0.6484,0.6783,0.6833,0.698,0.7524,0.8273,0.9167,1.0194,1.1282,1.2175,1.2613,1.2764,1.2813,1.2813,1.2813,1.2813,1.2813,1.2813,1.2958,1.3298,1.3679,1.404,1.4406,1.5264,1.6345,1.7668,1.8629,1.9354,1.9893,1.9893,1.9616,1.9075,1.9087,1.8896,0.0,0.0,0.0,0.6012,0.0,0.0,0.0,0.0,0.527,0.0,0.0,0.0,0.0,0.0,0.0,0.0,0.0,0.0,0.0,0.0,0.0,0.0,0.0,0.0,0.0,0.4686,0.4774,0.4732,0.4898,0.5067,0.5181,0.5344,0.5426,0.5502,0.5626,0.5688,0.5688,0.5688,0.5688,0.5688,0.5688,0.5748,0.5901,0.6029,0.6151,0.6317,0.6385,0.6387,0.6387,0.6387,0.6387,0.6387,0.6387,0.6387,0.6387,0.6387,0.6387,0.6387,0.6387,0.6387,0.6387,0.6387,0.6387,0.6387,0.6387,0.6387,0.6387,0.6387,0.6387,0.6387,0.6387,0.6387,0.6387,0.6387,0.6387,0.6387,0.6387,0.6387,0.6684,0.7726,0.7971,0.8517,1.0337,0.9608,0.892,0.9217,1.0841,1.2078,1.237,1.2613,1.2813,1.2813,1.2813,1.2813,1.2813,1.2813,1.2813,1.2813,1.3489,1.3906,1.3906,1.5445,1.6705,1.7668,1.8629,1.9354,1.9893,1.9893,1.967,1.9224,1.9245,1.9151,0.0,0.0,0.739,0.6761,0.0,0.0,0.0,0.0,0.0,0.0,0.0,0.0,0.0,0.0,0.0,0.0,0.0,0.0,0.0,0.0,0.0,0.0,0.0,0.0,0.0,0.0,0.4774,0.4776,0.4892,0.5034,0.5072,0.5262,0.5429,0.5428,0.5627,0.5688,0.5688,0.5688,0.5688,0.5688,0.5688,0.5748,0.5907,0.6029,0.6154,0.6322,0.6388,0.6387,0.6387,0.6387,0.6387,0.6387,0.6387,0.6387,0.6387,0.6387,0.6387,0.6387,0.6387,0.6387,0.6387,0.6387,0.6387,0.6387,0.6387,0.6387,0.6387,0.6387,0.6387,0.6387,0.6387,0.6387,0.6387,0.6387,0.6387,0.6387,0.6387,0.6387,0.6734,0.7776,0.8021,0.8418,0.9752,1.0047,1.0395,1.1184,1.1878,1.237,1.2613,1.2759,1.2813,1.2813,1.2813,1.2813,1.2813,1.3389,1.3919,1.431,1.4669,1.4798,1.4663,1.6067,1.6904,1.7056,1.8473,1.9318,1.9512,1.9512,1.9432,1.9263,1.9417,1.9226,0.8068,0.8117,0.0,0.7493,0.7478,0.0,0.6646,0.0,0.6627,0.0,0.0,0.0,0.0,0.0,0.0,0.0,0.0,0.0,0.0,0.5245,0.0,0.0,0.0,0.0,0.0,0.0,0.4806,0.4855,0.4933,0.5018,0.0,0.5241,0.541,0.541,0.5605,0.5688,0.5688,0.5688,0.5688,0.5688,0.5729,0.5855,0.5972,0.6094,0.6214,0.6333,0.6404,0.6387,0.6387,0.6387,0.6387,0.6387,0.6387,0.6387,0.6387,0.6387,0.6387,0.6387,0.6387,0.6387,0.6387,0.6387,0.6387,0.6387,0.6387,0.6387,0.6387,0.6387,0.6387,0.6387,0.6387,0.6387,0.6387,0.6387,0.6387,0.6484,0.6883,0.698,0.7378,0.8859,0.9156,0.9501,1.0542,1.1179,1.1575,1.1824,1.217,1.2467,1.2613,1.2759,1.2813,1.2813,1.2813,1.2861,1.3055,1.3823,1.4442,1.479,1.4991,1.5206,1.5382,1.6635,1.7413,1.758,1.885,1.9522,1.9522,1.9375,1.9344,1.942,1.9592,1.9397]}]]